Date StartTime U_cm/s V_cm/s W_cm/s Ustd_cm/s Vstd_cm/s Wstd_cm/s Uvar_(cm/s)^2 Vvar_(cm/s)^2 Wvar_(cm/s)^2 KE_(m/s)^2 TurbulentKE_(m/s)^2 HorizWindSpeed_cm/s FrictionSpeec_cm/s DragCoef SpeedOfSound_m/s SonicTemperature_C Pressure_mb 
07/02/2013  00:00:00     -139.087     -120.175       -2.130       78.765       64.703       46.811     6203.993     4186.469     2191.261        2.318        0.629      183.813       48.772        0.070      349.046       29.184      864.412
07/02/2013  00:01:00     -169.002     -105.257       -1.317       75.502       74.406       40.022     5700.589     5536.190     1601.736        2.624        0.642      199.100       34.751        0.030      349.054       29.198      864.405
07/02/2013  00:02:00     -153.210      -94.132       -1.028       80.700       53.392       37.497     6512.493     2850.708     1406.038        2.155        0.538      179.817       50.025        0.077      349.003       29.108      864.396
07/02/2013  00:03:00     -250.346     -122.000       -9.200       76.847       66.127       47.349     5905.463     4372.732     2241.955        4.508        0.626      278.490       42.120        0.023      349.105       29.284      864.391
07/02/2013  00:04:00     -208.736      -54.022       -4.117       85.267       50.730       40.520     7270.533     2573.506     1641.852        2.899        0.574      215.613       42.711        0.039      349.067       29.219      864.389
07/02/2013  00:05:00     -162.457      -51.085        5.358       69.096       67.408       37.267     4774.220     4543.883     1388.864        1.987        0.535      170.299       29.645        0.030      349.017       29.134      864.378
07/02/2013  00:06:00     -174.360      -58.648        4.247       83.696       55.681       37.919     7004.992     3100.338     1437.820        2.270        0.577      183.959       41.490        0.051      348.959       29.034      864.371
07/02/2013  00:07:00     -155.264      -46.629       -0.015       81.990       52.889       28.780     6722.280     2797.211      828.292        1.831        0.517      162.115       30.762        0.036      348.964       29.041      864.349
07/02/2013  00:08:00     -175.478      -48.927        1.286       67.371       57.736       32.902     4538.875     3333.463     1082.550        2.107        0.448      182.171       31.987        0.031      349.020       29.139      864.331
07/02/2013  00:09:00     -177.087      -64.485       -4.066       63.319       45.765       32.055     4009.281     2094.441     1027.492        2.133        0.357      188.463       34.570        0.034      349.088       29.257      864.312
07/02/2013  00:10:00     -138.427      -45.829        0.000       63.073       36.164       26.352     3978.213     1307.810      694.436        1.362        0.299      145.816       29.169        0.040      349.086       29.255      864.291
07/02/2013  00:11:00     -153.381      -54.880        4.040       49.582       32.910       22.600     2458.386     1083.094      510.754        1.530        0.203      162.903       21.748        0.018      349.116       29.308      864.292
07/02/2013  00:12:00     -154.311      -37.200       -1.376       38.299       41.299       24.385     1466.788     1705.623      594.644        1.448        0.188      158.732       20.613        0.017      349.185       29.429      864.276
07/02/2013  00:13:00     -155.289      -51.013       -7.954       32.215       37.460       22.901     1037.778     1403.283      524.475        1.487        0.148      163.453       21.027        0.017      349.101       29.281      864.258
07/02/2013  00:14:00     -195.395      -91.266       -8.499       50.763       34.644       23.333     2576.904     1200.214      544.438        2.545        0.216      215.659       22.429        0.011      349.027       29.150      864.239
07/02/2013  00:15:00     -216.448      -46.299       -3.743       70.451       51.526       37.715     4963.400     2654.904     1422.390        2.902        0.452      221.344       33.974        0.024      349.104       29.284      864.218
07/02/2013  00:16:00     -167.386      -50.907       -1.156       62.337       60.994       29.325     3885.852     3720.238      859.964        1.954        0.423      174.956       25.460        0.021      349.132       29.333      864.194
07/02/2013  00:17:00     -159.598      -38.185       -7.108       67.419       35.345       24.963     4545.368     1249.272      623.153        1.670        0.321      164.103       27.370        0.028      349.057       29.204      864.178
07/02/2013  00:18:00     -159.137      -24.079      -10.703       43.130       32.071       25.191     1860.234     1028.526      634.592        1.477        0.176      160.949       22.477        0.020      348.977       29.065      864.177
07/02/2013  00:19:00     -180.204      -23.857      -21.758       31.175       30.307       20.723      971.910      918.487      429.462        1.792        0.116      181.776       11.552        0.004      348.942       29.005      864.182
07/02/2013  00:20:00     -143.252       -7.311       -8.724       57.772       37.096       29.725     3337.580     1376.093      883.571        1.312        0.280      143.438       30.532        0.045      348.876       28.892      864.186
07/02/2013  00:21:00     -143.705      -63.226       -1.302       53.203       35.219       24.622     2830.521     1240.350      606.247        1.466        0.234      156.999       28.145        0.032      349.082       29.247      864.182
07/02/2013  00:22:00     -120.379      -40.130        1.326       45.085       35.700       20.298     2032.642     1274.505      412.024        0.991        0.186      126.892       18.432        0.021      349.042       29.179      864.180
07/02/2013  00:23:00      -41.845       -4.647       17.741       30.716       40.220       29.522      943.499     1617.650      871.554        0.276        0.172       42.103       26.938        0.409      348.993       29.096      864.175
07/02/2013  00:24:00       -8.614      -25.692       -6.118       51.575       30.355       20.708     2660.002      921.402      428.834        0.239        0.201       27.097       18.538        0.468      349.046       29.186      864.183
07/02/2013  00:25:00      -42.609      -21.697        5.379       35.610       34.659       26.993     1268.094     1201.258      728.613        0.276        0.160       47.815       19.248        0.162      349.035       29.167      864.190
07/02/2013  00:26:00      -64.614      -59.411        2.749       38.244       29.925       17.761     1462.602      895.511      315.439        0.519        0.134       87.776       19.108        0.047      349.011       29.126      864.186
07/02/2013  00:27:00      -51.405      -45.414       11.207       38.779       31.587       23.172     1503.824      997.746      536.924        0.393        0.152       68.592       22.332        0.106      349.003       29.111      864.192
07/02/2013  00:28:00      -94.188      -60.531       -3.985       37.543       35.379       18.921     1409.502     1251.649      358.018        0.778        0.151      111.962       17.294        0.024      349.096       29.274      864.191
07/02/2013  00:29:00      -72.118      -28.351        3.769       40.277       37.007       23.213     1622.234     1369.493      538.839        0.477        0.177       77.490       22.011        0.081      349.097       29.276      864.199
07/02/2013  00:30:00      -76.988      -29.713       -1.290       28.217       18.636       13.374      796.217      347.306      178.863        0.407        0.066       82.522       11.460        0.019      349.120       29.314      864.205
07/02/2013  00:31:00      -86.627      -49.259       -7.929       35.623       30.633       13.663     1269.004      938.399      186.688        0.619        0.120       99.652        8.717        0.008      349.176       29.410      864.211
07/02/2013  00:32:00      -57.566      -56.748       -4.408       58.157       28.501       23.452     3382.239      812.281      549.985        0.565        0.237       80.834       15.405        0.036      349.120       29.314      864.212
07/02/2013  00:33:00      -16.709     -107.092       -2.230       22.753       22.805       13.153      517.706      520.077      173.014        0.648        0.061      108.388        7.284        0.005      349.166       29.393      864.213
07/02/2013  00:34:00      -20.748      -45.367       -6.006       26.841       35.592       17.730      720.451     1266.756      314.355        0.241        0.115       49.886       15.891        0.101      349.031       29.158      864.213
07/02/2013  00:35:00      -26.375     -117.286        1.091       23.795       45.699       15.587      566.224     2088.390      242.960        0.867        0.145      120.215       13.412        0.012      348.982       29.076      864.222
07/02/2013  00:36:00      -13.981      -61.600        5.687       38.574       38.815       24.046     1487.932     1506.612      578.196        0.380        0.179       63.166       23.714        0.141      348.921       28.970      864.225
07/02/2013  00:37:00      -49.777      -66.254        4.121       39.960       27.395       22.162     1596.810      750.473      491.135        0.486        0.142       82.869       25.829        0.097      348.936       28.995      864.224
07/02/2013  00:38:00      -35.362      -37.636        9.285       28.569       20.468       20.777      816.210      418.919      431.677        0.221        0.083       51.642       16.849        0.106      348.926       28.978      864.228
07/02/2013  00:39:00      -78.921      -46.970        0.769       25.950       26.498       15.945      673.424      702.124      254.234        0.503        0.081       91.840       10.921        0.014      348.952       29.024      864.220
07/02/2013  00:40:00      -51.778      -41.728        6.977       40.382       29.756       23.927     1630.674      885.412      572.515        0.378        0.154       66.500       24.401        0.135      348.892       28.919      864.219
07/02/2013  00:41:00      -30.177      -37.098        9.547       27.803       21.296       17.216      772.988      453.531      296.402        0.195        0.076       47.822       15.259        0.102      348.792       28.747      864.213
07/02/2013  00:42:00      -22.767      -47.505       11.531       42.347       36.229       26.425     1793.270     1312.557      698.266        0.336        0.190       52.679       26.422        0.252      348.760       28.692      864.220
07/02/2013  00:43:00     -111.953     -121.371        3.135       66.457       71.129       39.851     4416.528     5059.392     1588.117        1.917        0.553      165.120       35.395        0.046      348.753       28.679      864.239
07/02/2013  00:44:00     -115.505     -125.272       -0.530       71.383       46.242       29.407     5095.469     2138.344      864.748        1.856        0.405      170.394       34.711        0.041      348.751       28.674      864.248
07/02/2013  00:45:00      -94.502     -122.306        3.106       58.781       54.870       33.757     3455.192     3010.687     1139.557        1.575        0.380      154.562       14.650        0.009      348.721       28.625      864.271
07/02/2013  00:46:00      -70.159     -108.936        7.103       65.162       48.396       39.907     4246.026     2342.167     1592.593        1.251        0.409      129.573       37.606        0.084      348.659       28.514      864.299
07/02/2013  00:47:00      -36.112      -56.114       15.812       32.361       54.871       26.875     1047.233     3010.793      722.257        0.474        0.239       66.730       29.271        0.192      348.607       28.427      864.336
07/02/2013  00:48:00        5.735       18.394       27.746       24.139       22.945       25.058      582.669      526.463      627.885        0.144        0.087       19.267       17.457        0.821      348.557       28.338      864.368
07/02/2013  00:49:00        3.697       45.868       60.560       29.974       34.823       19.732      898.442     1212.610      389.349        0.414        0.125       46.017       18.664        0.165      348.549       28.326      864.395
07/02/2013  00:50:00       -0.062       50.447       66.204       22.918       30.825       25.434      525.217      950.174      646.899        0.452        0.106       50.447       17.846        0.125      348.558       28.341      864.408
07/02/2013  00:51:00        8.214       37.699       46.453       30.429       40.196       18.407      925.934     1615.746      338.821        0.326        0.144       38.583       18.819        0.238      348.566       28.356      864.418
07/02/2013  00:52:00       39.365       21.275        8.396       18.237       15.087       19.264      332.585      227.605      371.085        0.150        0.047       44.746       14.457        0.104      348.532       28.297      864.420
07/02/2013  00:53:00       39.419       16.953       12.838       16.679       19.924       13.646      278.204      396.950      186.204        0.143        0.043       42.910       11.011        0.066      348.499       28.241      864.421
07/02/2013  00:54:00       42.276       20.300       14.833       14.281       13.415       14.875      203.934      179.960      221.252        0.151        0.030       46.898        8.379        0.032      348.435       28.129      864.419
07/02/2013  00:55:00       29.255       32.358       39.595       31.823       25.337       20.817     1012.677      641.952      433.333        0.278        0.104       43.622       23.021        0.279      348.513       28.264      864.426
07/02/2013  00:56:00       -0.746       26.646       60.445       21.718       35.370       20.301      471.686     1251.046      412.131        0.325        0.107       26.656       20.383        0.585      348.603       28.419      864.428
07/02/2013  00:57:00       14.512      -45.323       28.679       26.505       39.559       31.968      702.500     1564.933     1021.972        0.319        0.164       47.589       21.179        0.198      348.704       28.594      864.435
07/02/2013  00:58:00       38.300      -80.217        6.531       28.680       33.425       25.064      822.526     1117.238      628.226        0.526        0.128       88.891       16.236        0.033      348.741       28.658      864.439
07/02/2013  00:59:00       54.960     -106.356       -7.467       18.923       24.302       14.224      358.091      590.570      202.331        0.777        0.058      119.717       11.859        0.010      348.809       28.777      864.435
07/02/2013  01:00:00       37.368      -62.435        9.404       33.320       50.490       26.863     1110.252     2549.214      721.630        0.488        0.219       72.764       30.937        0.181      348.740       28.656      864.438
07/02/2013  01:01:00       -5.042       18.253       39.539       17.263       26.695       14.370      298.025      712.642      206.491        0.157        0.061       18.937       10.427        0.303      348.653       28.506      864.439
07/02/2013  01:02:00      -10.563        0.169       20.469        8.321       15.216       15.698       69.241      231.541      246.442        0.054        0.027       10.565       14.108        1.783      348.577       28.374      864.444
07/02/2013  01:03:00      -16.562      -22.210        4.759       13.818       14.745       14.168      190.930      217.421      200.725        0.070        0.030       27.705       12.323        0.198      348.412       28.089      864.472
07/02/2013  01:04:00        7.143      -15.567        6.303       23.181       28.547       17.515      537.344      814.907      306.767        0.100        0.083       17.128       15.797        0.851      348.401       28.071      864.523
07/02/2013  01:05:00        9.793        6.763       20.701       12.103       10.876       11.163      146.472      118.298      124.620        0.048        0.019       11.901        7.560        0.404      348.351       27.984      864.558
07/02/2013  01:06:00        4.986       -0.458       10.336        8.501        9.306        9.668       72.273       86.604       93.470        0.019        0.013        5.007        5.320        1.129      348.383       28.039      864.592
07/02/2013  01:07:00        9.424       36.622       -4.532       11.745       16.453        6.867      137.937      270.687       47.154        0.095        0.023       37.815        5.248        0.019      348.337       27.958      864.616
07/02/2013  01:08:00       -4.928       53.060       -1.972        9.647       17.077       11.235       93.065      291.630      126.227        0.168        0.026       53.289        9.731        0.033      348.229       27.772      864.656
07/02/2013  01:09:00        6.089       47.443       -4.458       18.924       31.709       14.579      358.103     1005.488      212.542        0.194        0.079       47.832       16.676        0.122      348.220       27.757      864.692
07/02/2013  01:10:00      -11.988      161.619      -22.256       22.793       29.712       11.407      519.504      882.802      130.124        1.415        0.077      162.063       10.023        0.004      348.270       27.845      864.732
07/02/2013  01:11:00      -13.756      132.955      -12.688       17.451       19.980       14.441      304.534      399.191      208.544        0.947        0.046      133.665       10.579        0.006      348.301       27.898      864.750
07/02/2013  01:12:00      -30.304      101.730      -10.556       18.953       25.670       12.737      359.202      658.957      162.231        0.628        0.059      106.147        5.583        0.003      348.174       27.676      864.767
07/02/2013  01:13:00      -23.390      136.602      -11.830       18.532       24.451       11.612      343.449      597.848      134.828        1.021        0.054      138.590        8.008        0.003      348.343       27.970      864.765
07/02/2013  01:14:00      109.997      118.827        9.432       61.639       73.298       35.947     3799.337     5372.571     1292.173        1.838        0.523      161.923       37.330        0.053      348.588       28.390      864.750
07/02/2013  01:15:00        2.583       66.304        3.422       28.712       38.225       20.237      824.354     1461.175      409.550        0.355        0.135       66.355       23.323        0.124      348.506       28.252      864.752
07/02/2013  01:16:00       -0.579       99.374       -5.083       60.596       36.598       26.179     3671.823     1339.418      685.345        0.780        0.285       99.376       15.496        0.024      348.438       28.134      864.752
07/02/2013  01:17:00       -5.539       62.947       -6.933       19.947       21.690       16.337      397.873      470.447      266.891        0.259        0.057       63.190       13.911        0.048      348.568       28.358      864.744
07/02/2013  01:18:00        4.553       89.834       -8.486       20.496       22.395       16.372      420.099      501.528      268.034        0.468        0.059       89.950       12.932        0.021      348.515       28.269      864.746
07/02/2013  01:19:00       10.794       88.293      -17.153       23.561       28.409       10.304      555.111      807.085      106.169        0.484        0.073       88.950        5.241        0.003      348.667       28.530      864.737
07/02/2013  01:20:00       33.882       44.521        1.006       25.516       35.553       16.737      651.046     1263.985      280.139        0.266        0.110       55.947       17.977        0.103      348.705       28.597      864.739
07/02/2013  01:21:00      -16.079       14.318       -4.721       11.978        9.300       10.383      143.468       86.487      107.803        0.041        0.017       21.530        7.581        0.124      348.542       28.314      864.746
07/02/2013  01:22:00        8.902       -7.654        3.384       11.096       11.909        9.570      123.123      141.813       91.579        0.025        0.018       11.740        5.894        0.252      348.381       28.035      864.761
07/02/2013  01:23:00       -0.722      -21.476        7.608        4.871        7.676        8.833       23.729       58.922       78.027        0.034        0.008       21.488        4.573        0.045      348.480       28.206      864.778
07/02/2013  01:24:00       17.936      -28.008       -2.082        7.934       15.094        5.661       62.952      227.841       32.046        0.072        0.016       33.259        4.832        0.021      348.594       28.403      864.787
07/02/2013  01:25:00       28.408       14.735        2.606        6.594        6.807        4.835       43.486       46.342       23.377        0.057        0.006       32.002        2.435        0.006      348.700       28.585      864.796
07/02/2013  01:26:00        8.280       -5.892        0.682        9.191       18.004       10.665       84.478      324.161      113.748        0.031        0.026       10.162       10.088        0.985      348.474       28.194      864.799
07/02/2013  01:27:00       -0.442        2.381        2.100        9.399        9.853        5.198       88.350       97.083       27.017        0.011        0.011        2.421        2.442        1.017      348.474       28.194      864.815
07/02/2013  01:28:00       25.875       38.763        9.940       13.222       11.778        9.974      174.821      138.716       99.474        0.134        0.021       46.606        4.816        0.011      348.519       28.272      864.811
07/02/2013  01:29:00       37.650       34.035       13.934       16.541       13.896       12.180      273.619      193.105      148.362        0.169        0.031       50.754        7.106        0.020      348.497       28.236      864.808
07/02/2013  01:30:00       18.997       49.742        2.952       15.837       25.201       13.503      250.817      635.095      182.332        0.196        0.053       53.246       16.679        0.098      348.429       28.118      864.796
07/02/2013  01:31:00       15.572       40.901        1.927       20.051       18.831       12.075      402.024      354.600      145.814        0.141        0.045       43.765       10.784        0.061      348.406       28.078      864.783
07/02/2013  01:32:00        9.663       51.665       -1.034       18.731       18.274       10.231      350.839      333.938      104.674        0.178        0.039       52.561        9.107        0.030      348.501       28.242      864.769
07/02/2013  01:33:00        1.532       44.826       -0.506       15.962       28.796       10.829      254.773      829.232      117.260        0.161        0.060       44.853       12.241        0.074      348.443       28.141      864.765
07/02/2013  01:34:00       -0.420       62.482       -8.947       15.267       18.569       11.332      233.073      344.800      128.409        0.235        0.035       62.484        8.431        0.018      348.547       28.323      864.749
07/02/2013  01:35:00        2.536       61.011       -7.724       12.923       10.780        8.613      167.013      116.200       74.180        0.207        0.018       61.064        6.953        0.013      348.511       28.260      864.722
07/02/2013  01:36:00       -4.620       39.831      -10.876       11.421       12.312        6.101      130.440      151.588       37.221        0.102        0.016       40.098        5.728        0.020      348.554       28.334      864.695
07/02/2013  01:37:00      -28.883       25.411       -8.747       19.288       12.663        5.425      372.014      160.352       29.431        0.106        0.028       38.470        5.147        0.018      348.525       28.285      864.678
07/02/2013  01:38:00      -55.768       -5.932       -8.479        7.293       10.214        4.886       53.184      104.335       23.871        0.170        0.009       56.083        1.262        0.001      348.253       27.814      864.656
07/02/2013  01:39:00      -84.661       -6.490      -10.117       14.021       11.517        7.457      196.601      132.651       55.614        0.385        0.019       84.910        5.715        0.005      348.046       27.455      864.643
07/02/2013  01:40:00      -82.344      -17.796      -12.225       18.171       21.618       12.027      330.200      467.329      144.650        0.409        0.047       84.245        7.791        0.009      347.932       27.259      864.624
07/02/2013  01:41:00      -88.472      -16.687       -9.336       36.387       20.445       19.245     1324.006      418.005      370.359        0.515        0.106       90.032       22.223        0.061      347.803       27.038      864.611
07/02/2013  01:42:00      -96.839      -38.106       -2.880       32.066       28.113       17.646     1028.210      790.368      311.371        0.648        0.106      104.066       13.929        0.018      347.799       27.031      864.596
07/02/2013  01:43:00     -128.390      -42.153       -6.722       38.335       33.142       24.508     1469.544     1098.373      600.643        1.074        0.158      135.132       22.367        0.027      347.722       26.897      864.590
07/02/2013  01:44:00     -172.189       25.602      -10.130       54.471       44.741       24.890     2967.140     2001.738      619.525        1.800        0.279      174.082       25.448        0.021      347.706       26.869      864.594
07/02/2013  01:45:00     -188.747       50.300      -16.818       51.330       40.912       25.060     2634.805     1673.790      628.004        2.169        0.247      195.335       13.366        0.005      347.719       26.889      864.592
07/02/2013  01:46:00     -195.364       55.428      -21.693       68.987       49.171       31.975     4759.192     2417.779     1022.378        2.495        0.410      203.074       25.426        0.016      347.891       27.186      864.587
07/02/2013  01:47:00     -169.169       58.209      -13.659       64.235       53.193       31.116     4126.086     2829.523      968.231        2.006        0.396      178.903       29.324        0.027      347.811       27.050      864.583
07/02/2013  01:48:00     -151.358       51.196      -20.706       48.924       38.193       28.502     2393.574     1458.734      812.384        1.531        0.233      159.782       20.042        0.016      347.684       26.831      864.585
07/02/2013  01:49:00     -157.463       13.822      -16.002       60.824       65.585       36.242     3699.502     4301.445     1313.492        1.728        0.466      158.068       35.924        0.052      347.679       26.822      864.584
07/02/2013  01:50:00     -159.268       67.374      -22.964       62.994       52.971       33.146     3968.251     2805.910     1098.658        1.915        0.394      172.932       33.692        0.038      347.685       26.833      864.578
07/02/2013  01:51:00     -140.006       23.273      -26.708       39.953       68.644       31.261     1596.215     4712.032      977.227        1.407        0.364      141.927       23.798        0.028      347.572       26.638      864.553
07/02/2013  01:52:00     -177.623      -20.329      -30.988       38.562       45.212       27.637     1487.058     2044.146      763.806        1.861        0.215      178.782       12.820        0.005      347.578       26.648      864.536
07/02/2013  01:53:00     -175.624        0.375      -34.193       62.847       53.455       31.640     3949.688     2857.447     1001.100        1.991        0.390      175.624       12.653        0.005      347.578       26.647      864.523
07/02/2013  01:54:00     -190.766      -43.644      -22.161       44.564       38.530       30.093     1985.953     1484.554      905.613        2.158        0.219      195.695       23.192        0.014      347.520       26.547      864.497
07/02/2013  01:55:00     -202.444       -4.309      -20.324       50.234       39.129       26.606     2523.412     1531.095      707.859        2.309        0.238      202.490       15.114        0.006      347.567       26.627      864.465
07/02/2013  01:56:00     -184.915       -6.975      -18.839       46.784       43.858       30.458     2188.725     1923.529      927.691        1.982        0.252      185.046       22.614        0.015      347.599       26.685      864.443
07/02/2013  01:57:00     -219.761      -26.501      -21.307       67.620       39.761       37.376     4572.527     1580.949     1396.978        2.850        0.378      221.353       37.357        0.028      347.721       26.893      864.419
07/02/2013  01:58:00     -235.083        4.054      -33.516       53.337       29.229       17.666     2844.886      854.360      312.082        3.021        0.201      235.118       18.516        0.006      347.748       26.938      864.387
07/02/2013  01:59:00     -200.630       15.769      -12.994       43.779       44.324       27.097     1916.617     1964.623      734.246        2.264        0.231      201.248       26.218        0.017      347.730       26.908      864.376
07/02/2013  02:00:00     -211.320        2.022      -20.718       48.944       46.357       27.754     2395.525     2148.954      770.283        2.520        0.266      211.329       22.701        0.012      347.721       26.892      864.370
07/02/2013  02:01:00     -168.567      -11.933      -14.722       51.648       39.824       29.049     2667.485     1585.936      843.865        1.693        0.255      168.989       27.631        0.027      347.658       26.785      864.359
07/02/2013  02:02:00     -118.538       45.927       -7.351       40.747       42.232       31.051     1660.283     1783.573      964.159        1.031        0.220      127.124       21.561        0.029      347.607       26.699      864.356
07/02/2013  02:03:00     -143.589        5.006      -19.934       53.307       44.577       25.998     2841.662     1987.124      675.896        1.327        0.275      143.676       20.300        0.020      347.589       26.665      864.357
07/02/2013  02:04:00     -138.051      -20.610      -24.532       53.584       37.583       24.475     2871.260     1412.507      599.031        1.248        0.244      139.581       26.109        0.035      347.529       26.565      864.344
07/02/2013  02:05:00     -163.518      -49.757      -19.916       35.029       43.826       26.725     1227.044     1920.721      714.209        1.674        0.193      170.921       15.314        0.008      347.518       26.544      864.335
07/02/2013  02:06:00     -141.975       20.242       -9.215       44.648       35.522       25.602     1993.415     1261.825      655.461        1.228        0.196      143.411       23.520        0.027      347.513       26.535      864.332
07/02/2013  02:07:00     -179.552        9.641      -15.681       44.941       41.206       24.908     2019.729     1697.949      620.429        1.846        0.217      179.811       23.762        0.017      347.575       26.642      864.312
07/02/2013  02:08:00     -123.427       -6.522      -15.636       36.172       30.725       19.620     1308.441      944.056      384.940        0.908        0.132      123.600       20.148        0.027      347.518       26.546      864.316
07/02/2013  02:09:00     -105.021      -35.642       -3.140       34.253       34.275       25.664     1173.240     1174.778      658.660        0.766        0.150      110.905       17.076        0.024      347.544       26.590      864.310
07/02/2013  02:10:00      -65.523      -21.642       -0.875       38.367       33.710       21.322     1472.008     1136.378      454.616        0.391        0.153       69.005       18.095        0.069      347.569       26.635      864.300
07/02/2013  02:11:00      -41.644      -11.628        4.475       21.924       19.769       15.230      480.666      390.819      231.944        0.150        0.055       43.237        8.883        0.042      347.632       26.743      864.301
07/02/2013  02:12:00       -6.097       -0.813        0.722       17.653       14.130       12.699      311.620      199.660      161.259        0.036        0.034        6.151        9.906        2.594      347.660       26.791      864.318
07/02/2013  02:13:00       41.278      -88.247       -9.148       25.117       27.012       18.240      630.864      729.639      332.705        0.563        0.085       97.424       10.317        0.011      347.784       27.004      864.323
07/02/2013  02:14:00       28.005      -10.514       18.345       37.431       52.333       36.623     1401.075     2738.708     1341.248        0.336        0.274       29.914       40.371        1.821      347.635       26.749      864.338
07/02/2013  02:15:00      -16.477       73.384       97.942       24.036       35.607       25.402      577.747     1267.830      645.278        0.887        0.125       75.211       19.306        0.066      347.613       26.708      864.352
07/02/2013  02:16:00        4.057       67.521       79.730       28.232       40.737       24.350      797.024     1659.500      592.898        0.699        0.152       67.642       25.252        0.139      347.645       26.765      864.352
07/02/2013  02:17:00       -2.461       40.748       76.348       20.171       44.245       25.729      406.882     1957.614      661.990        0.526        0.151       40.822       26.804        0.431      347.769       26.979      864.352
07/02/2013  02:18:00       20.865      -20.492       23.414       26.179       32.547       28.397      685.349     1059.331      806.377        0.198        0.128       29.245       18.974        0.421      347.753       26.949      864.366
07/02/2013  02:19:00        0.002        0.400       31.409        9.889       23.649       11.746       97.784      559.286      137.958        0.089        0.040        0.400       13.014     1058.574      347.752       26.949      864.370
07/02/2013  02:20:00       -6.619      -19.672       21.244       12.763       21.191       10.122      162.886      449.063      102.460        0.080        0.036       20.756        9.748        0.221      347.737       26.924      864.371
07/02/2013  02:21:00      -13.060      -42.294        0.061       23.959       21.110       22.023      574.033      445.628      485.031        0.173        0.075       44.264        7.769        0.031      347.742       26.933      864.393
07/02/2013  02:22:00      -23.467      -37.133       -5.762       17.159       19.906       11.845      294.444      396.243      140.294        0.140        0.042       43.927       11.354        0.067      347.761       26.965      864.411
07/02/2013  02:23:00       16.423      -11.600       27.306       17.536       34.059       17.598      307.525     1160.021      309.689        0.146        0.089       20.107       19.450        0.936      347.724       26.901      864.421
07/02/2013  02:24:00       51.250       30.217       14.957       19.179       16.073       14.696      367.818      258.327      215.976        0.230        0.042       59.495       10.528        0.031      347.576       26.644      864.454
07/02/2013  02:25:00       69.643       37.262       13.211       27.961       22.241       21.134      781.822      494.681      446.646        0.407        0.086       78.985       17.634        0.050      347.440       26.409      864.467
07/02/2013  02:26:00       28.571       48.803       40.769       31.888       27.732       27.963     1016.837      769.061      781.942        0.371        0.128       56.551       25.706        0.207      347.383       26.313      864.478
07/02/2013  02:27:00       30.816       14.316       40.574       30.559       35.141       19.979      933.827     1234.868      399.163        0.268        0.128       33.979       25.506        0.563      347.588       26.665      864.491
07/02/2013  02:28:00       24.222       13.091       24.060       23.997       22.592       18.046      575.839      510.402      325.656        0.137        0.071       27.534       16.986        0.381      347.592       26.673      864.503
07/02/2013  02:29:00       18.975       24.756       34.984       22.443       21.606       14.206      503.710      466.824      201.803        0.168        0.059       31.191        9.691        0.097      347.541       26.585      864.509
07/02/2013  02:30:00       18.200       24.262       30.735       16.306       18.219        9.612      265.890      331.950       92.394        0.128        0.035       30.329        4.645        0.023      347.538       26.580      864.508
07/02/2013  02:31:00       40.319      -11.060       20.661       30.057       31.447       22.790      903.443      988.901      519.402        0.229        0.121       41.809       26.721        0.408      347.666       26.801      864.505
07/02/2013  02:32:00       38.376      -27.896       13.497       26.994       32.810       18.014      728.701     1076.468      324.515        0.228        0.106       47.443       17.552        0.137      347.714       26.883      864.507
07/02/2013  02:33:00        4.519        3.692       16.296       15.151       14.232       11.571      229.546      202.542      133.884        0.043        0.028        5.835        8.639        2.192      347.660       26.792      864.507
07/02/2013  02:34:00       20.292       21.345        3.847       12.246       16.082        9.756      149.966      258.621       95.187        0.069        0.025       29.451        9.052        0.094      347.607       26.699      864.497
07/02/2013  02:35:00       -0.031        1.047        6.689       10.045       14.364        8.419      100.892      206.315       70.874        0.021        0.019        1.047        7.794       55.380      347.517       26.543      864.478
07/02/2013  02:36:00      -13.803       -9.779       12.514        9.948       12.728        7.041       98.970      162.014       49.582        0.038        0.016       16.916        6.546        0.150      347.447       26.422      864.464
07/02/2013  02:37:00       -5.409       -0.172        6.242       13.025       15.981        8.605      169.641      255.392       74.047        0.028        0.025        5.412        6.620        1.496      347.531       26.567      864.465
07/02/2013  02:38:00        2.236       30.405        2.334       10.530       10.472        6.776      110.884      109.672       45.919        0.060        0.013       30.487        5.070        0.028      347.569       26.633      864.462
07/02/2013  02:39:00       -1.748       29.715        1.100        8.269       11.479        7.819       68.377      131.773       61.138        0.057        0.013       29.767        4.561        0.023      347.617       26.715      864.458
07/02/2013  02:40:00      -22.949       40.738      -10.615       12.649        9.984        5.044      159.986       99.685       25.445        0.129        0.014       46.757        3.335        0.005      347.493       26.504      864.457
07/02/2013  02:41:00      -36.414       31.240       -7.029       12.345       11.759       10.948      152.387      138.272      119.864        0.138        0.021       47.978        9.432        0.039      347.470       26.465      864.457
07/02/2013  02:42:00      -25.544       10.827       -4.936        5.619        7.396        5.195       31.573       54.706       26.991        0.045        0.006       27.744        4.075        0.022      347.571       26.637      864.454
07/02/2013  02:43:00      -21.125      -11.487       -5.125        5.724       11.878        3.818       32.770      141.082       14.579        0.040        0.009       24.046        2.930        0.015      347.567       26.628      864.473
07/02/2013  02:44:00      -20.580      -16.374       -2.372        8.946        8.233        5.375       80.038       67.778       28.889        0.044        0.009       26.299        2.866        0.012      347.514       26.540      864.477
07/02/2013  02:45:00      -34.083      -10.686       -2.407        5.058        5.634        5.768       25.582       31.737       33.270        0.069        0.005       35.719        3.970        0.012      347.510       26.530      864.475
07/02/2013  02:46:00      -51.995      -15.377       -7.696        7.925        5.209        3.370       62.799       27.138       11.360        0.155        0.005       54.221        4.144        0.006      347.455       26.434      864.464
07/02/2013  02:47:00      -44.729       -8.673      -10.216        7.706        9.610        4.181       59.381       92.343       17.478        0.117        0.008       45.562        4.578        0.010      347.432       26.397      864.453
07/02/2013  02:48:00      -36.797       -2.592       -8.260       10.404       12.552        6.491      108.254      157.547       42.129        0.087        0.015       36.888        4.193        0.013      347.648       26.768      864.437
07/02/2013  02:49:00      -36.665       11.372       -9.231       17.618       15.337        9.584      310.389      235.225       91.849        0.110        0.032       38.388        6.654        0.030      347.621       26.722      864.433
07/02/2013  02:50:00      -52.438      -14.272       -8.854        4.867        6.320        3.805       23.683       39.940       14.474        0.155        0.004       54.345        3.321        0.004      347.421       26.378      864.438
07/02/2013  02:51:00      -57.722      -17.985      -13.601       14.398        7.250        5.596      207.306       52.561       31.316        0.207        0.015       60.459        5.499        0.008      347.308       26.183      864.448
07/02/2013  02:52:00      -78.705      -16.892      -11.801       15.735       12.782        7.990      247.587      163.368       63.846        0.355        0.024       80.497        5.652        0.005      347.160       25.926      864.438
07/02/2013  02:53:00      -83.587       -6.304      -19.069       16.830        6.945        7.031      283.232       48.239       49.429        0.389        0.019       83.825        6.151        0.005      346.999       25.652      864.438
07/02/2013  02:54:00      -82.621       -0.786      -10.687       14.926       13.554        8.916      222.784      183.710       79.501        0.371        0.024       82.625        7.401        0.008      346.807       25.322      864.437
07/02/2013  02:55:00      -67.025       -1.927       -8.352       38.356       22.594       14.312     1471.192      510.506      204.826        0.338        0.109       67.053       16.736        0.062      346.738       25.202      864.433
07/02/2013  02:56:00      -77.190        2.950       -6.671       45.192       36.468       21.535     2042.335     1329.916      463.752        0.492        0.192       77.246       16.778        0.047      346.931       25.534      864.424
07/02/2013  02:57:00     -106.175       14.598      -18.978       44.721       39.109       24.013     2000.005     1529.534      576.608        0.798        0.205      107.173       24.253        0.051      346.885       25.454      864.431
07/02/2013  02:58:00     -119.124       -3.974       -9.225       53.279       43.813       22.778     2838.673     1919.581      518.837        0.978        0.264      119.191       21.199        0.032      346.826       25.353      864.433
07/02/2013  02:59:00     -180.149       27.636      -14.604       34.209       35.977       19.048     1170.269     1294.373      362.830        1.813        0.141      182.257       13.767        0.006      346.879       25.443      864.432
07/02/2013  03:00:00     -161.724       23.615       -6.689       33.559       27.684       23.700     1126.235      766.416      561.701        1.461        0.123      163.439       19.986        0.015      346.879       25.445      864.429
07/02/2013  03:01:00     -161.998       13.531      -10.470       33.218       34.431       21.279     1103.403     1185.516      452.817        1.464        0.137      162.562       20.394        0.016      346.866       25.421      864.425
07/02/2013  03:02:00     -153.809       20.868      -11.399       23.400       20.980       15.904      547.572      440.171      252.931        1.273        0.062      155.218       11.424        0.005      346.817       25.338      864.430
07/02/2013  03:03:00     -160.302        2.900      -13.462       14.771       23.136       12.782      218.193      535.279      163.373        1.340        0.046      160.328        4.438        0.001      346.851       25.395      864.435
07/02/2013  03:04:00     -127.805      -10.068      -10.264       51.622       25.942       23.881     2664.829      673.007      570.311        1.022        0.195      128.201       23.816        0.035      346.725       25.180      864.437
07/02/2013  03:05:00     -124.429      -19.592       -5.042       34.287       26.283       18.538     1175.571      690.780      343.663        0.905        0.111      125.962       18.542        0.022      346.684       25.108      864.439
07/02/2013  03:06:00     -117.860      -40.511      -11.429       22.718       19.350       14.628      516.116      374.410      213.971        0.838        0.055      124.628       12.472        0.010      346.757       25.233      864.451
07/02/2013  03:07:00     -123.087      -35.714       -5.564       36.133       31.243       17.671     1305.575      976.154      312.268        0.952        0.130      128.164       16.848        0.017      346.771       25.258      864.459
07/02/2013  03:08:00     -151.001      -45.937      -17.258       38.841       33.395       19.823     1508.649     1115.253      392.946        1.411        0.151      157.834       18.985        0.014      346.929       25.532      864.451
07/02/2013  03:09:00     -130.553      -40.354       -9.176       53.041       41.084       23.628     2813.310     1687.910      558.282        1.191        0.253      136.647       22.770        0.028      346.715       25.162      864.448
07/02/2013  03:10:00     -139.136      -46.182       -9.506       25.971       20.918       15.747      674.473      437.544      247.958        1.147        0.068      146.600       13.837        0.009      346.823       25.347      864.455
07/02/2013  03:11:00     -154.824      -49.880      -13.137       26.638       32.594       18.553      709.583     1062.373      344.201        1.437        0.106      162.660       17.760        0.012      346.717       25.165      864.447
07/02/2013  03:12:00     -165.328      -43.209      -21.261       24.132       22.279       16.099      582.341      496.361      259.179        1.549        0.067      170.882       11.467        0.005      346.660       25.068      864.432
07/02/2013  03:13:00     -141.581      -47.773       -3.331       30.640       32.944       18.114      938.791     1085.328      328.112        1.234        0.118      149.424       14.856        0.010      346.635       25.024      864.425
07/02/2013  03:14:00     -178.811      -36.110      -20.167       28.074       27.362       21.142      788.131      748.704      446.967        1.783        0.099      182.421       17.074        0.009      346.643       25.038      864.405
07/02/2013  03:15:00     -161.744       -3.552      -18.555       22.848       26.121       16.035      522.038      682.305      257.110        1.399        0.073      161.783       10.473        0.004      346.573       24.918      864.392
07/02/2013  03:16:00     -162.330      -17.138      -22.208       35.058       37.945       25.621     1229.084     1439.809      656.449        1.523        0.166      163.232       24.934        0.023      346.620       24.999      864.391
07/02/2013  03:17:00     -191.737      -10.427      -23.056       31.752       35.095       19.058     1008.179     1231.657      363.195        2.000        0.130      192.021       18.667        0.009      346.695       25.128      864.385
07/02/2013  03:18:00     -172.760      -25.237      -17.770       45.094       45.732       26.501     2033.494     2091.396      702.323        1.781        0.241      174.594       25.402        0.021      346.646       25.043      864.371
07/02/2013  03:19:00     -233.459       17.107      -28.151       57.868       43.273       26.232     3348.759     1872.543      688.113        3.075        0.295      234.085       29.957        0.016      346.647       25.040      864.364
07/02/2013  03:20:00     -215.006       11.643      -23.634       53.493       39.612       26.021     2861.463     1569.119      677.080        2.601        0.255      215.321       25.077        0.014      346.645       25.040      864.359
07/02/2013  03:21:00     -144.867      -17.418      -16.578       38.410       38.852       21.416     1475.298     1509.441      458.641        1.250        0.172      145.910       15.540        0.011      346.518       24.824      864.337
07/02/2013  03:22:00     -209.816       25.576      -18.101       39.672       40.784       20.443     1573.832     1663.303      417.927        2.433        0.183      211.369       21.508        0.010      346.579       24.924      864.332
07/02/2013  03:23:00     -185.673       35.380      -10.477       24.599       22.683       13.135      605.122      514.541      172.517        1.856        0.065      189.014       10.574        0.003      346.662       25.069      864.329
07/02/2013  03:24:00     -120.468       16.474       -7.843       42.252       34.017       18.683     1785.239     1157.182      349.044        0.907        0.165      121.590       13.680        0.013      346.571       24.915      864.324
07/02/2013  03:25:00      -36.918      -12.699       -0.636       21.627       22.069       11.310      467.711      487.047      127.911        0.130        0.054       39.041        8.759        0.050      346.582       24.933      864.331
07/02/2013  03:26:00      -45.771       -9.789       -7.036       18.532       16.586       10.539      343.421      275.081      111.066        0.148        0.036       46.806        8.735        0.035      346.625       25.007      864.339
07/02/2013  03:27:00      -54.564        8.877      -15.246       23.644       24.943       11.797      559.032      622.173      139.177        0.230        0.066       55.281        3.209        0.003      346.788       25.288      864.344
07/02/2013  03:28:00      -49.848      -13.719       -8.641       17.660       16.075       12.242      311.876      258.411      149.874        0.173        0.036       51.702        7.367        0.020      346.639       25.031      864.358
07/02/2013  03:29:00      -38.110      -20.401       -1.277       14.971       12.706       11.787      224.132      161.442      138.928        0.120        0.026       43.227        7.205        0.028      346.631       25.019      864.355
07/02/2013  03:30:00      -57.355      -15.271       -7.502       16.991       19.053       13.315      288.690      363.035      177.301        0.220        0.041       59.353       11.343        0.037      346.666       25.076      864.364
07/02/2013  03:31:00      -61.443      -40.492       -9.750       13.640       16.026       10.452      186.054      256.824      109.237        0.303        0.028       73.586        3.443        0.002      346.745       25.212      864.361
07/02/2013  03:32:00      -58.320      -37.058       -3.678       12.237       19.209        9.170      149.744      368.991       84.088        0.270        0.030       69.098        7.608        0.012      346.659       25.065      864.357
07/02/2013  03:33:00      -51.469      -15.881       -3.518       16.903       13.299        6.896      285.720      176.862       47.553        0.171        0.026       53.863        7.088        0.017      346.570       24.912      864.374
07/02/2013  03:34:00      -67.674      -34.949       -4.253       13.770       15.161        9.097      189.606      229.860       82.756        0.316        0.025       76.166        6.447        0.007      346.595       24.955      864.368
07/02/2013  03:35:00      -94.117      -40.486      -12.273       10.377       16.784        9.348      107.682      281.704       87.384        0.556        0.024      102.456        9.621        0.009      346.724       25.177      864.361
07/02/2013  03:36:00      -87.219      -36.542       -9.802       15.005       15.466        9.266      225.141      239.190       85.866        0.479        0.028       94.565        7.490        0.006      346.609       24.980      864.369
07/02/2013  03:37:00      -43.563      -56.243       -2.971       23.036       14.685       11.825      530.655      215.651      139.839        0.298        0.044       71.140        8.397        0.014      346.761       25.240      864.387
07/02/2013  03:38:00      -20.622      -82.389       -6.456       28.590       29.513       17.400      817.366      870.999      302.744        0.462        0.100       84.931       16.016        0.036      347.082       25.793      864.402
07/02/2013  03:39:00       23.813      -89.094       -1.641       26.272       24.398       15.537      690.201      595.286      241.400        0.502        0.076       92.222        5.897        0.004      347.209       26.012      864.418
07/02/2013  03:40:00      -21.233      -62.507       -1.082       23.075       22.725       12.568      532.463      516.437      157.949        0.278        0.060       66.015        7.330        0.012      347.193       25.985      864.440
07/02/2013  03:41:00      -48.317      -26.440       -6.535       20.109       12.959       11.968      404.378      167.930      143.234        0.190        0.036       55.078        8.824        0.026      346.807       25.319      864.449
07/02/2013  03:42:00      -59.686      -30.040        1.749       18.387       17.007       12.575      338.076      289.252      158.141        0.263        0.039       66.820        7.014        0.011      346.678       25.098      864.456
07/02/2013  03:43:00      -38.682      -63.750       -2.912       31.054       23.219       17.480      964.373      539.124      305.554        0.369        0.090       74.568       11.321        0.023      346.658       25.062      864.470
07/02/2013  03:44:00      -23.426      -16.209        8.159       38.080       26.579       19.833     1450.081      706.422      393.361        0.171        0.127       28.487       19.636        0.475      346.625       25.008      864.481
07/02/2013  03:45:00      -13.605      -44.353       -7.013       22.625       20.170       15.376      511.911      406.837      236.422        0.168        0.058       46.393       11.112        0.057      346.627       25.010      864.483
07/02/2013  03:46:00      -56.985      -39.113        0.735       44.142       19.768       17.538     1948.491      390.763      307.579        0.371        0.132       69.117       15.862        0.053      346.739       25.204      864.483
07/02/2013  03:47:00      -77.223      -47.207        0.715       33.165       24.148       23.592     1099.894      583.112      556.579        0.522        0.112       90.510       21.018        0.054      346.589       24.946      864.481
07/02/2013  03:48:00      -65.914      -41.865        9.419       29.387       20.249       16.841      863.574      410.016      283.632        0.387        0.078       78.085       14.277        0.033      346.538       24.857      864.482
07/02/2013  03:49:00      -91.651      -38.778       -7.262       19.056       14.806       13.208      363.118      219.204      174.442        0.536        0.038       99.517       10.832        0.012      346.474       24.747      864.492
07/02/2013  03:50:00     -116.771      -37.774       -6.098       12.791       15.823       11.082      163.607      250.373      122.808        0.782        0.027      122.729        4.032        0.001      346.515       24.819      864.487
07/02/2013  03:51:00      -98.664      -39.277       -8.295       17.493       18.614        9.843      306.007      346.497       96.875        0.605        0.037      106.195        8.259        0.006      346.484       24.764      864.486
07/02/2013  03:52:00      -94.140      -12.613      -11.123       17.604        9.460        9.383      309.896       89.488       88.044        0.482        0.024       94.981        6.120        0.004      346.502       24.795      864.477
07/02/2013  03:53:00      -89.922        3.772      -10.152        9.906        9.366        8.314       98.136       87.714       69.124        0.423        0.013       90.001        4.819        0.003      346.504       24.799      864.463
07/02/2013  03:54:00      -80.488      -15.330      -14.325        7.119       10.420        5.172       50.686      108.582       26.748        0.355        0.009       81.935        1.959        0.001      346.598       24.962      864.455
07/02/2013  03:55:00      -67.936      -14.316       -6.960       12.463       12.100        8.251      155.318      146.410       68.084        0.262        0.018       69.428        7.282        0.011      346.510       24.808      864.440
07/02/2013  03:56:00      -78.862      -16.994       -9.369        8.301       10.739        8.124       68.913      115.337       66.007        0.342        0.013       80.672        6.017        0.006      346.554       24.883      864.420
07/02/2013  03:57:00      -68.890      -23.382       -7.614       13.187       11.592        7.270      173.890      134.366       52.859        0.286        0.018       72.750        4.373        0.004      346.532       24.846      864.403
07/02/2013  03:58:00      -64.137      -23.397      -12.541        7.028        7.617        5.287       49.393       58.017       27.954        0.248        0.007       68.271        2.747        0.002      346.532       24.846      864.387
07/02/2013  03:59:00      -60.154      -28.980      -16.719       11.186       10.229        6.469      125.124      104.636       41.852        0.250        0.014       66.771        3.617        0.003      346.391       24.606      864.376
07/02/2013  04:00:00      -76.668      -42.231      -17.887       13.409       13.487        9.581      179.801      181.888       91.793        0.422        0.023       87.529        3.261        0.001      346.358       24.548      864.367
07/02/2013  04:01:00      -86.010      -49.736      -16.577       15.426       16.694       13.220      237.958      278.688      174.760        0.542        0.035       99.355        7.236        0.005      346.080       24.070      864.351
07/02/2013  04:02:00     -100.010      -53.776      -15.576       27.227       22.132       14.813      741.298      489.813      219.412        0.729        0.073      113.551        7.909        0.005      345.923       23.800      864.335
07/02/2013  04:03:00      -74.979      -46.921       -4.301       35.422       27.251       21.896     1254.732      742.638      479.439        0.516        0.124       88.450       21.417        0.059      345.980       23.899      864.331
07/02/2013  04:04:00     -103.548      -50.605      -15.295       23.780       24.161       19.440      565.498      583.769      377.918        0.752        0.076      115.252       11.640        0.010      345.950       23.848      864.329
07/02/2013  04:05:00      -62.496      -25.672       -3.780       41.871       30.637       23.633     1753.216      938.628      558.514        0.391        0.163       67.563       23.982        0.126      345.943       23.836      864.321
07/02/2013  04:06:00      -83.260      -43.760       -5.844       37.065       20.465       20.420     1373.789      418.828      416.968        0.555        0.110       94.059       14.548        0.024      345.937       23.825      864.314
07/02/2013  04:07:00     -128.446      -26.470       -4.147       42.594       34.081       24.281     1814.266     1161.519      589.566        1.039        0.178      131.145       23.516        0.032      345.862       23.696      864.301
07/02/2013  04:08:00     -123.950       -3.981       -3.814       60.896       33.044       23.259     3708.278     1091.891      541.004        1.037        0.267      124.014       26.003        0.044      345.885       23.734      864.287
07/02/2013  04:09:00     -119.408      -24.823       -0.860       50.096       33.945       26.237     2509.627     1152.259      688.367        0.961        0.218      121.961       29.637        0.059      345.901       23.763      864.281
07/02/2013  04:10:00     -121.054      -15.097       -4.011       36.300       26.559       17.886     1317.659      705.390      319.924        0.862        0.117      121.991       16.777        0.019      345.955       23.856      864.272
07/02/2013  04:11:00      -97.256       -1.165       -3.318       50.027       47.795       28.741     2502.698     2284.350      826.057        0.754        0.281       97.263       28.164        0.084      345.817       23.619      864.255
07/02/2013  04:12:00     -145.638       19.112      -12.529       47.762       37.395       23.258     2281.221     1398.378      540.918        1.298        0.211      146.887       19.040        0.017      345.888       23.740      864.243
07/02/2013  04:13:00     -122.427       19.024      -16.507       19.213       24.005       15.637      369.150      576.255      244.501        0.841        0.059      123.897        6.841        0.003      345.800       23.590      864.245
07/02/2013  04:14:00     -128.033      -39.575      -12.318       44.942       31.740       26.355     2019.785     1007.418      694.596        1.092        0.186      134.010       26.656        0.040      345.818       23.621      864.255
07/02/2013  04:15:00     -130.777      -46.703       -7.407       28.888       25.520       19.178      834.519      651.269      367.813        1.060        0.093      138.866       15.985        0.013      345.806       23.601      864.255
07/02/2013  04:16:00      -77.495      -41.673        0.490       33.214       24.384       16.725     1103.150      594.600      279.713        0.486        0.099       87.990       12.496        0.020      345.779       23.555      864.252
07/02/2013  04:17:00      -39.806      -41.876       -3.658       23.606       14.157       10.221      557.223      200.424      104.470        0.211        0.043       57.777        7.400        0.016      345.892       23.748      864.256
07/02/2013  04:18:00      -20.155      -35.237       -4.103       21.398       11.381       11.406      457.861      129.531      130.094        0.119        0.036       40.594       10.640        0.069      345.908       23.775      864.273
07/02/2013  04:19:00      -29.615      -40.667       -7.978       20.344       15.001       11.592      413.868      225.039      134.371        0.168        0.039       50.308        7.892        0.025      346.016       23.961      864.278
07/02/2013  04:20:00      -11.859      -46.001       -6.086       18.825       16.664       13.607      354.378      277.703      185.144        0.156        0.041       47.505        6.990        0.022      346.083       24.075      864.277
07/02/2013  04:21:00      -46.364      -18.000       -1.256       38.725       20.872       15.544     1499.618      435.642      241.612        0.233        0.109       49.735        7.677        0.024      346.029       23.983      864.294
07/02/2013  04:22:00      -44.438      -41.124       -2.781       26.454       24.403       11.783      699.813      595.511      138.834        0.255        0.072       60.547        7.808        0.017      346.046       24.012      864.298
07/02/2013  04:23:00      -78.511      -17.355       -0.428       28.121       21.967       13.995      790.802      482.550      195.863        0.397        0.073       80.406       11.989        0.022      345.966       23.875      864.301
07/02/2013  04:24:00      -97.900      -48.659        0.580       26.429       30.142       15.002      698.489      908.548      225.046        0.689        0.092      109.325       12.773        0.014      345.995       23.925      864.294
07/02/2013  04:25:00      -81.079      -39.376       -1.351       18.030       20.927       13.265      325.093      437.931      175.961        0.453        0.047       90.135        9.897        0.012      345.891       23.746      864.304
07/02/2013  04:26:00      -92.907      -45.362      -12.165       22.022       19.978       15.864      484.958      399.119      251.681        0.599        0.057      103.390       12.069        0.014      345.899       23.759      864.310
07/02/2013  04:27:00      -60.352      -20.549       -3.626       16.977       20.864       13.101      288.219      435.318      171.630        0.249        0.045       63.755       10.090        0.025      345.859       23.690      864.310
07/02/2013  04:28:00      -76.426      -13.625       -5.532       11.018        9.981        9.970      121.406       99.615       99.394        0.319        0.016       77.631        4.819        0.004      345.875       23.717      864.316
07/02/2013  04:29:00      -63.185       -0.312       -3.129       21.014       10.461        9.448      441.597      109.423       89.258        0.232        0.032       63.186        9.519        0.023      345.822       23.627      864.325
07/02/2013  04:30:00      -82.045       -0.803       -6.350       15.325       11.657        8.276      234.844      135.897       68.486        0.361        0.022       82.049        4.141        0.003      345.878       23.723      864.320
07/02/2013  04:31:00      -70.814       -4.668       -6.097       15.068       10.013        7.371      227.033      100.250       54.332        0.273        0.019       70.967        1.858        0.001      345.898       23.758      864.315
07/02/2013  04:32:00      -51.344       -1.270       -0.867       19.121       15.338        9.070      365.596      235.268       82.273        0.166        0.034       51.359        9.737        0.036      345.839       23.657      864.316
07/02/2013  04:33:00      -58.815        8.628       -2.570       19.173       16.356       10.832      367.617      267.513      117.331        0.215        0.038       59.444       10.003        0.028      345.790       23.572      864.310
07/02/2013  04:34:00      -81.887       10.505       -9.742       24.054       13.621       10.402      578.615      185.525      108.206        0.389        0.044       82.558        4.277        0.003      345.753       23.509      864.297
07/02/2013  04:35:00      -74.225      -13.928       -6.132       38.867       22.758       13.703     1510.619      517.919      187.761        0.398        0.111       75.520       15.232        0.041      345.670       23.368      864.286
07/02/2013  04:36:00      -66.828      -14.010       -3.682       30.314       21.629       15.434      918.910      467.825      238.215        0.315        0.081       68.281       12.792        0.035      345.610       23.264      864.287
07/02/2013  04:37:00     -107.720      -12.356       -6.968       34.092       22.215       17.145     1162.270      493.502      293.960        0.688        0.097      108.426       10.430        0.009      345.577       23.206      864.274
07/02/2013  04:38:00      -66.440       -3.619       -5.209       40.068       28.543       23.710     1605.470      814.705      562.158        0.372        0.149       66.538       21.275        0.102      345.559       23.174      864.258
07/02/2013  04:39:00      -91.126        4.714      -20.230       31.603       32.828       18.999      998.755     1077.706      360.965        0.559        0.122       91.248       16.356        0.032      345.641       23.317      864.247
07/02/2013  04:40:00     -107.954        5.307      -14.848       38.677       29.630       19.933     1495.898      877.915      397.305        0.734        0.139      108.084        6.144        0.003      345.621       23.281      864.235
07/02/2013  04:41:00      -93.365       16.718      -19.339       46.508       32.764       22.120     2163.008     1073.488      489.313        0.655        0.186       94.850       13.225        0.019      345.642       23.316      864.219
07/02/2013  04:42:00      -84.711       21.522      -14.198       43.784       34.160       23.751     1917.024     1166.910      564.132        0.574        0.182       87.402       21.384        0.060      345.551       23.161      864.196
07/02/2013  04:43:00      -78.341       16.417      -17.195       38.614       34.236       19.624     1491.024     1172.108      385.119        0.487        0.152       80.043       16.682        0.043      345.529       23.123      864.194
07/02/2013  04:44:00      -80.088        9.848      -14.564       33.794       30.629       17.879     1142.005      938.127      319.657        0.456        0.120       80.691       16.721        0.043      345.515       23.100      864.187
07/02/2013  04:45:00      -95.492      -10.441      -15.939       28.154       25.446       13.783      792.656      647.524      189.973        0.556        0.082       96.061       10.511        0.012      345.448       22.984      864.171
07/02/2013  04:46:00      -93.078       -2.797       -6.494       35.155       23.778       20.865     1235.895      565.416      435.342        0.547        0.112       93.120       18.368        0.039      345.404       22.909      864.157
07/02/2013  04:47:00      -72.470       -2.179       -3.904       30.264       34.079       20.529      915.881     1161.379      421.426        0.388        0.125       72.503       10.610        0.021      345.410       22.921      864.146
07/02/2013  04:48:00      -97.461       -2.415       -6.817       31.065       19.864       18.935      965.047      394.582      358.553        0.563        0.086       97.491       16.803        0.030      345.416       22.930      864.132
07/02/2013  04:49:00      -41.455      -26.512        2.659       14.100       14.183       11.060      198.809      201.164      122.322        0.148        0.026       49.208        8.119        0.027      345.442       22.975      864.129
07/02/2013  04:50:00      -31.428      -24.331       -0.127       14.257       22.770       12.483      203.262      518.460      155.830        0.123        0.044       39.746        5.658        0.020      345.502       23.078      864.148
07/02/2013  04:51:00      -47.517      -39.674       -1.137       25.334       18.496       15.183      641.835      342.104      230.509        0.252        0.061       61.902       13.689        0.049      345.695       23.410      864.144
07/02/2013  04:52:00      -57.207      -18.579      -11.350       10.816       10.288       10.843      116.980      105.849      117.581        0.204        0.017       60.148        8.263        0.019      345.709       23.434      864.147
07/02/2013  04:53:00      -38.411      -26.878      -12.952       26.204       10.786       10.904      686.672      116.335      118.896        0.164        0.046       46.881       13.240        0.080      345.691       23.405      864.156
07/02/2013  04:54:00        6.371      -39.689       -3.963       12.657       11.114        9.495      160.195      123.516       90.146        0.100        0.019       40.198        6.901        0.029      345.748       23.503      864.153
07/02/2013  04:55:00      -61.600      -26.619       -1.178       17.211       15.191        9.130      296.211      230.754       83.361        0.256        0.031       67.106       10.425        0.024      345.663       23.354      864.138
07/02/2013  04:56:00      -72.661      -30.540       -7.505       22.097       17.621       13.352      488.260      310.491      178.271        0.362        0.049       78.818       10.450        0.018      345.609       23.260      864.144
07/02/2013  04:57:00      -32.261      -24.256        1.206       15.611       14.660       12.163      243.702      214.922      147.938        0.112        0.030       40.362        6.404        0.025      345.575       23.203      864.156
07/02/2013  04:58:00       -9.721      -33.997        2.164       20.481       14.459       13.206      419.467      209.067      174.397        0.103        0.040       35.359        6.575        0.035      345.603       23.251      864.179
07/02/2013  04:59:00       -3.259      -19.199        5.713       25.162       20.061       12.527      633.123      402.450      156.927        0.080        0.060       19.473       12.566        0.416      345.644       23.321      864.201
07/02/2013  05:00:00       -1.828        2.700       14.516        5.639        9.024        6.362       31.794       81.436       40.477        0.019        0.008        3.261        5.932        3.310      345.588       23.226      864.228
07/02/2013  05:01:00       -5.915        9.219       19.698       10.417        9.665        7.741      108.522       93.407       59.915        0.038        0.013       10.954        4.475        0.167      345.567       23.187      864.246
07/02/2013  05:02:00       -8.021      -19.814       32.766       11.760       26.952       12.940      138.292      726.408      167.437        0.128        0.052       21.376        4.396        0.042      345.676       23.377      864.255
07/02/2013  05:03:00      -29.043      -40.227       -4.173       22.335       20.068       12.644      498.869      402.737      159.860        0.177        0.053       49.615        9.266        0.035      345.780       23.555      864.260
07/02/2013  05:04:00      -21.290      -25.716       11.125       24.231       15.708       16.516      587.124      246.743      272.766        0.117        0.055       33.385       12.870        0.149      345.667       23.361      864.274
07/02/2013  05:05:00      -63.468     -110.154        1.824       30.740       43.198       22.936      944.933     1866.075      526.051        0.975        0.167      127.131       19.882        0.024      345.743       23.491      864.287
07/02/2013  05:06:00      -66.884     -108.807       -2.117       52.797       63.516       24.525     2787.522     4034.270      601.474        1.187        0.371      127.720       27.651        0.047      345.792       23.576      864.296
07/02/2013  05:07:00      -19.569      -41.542       15.029       35.730       41.314       25.046     1276.611     1706.816      627.280        0.297        0.181       45.921       21.640        0.222      345.722       23.455      864.307
07/02/2013  05:08:00      -98.660      -92.736       -1.533       50.059       41.882       24.357     2505.934     1754.093      593.244        1.159        0.243      135.402       18.927        0.020      345.647       23.329      864.318
07/02/2013  05:09:00      -79.157      -74.181        4.746       47.345       32.759       27.682     2241.532     1073.142      766.275        0.794        0.204      108.484       23.097        0.045      345.583       23.217      864.324
07/02/2013  05:10:00      -85.568      -94.076        0.180       44.053       54.964       23.857     1940.639     3021.017      569.169        1.085        0.277      127.170       24.705        0.038      345.577       23.205      864.322
07/02/2013  05:11:00      -99.106      -82.804        4.175       66.101       43.255       29.098     4369.299     1870.955      846.688        1.189        0.354      129.145       27.830        0.046      345.505       23.080      864.318
07/02/2013  05:12:00     -116.285      -92.350        0.156       87.053       60.914       35.934     7578.191     3710.567     1291.286        1.731        0.629      148.495       32.133        0.047      345.584       23.217      864.307
07/02/2013  05:13:00      -76.693      -62.077       15.123       93.651       61.695       48.254     8770.520     3806.335     2328.486        1.243        0.745       98.668       50.328        0.260      345.577       23.206      864.299
07/02/2013  05:14:00     -114.303      -51.175        8.198       86.132       57.490       37.494     7418.691     3305.083     1405.795        1.394        0.606      125.236       37.055        0.088      345.590       23.227      864.305
07/02/2013  05:15:00     -136.493      -82.132       -8.195       87.414       61.039       49.363     7641.195     3725.748     2436.745        1.962        0.690      159.299       48.899        0.094      345.509       23.087      864.321
07/02/2013  05:16:00     -151.337     -109.843       -7.293       74.133       60.472       39.937     5495.643     3656.833     1594.935        2.288        0.537      186.998       32.089        0.029      345.436       22.963      864.325
07/02/2013  05:17:00     -140.886     -112.045       -1.907       69.059       59.129       39.545     4769.201     3496.237     1563.818        2.112        0.491      180.008       43.503        0.058      345.426       22.944      864.328
07/02/2013  05:18:00     -100.499      -50.609       -4.441       53.075       52.678       24.199     2816.932     2774.992      585.611        0.943        0.309      112.523       23.426        0.043      345.435       22.962      864.328
07/02/2013  05:19:00     -114.739       -8.986       -6.863       61.918       40.591       24.634     3833.892     1647.605      606.855        0.969        0.304      115.090       22.612        0.039      345.442       22.973      864.345
07/02/2013  05:20:00     -136.016       21.648       -7.781       35.051       35.949       21.242     1228.603     1292.335      451.207        1.100        0.149      137.728       15.799        0.013      345.303       22.736      864.350
07/02/2013  05:21:00     -122.134      -10.226       -5.746       41.372       36.937       22.254     1711.626     1364.379      495.233        0.931        0.179      122.562       13.321        0.012      345.232       22.614      864.344
07/02/2013  05:22:00     -165.554        2.555      -15.315       45.578       30.698       21.152     2077.382      942.389      447.422        1.556        0.173      165.573       24.524        0.022      345.163       22.499      864.348
07/02/2013  05:23:00     -149.139      -52.779       -2.385       38.291       43.873       22.771     1466.173     1924.800      518.506        1.447        0.195      158.203       19.540        0.015      345.129       22.440      864.345
07/02/2013  05:24:00      -91.030      -50.156       -2.758       43.771       40.582       23.013     1915.874     1646.927      529.619        0.745        0.205      103.933       25.463        0.060      345.271       22.681      864.348
07/02/2013  05:25:00      -83.362       24.540      -11.564       40.900       33.874       20.881     1672.819     1147.449      436.010        0.547        0.163       86.899       14.245        0.027      345.223       22.599      864.363
07/02/2013  05:26:00     -153.517       24.828      -14.957       31.613       33.458       20.320      999.367     1119.436      412.886        1.347        0.127      155.511       14.399        0.009      345.227       22.606      864.386
07/02/2013  05:27:00     -109.697       12.514       -8.640       47.346       34.857       22.936     2241.657     1215.038      526.066        0.812        0.199      110.408       19.340        0.031      345.264       22.669      864.395
07/02/2013  05:28:00     -130.086       13.654      -14.041       41.550       34.581       23.568     1726.380     1195.825      555.438        1.039        0.174      130.801       20.246        0.024      345.323       22.772      864.397
07/02/2013  05:29:00     -120.824      -19.875       -9.842       24.229       27.198       14.996      587.046      739.743      224.872        0.832        0.078      122.447        8.922        0.005      345.309       22.747      864.398
07/02/2013  05:30:00     -130.232      -36.266      -12.751       39.574       28.230       16.973     1566.101      796.945      288.069        1.054        0.133      135.188       16.198        0.014      345.330       22.783      864.397
07/02/2013  05:31:00     -114.246      -59.867      -10.784       51.543       46.979       25.576     2656.640     2206.999      654.143        1.113        0.276      128.981       29.975        0.054      345.289       22.713      864.400
07/02/2013  05:32:00      -96.102      -16.987       -1.954       40.100       30.373       19.771     1608.004      922.545      390.889        0.622        0.146       97.592       17.601        0.033      345.289       22.713      864.396
07/02/2013  05:33:00     -102.183        3.626       -7.769       26.046       15.165       13.316      678.371      229.984      177.316        0.580        0.054      102.248       12.386        0.015      345.245       22.638      864.389
07/02/2013  05:34:00     -119.543       -6.801       -5.174       35.268       19.705       21.788     1243.823      388.301      474.723        0.823        0.105      119.736       21.228        0.031      345.192       22.548      864.403
07/02/2013  05:35:00      -85.608      -36.522       -0.342       25.936       21.952       13.158      672.677      481.903      173.132        0.499        0.066       93.073       12.029        0.017      345.191       22.545      864.411
07/02/2013  05:36:00      -97.581      -57.813       -3.306       17.670       19.991       13.247      312.240      399.657      175.488        0.688        0.044      113.421       10.502        0.009      345.237       22.624      864.410
07/02/2013  05:37:00      -74.596      -47.359        1.678       24.472       14.706       19.751      598.882      216.270      390.117        0.451        0.060       88.360       11.830        0.018      345.252       22.649      864.410
07/02/2013  05:38:00      -86.316      -38.005       -6.306       42.818       27.369       17.002     1833.344      749.070      289.064        0.590        0.144       94.312       16.538        0.031      345.317       22.761      864.422
07/02/2013  05:39:00     -103.215      -15.409      -10.089       36.240       19.751       14.101     1313.353      390.120      198.826        0.645        0.095      104.359       17.627        0.029      345.259       22.661      864.435
07/02/2013  05:40:00     -112.499      -12.889       -9.997       20.780       16.205       13.817      431.815      262.609      190.916        0.690        0.044      113.235       12.526        0.012      345.230       22.610      864.435
07/02/2013  05:41:00      -97.044      -19.357       -0.336       25.444       18.682       14.433      647.414      349.017      208.322        0.550        0.060       98.955       13.294        0.018      345.237       22.624      864.434
07/02/2013  05:42:00      -76.237      -15.367        5.298       40.248       25.385       18.933     1619.936      644.381      358.454        0.435        0.131       77.771       20.462        0.069      345.250       22.644      864.446
07/02/2013  05:43:00      -87.928      -24.058       -1.579       22.672       21.850       15.674      514.020      477.418      245.673        0.477        0.062       91.160        7.454        0.007      345.257       22.659      864.454
07/02/2013  05:44:00      -94.044      -26.263       -8.695       24.215       22.154       15.033      586.355      490.820      225.993        0.546        0.065       97.642       13.816        0.020      345.198       22.556      864.469
07/02/2013  05:45:00      -86.490      -13.004       -0.765       32.432       26.182       18.650     1051.840      685.474      347.829        0.487        0.104       87.462       16.064        0.034      345.129       22.438      864.487
07/02/2013  05:46:00      -97.399      -18.477       -6.863       27.160       33.273       18.868      737.687     1107.090      356.002        0.604        0.110       99.136       16.581        0.028      345.101       22.392      864.509
07/02/2013  05:47:00     -123.811      -48.011      -12.575       23.231       23.068       16.860      539.702      532.137      284.276        0.957        0.068      132.794       12.897        0.009      345.190       22.543      864.520
07/02/2013  05:48:00     -112.489      -52.567       -1.814       28.010       35.432       21.105      784.544     1255.456      445.425        0.895        0.124      124.165       12.642        0.010      345.231       22.614      864.528
07/02/2013  05:49:00      -98.835      -42.055        0.273       23.187       33.113       18.757      537.620     1096.499      351.811        0.676        0.099      107.410       14.064        0.017      345.203       22.565      864.550
07/02/2013  05:50:00      -81.051      -42.253       -5.308       28.094       27.908       24.005      789.249      778.849      576.250        0.526        0.107       91.403       14.453        0.025      345.272       22.683      864.565
07/02/2013  05:51:00      -16.394      -25.856        3.584       35.113       18.486       18.909     1232.900      341.721      357.542        0.144        0.097       30.616       16.599        0.294      345.262       22.663      864.584
07/02/2013  05:52:00      -41.155      -35.968       -0.980       44.209       17.739       17.782     1954.451      314.665      316.208        0.279        0.129       54.657       18.288        0.112      345.296       22.726      864.597
07/02/2013  05:53:00      -64.423      -50.627        1.540       28.018       21.701       14.344      785.029      470.915      205.737        0.409        0.073       81.935       14.567        0.032      345.326       22.776      864.604
07/02/2013  05:54:00      -51.056      -47.000        9.030       47.589       36.287       29.210     2264.686     1316.738      853.222        0.467        0.222       69.396       32.840        0.224      345.422       22.939      864.611
07/02/2013  05:55:00      -83.910      -57.153       -1.133       33.494       37.928       17.641     1121.826     1438.503      311.204        0.659        0.144      101.525       16.605        0.027      345.403       22.907      864.603
07/02/2013  05:56:00     -118.796      -61.176       -5.670       32.302       30.095       18.424     1043.443      905.729      339.447        1.009        0.114      133.623       15.563        0.014      345.353       22.823      864.585
07/02/2013  05:57:00     -130.236      -64.727       -5.158       36.815       27.160       24.347     1355.369      737.682      592.754        1.193        0.134      145.434       23.132        0.025      345.274       22.686      864.574
07/02/2013  05:58:00      -62.884      -55.932       -4.942       46.349       22.688       18.634     2148.194      514.745      347.244        0.506        0.151       84.160       14.490        0.030      345.258       22.659      864.568
07/02/2013  05:59:00      -71.790      -48.782       -1.079       31.148       30.144       17.015      970.227      908.656      289.494        0.485        0.108       86.796       13.731        0.025      345.268       22.677      864.557
07/02/2013  06:00:00      -61.284      -41.157        1.272       32.772       22.344       19.949     1074.024      499.234      397.958        0.371        0.099       73.822       16.137        0.048      345.313       22.755      864.552
07/02/2013  06:01:00      -77.112      -62.939       -2.286       29.335       35.245       20.628      860.529     1242.239      425.500        0.622        0.126       99.537       18.029        0.033      345.383       22.873      864.545
07/02/2013  06:02:00     -101.434      -64.368       -6.783       36.856       25.372       18.798     1358.377      643.758      353.382        0.842        0.118      120.133       14.146        0.014      345.444       22.979      864.543
07/02/2013  06:03:00      -95.289      -51.180       -3.160       39.335       31.856       18.218     1547.255     1014.775      331.881        0.730        0.145      108.164       12.711        0.014      345.426       22.948      864.545
07/02/2013  06:04:00     -125.735      -21.817       -7.181       26.377       22.776       14.077      695.722      518.743      198.173        0.887        0.071      127.614       10.732        0.007      345.298       22.729      864.539
07/02/2013  06:05:00     -140.062      -24.425       -2.204       47.273       30.175       23.245     2234.726      910.506      540.341        1.195        0.184      142.175       26.491        0.035      345.215       22.586      864.535
07/02/2013  06:06:00     -156.095      -21.883       -9.712       37.689       30.201       19.026     1420.483      912.090      361.972        1.382        0.135      157.621       17.873        0.013      345.054       22.310      864.527
07/02/2013  06:07:00     -154.206      -20.881       -4.283       47.514       35.644       24.990     2257.601     1270.468      624.477        1.419        0.208      155.614       26.813        0.030      345.018       22.248      864.525
07/02/2013  06:08:00     -147.494      -54.781       -8.185       47.963       34.753       25.725     2300.492     1207.746      661.758        1.450        0.208      157.339       25.023        0.025      345.140       22.458      864.518
07/02/2013  06:09:00     -135.609      -53.215        3.058       47.838       27.880       19.556     2288.502      777.297      382.440        1.234        0.172      145.676       17.988        0.015      345.171       22.510      864.510
07/02/2013  06:10:00     -136.600      -62.596        3.493       49.144       39.319       27.319     2415.116     1545.972      746.342        1.365        0.235      150.259       25.127        0.028      345.202       22.564      864.508
07/02/2013  06:11:00     -147.281      -62.367       -2.283       47.641       42.933       24.672     2269.623     1843.219      608.717        1.515        0.236      159.942       24.957        0.024      345.266       22.671      864.513
07/02/2013  06:12:00     -136.593      -19.227       -6.660       61.621       40.664       26.461     3797.098     1653.566      700.166        1.261        0.308      137.939       31.197        0.051      345.169       22.507      864.521
07/02/2013  06:13:00     -145.445      -30.835      -10.161       50.355       33.299       25.172     2535.649     1108.853      633.622        1.324        0.214      148.677       23.970        0.026      345.067       22.333      864.529
07/02/2013  06:14:00     -105.468      -29.767        5.204       45.513       37.678       20.897     2071.460     1419.605      436.691        0.798        0.196      109.588       19.301        0.031      345.113       22.411      864.539
07/02/2013  06:15:00     -142.190      -37.815        2.716       51.516       39.787       24.310     2653.913     1583.030      590.979        1.324        0.241      147.133       25.959        0.031      345.407       22.914      864.535
07/02/2013  06:16:00     -108.681      -53.014        4.349       41.079       45.160       20.161     1687.496     2039.405      406.450        0.939        0.207      120.921       22.745        0.035      345.512       23.095      864.525
07/02/2013  06:17:00     -121.866      -63.982       -6.997       31.253       28.239       16.379      976.721      797.420      268.285        1.052        0.102      137.641       13.813        0.010      345.531       23.127      864.515
07/02/2013  06:18:00      -84.892      -16.743        4.368       29.152       21.923       16.354      849.851      480.627      267.439        0.455        0.080       86.527       17.623        0.041      345.427       22.949      864.510
07/02/2013  06:19:00      -73.548       -7.738       -1.962       37.099       26.648       18.919     1376.373      710.122      357.924        0.396        0.122       73.954       22.021        0.089      345.399       22.901      864.505
07/02/2013  06:20:00      -68.727      -23.212        1.220       34.590       24.818       17.193     1196.459      615.933      295.596        0.369        0.105       72.541       15.986        0.049      345.414       22.928      864.502
07/02/2013  06:21:00      -63.450      -14.433        1.934       27.273       21.996       15.050      743.821      483.829      226.490        0.285        0.073       65.071       14.914        0.053      345.336       22.793      864.499
07/02/2013  06:22:00      -51.061      -27.791        0.959       19.765       29.245       14.798      390.657      855.299      218.971        0.242        0.073       58.134       12.962        0.050      345.320       22.766      864.498
07/02/2013  06:23:00      -76.589      -29.974       -7.521       16.313       16.988       10.764      266.122      288.605      115.860        0.375        0.034       82.246        6.944        0.007      345.325       22.774      864.508
07/02/2013  06:24:00      -61.572      -10.456       -2.285       18.341       20.842       11.928      336.393      434.386      142.278        0.241        0.046       62.453       10.374        0.028      345.313       22.753      864.508
07/02/2013  06:25:00      -66.376       -9.998       -0.079       15.335       11.239       10.285      235.149      126.308      105.772        0.249        0.023       67.125        7.729        0.013      345.339       22.799      864.513
07/02/2013  06:26:00      -48.859      -16.966       -6.322       15.133        8.223        6.965      228.997       67.622       48.508        0.153        0.017       51.721        4.559        0.008      345.416       22.929      864.512
07/02/2013  06:27:00      -13.324       -4.199        7.672       18.548        5.730       10.286      344.015       32.838      105.806        0.037        0.024       13.970       10.410        0.555      345.562       23.180      864.524
07/02/2013  06:28:00       13.898       -0.906       12.612        9.263        5.940       14.398       85.807       35.281      207.298        0.034        0.016       13.928        5.111        0.135      345.584       23.219      864.534
07/02/2013  06:29:00        0.339      -13.258        6.722        7.474       14.602        9.433       55.860      213.221       88.974        0.029        0.018       13.263       10.239        0.596      345.678       23.380      864.546
07/02/2013  06:30:00        4.593      -20.235        6.691        9.973       17.117       13.878       99.465      292.996      192.591        0.053        0.029       20.750        5.727        0.076      345.643       23.320      864.549
07/02/2013  06:31:00      -11.595      -17.429        6.345       27.138       16.278       14.800      736.469      264.981      219.027        0.085        0.061       20.934       14.504        0.480      345.543       23.149      864.542
07/02/2013  06:32:00      -18.416      -13.804       10.121       24.125       19.949       12.367      582.025      397.945      152.953        0.088        0.057       23.015       14.129        0.377      345.628       23.293      864.551
07/02/2013  06:33:00        4.330        5.374        8.622       11.460        9.619       10.062      131.332       92.521      101.234        0.022        0.016        6.902        6.048        0.768      345.720       23.451      864.560
07/02/2013  06:34:00      -22.584      -11.868        4.324       18.841       12.009       12.815      354.996      144.220      164.231        0.067        0.033       25.513        7.338        0.083      345.507       23.085      864.559
07/02/2013  06:35:00      -18.716       -9.062        0.956       15.914       11.021       11.063      253.243      121.468      122.391        0.047        0.025       20.794        9.359        0.203      345.628       23.294      864.570
07/02/2013  06:36:00      -40.871      -20.590       -6.575       13.349       14.237       12.890      178.186      202.703      166.160        0.134        0.027       45.765        9.402        0.042      345.482       23.045      864.592
07/02/2013  06:37:00      -51.258      -41.455       -1.952       25.761       28.632       17.486      663.622      819.785      305.773        0.307        0.089       65.924        8.746        0.018      345.407       22.913      864.597
07/02/2013  06:38:00      -62.461      -84.694      -11.087       29.048       23.143       17.714      843.788      535.615      313.777        0.644        0.085      105.235       18.242        0.030      345.451       22.990      864.618
07/02/2013  06:39:00      -68.867      -70.808        0.739       21.246       16.748       16.032      451.402      280.507      257.029        0.537        0.049       98.775       12.771        0.017      345.474       23.030      864.629
07/02/2013  06:40:00      -58.408      -65.471       -4.297       28.369       23.635       21.793      804.793      558.623      474.930        0.478        0.092       87.737       15.004        0.029      345.461       23.006      864.632
07/02/2013  06:41:00      -60.072      -92.097       -2.199       28.298       26.268       20.114      800.805      689.988      404.560        0.699        0.095      109.956       19.555        0.032      345.465       23.013      864.652
07/02/2013  06:42:00      -35.010      -47.091        6.385       25.883       38.973       21.210      669.944     1518.876      449.843        0.306        0.132       58.679       14.745        0.063      345.445       22.979      864.655
07/02/2013  06:43:00        4.796      -23.832        4.821       31.831       33.017       24.740     1013.193     1090.122      612.052        0.166        0.136       24.310       14.639        0.363      345.615       23.271      864.684
07/02/2013  06:44:00      -10.649      -58.364        8.187       30.792       35.523       30.741      948.135     1261.917      944.986        0.337        0.158       59.327       20.061        0.114      345.611       23.266      864.714
07/02/2013  06:45:00      -33.297      -56.107       10.578       49.483       35.009       25.012     2448.570     1225.653      625.614        0.433        0.215       65.244       27.606        0.179      345.601       23.249      864.744
07/02/2013  06:46:00      -41.999      -14.988       13.004       43.535       40.967       22.657     1895.276     1678.269      513.332        0.312        0.204       44.593       24.668        0.306      345.598       23.242      864.762
07/02/2013  06:47:00      -18.408      -57.845       -1.157       29.397       33.592       22.790      864.174     1128.450      519.402        0.310        0.126       60.703       19.864        0.107      345.661       23.349      864.778
07/02/2013  06:48:00       -9.929      -24.985        8.849       14.139       36.107       16.675      199.906     1303.720      278.048        0.129        0.089       26.885       15.468        0.331      345.790       23.571      864.809
07/02/2013  06:49:00      -10.986        5.914       12.407       16.914       18.777       21.184      286.090      352.561      448.776        0.070        0.054       12.477       10.171        0.665      345.900       23.760      864.820
07/02/2013  06:50:00      -15.067        3.717        0.566       15.733       13.453       14.538      247.512      180.983      211.363        0.044        0.032       15.519        7.909        0.260      345.808       23.604      864.838
07/02/2013  06:51:00       15.596       -0.108        4.162       13.315       12.435       14.788      177.289      154.624      218.672        0.041        0.028       15.596        4.541        0.085      345.725       23.461      864.846
07/02/2013  06:52:00       -1.229      -10.059        7.083       10.380       12.180       13.032      107.754      148.359      169.838        0.029        0.021       10.134        9.794        0.934      345.908       23.775      864.851
07/02/2013  06:53:00       -0.422      -17.342        4.572       13.405       11.599       12.948      179.684      134.536      167.647        0.040        0.024       17.347       10.554        0.370      345.714       23.442      864.846
07/02/2013  06:54:00        3.345       -9.509        6.940        6.979        8.309       12.338       48.709       69.047      152.232        0.021        0.013       10.080        7.337        0.530      345.964       23.872      864.844
07/02/2013  06:55:00      -25.954      -18.530       -3.084       15.503        9.185       10.959      240.346       84.355      120.106        0.074        0.022       31.890        6.504        0.042      345.773       23.543      864.845
07/02/2013  06:56:00      -10.218       -5.254       17.335        9.612        7.526        8.566       92.385       56.634       73.368        0.033        0.011       11.490        6.465        0.317      346.385       24.594      864.837
07/02/2013  06:57:00       11.751       15.643       12.509       12.273       13.972       11.554      150.631      195.230      133.485        0.051        0.024       19.565        8.891        0.207      345.941       23.833      864.837
07/02/2013  06:58:00        4.760       18.461       11.726       11.394       15.228       12.886      129.817      231.897      166.039        0.051        0.026       19.065       12.390        0.422      346.001       23.936      864.832
07/02/2013  06:59:00        0.450      -23.049        7.708       12.565       15.984       12.472      157.871      255.482      155.542        0.058        0.028       23.053        8.333        0.131      345.935       23.822      864.840
07/02/2013  07:00:00       -8.809      -21.427        4.529       15.345       21.501       16.661      235.469      462.282      277.581        0.077        0.049       23.167        8.494        0.134      345.860       23.692      864.842
07/02/2013  07:01:00      -17.166       11.381        9.695       15.175       11.263       12.285      230.265      126.847      150.922        0.051        0.025       20.596        7.130        0.120      346.100       24.104      864.838
07/02/2013  07:02:00       18.618       30.179       11.511       23.829       25.749       17.376      567.808      663.023      301.920        0.146        0.077       35.460       17.388        0.240      346.040       24.001      864.840
07/02/2013  07:03:00       48.613       26.535        6.514       22.600       23.620       15.596      510.773      557.906      243.234        0.221        0.066       55.384       10.239        0.034      345.794       23.579      864.830
07/02/2013  07:04:00       11.590       16.848        8.762       24.690       11.993       13.639      609.576      143.829      186.020        0.072        0.047       20.450       11.902        0.339      345.899       23.759      864.840
07/02/2013  07:05:00      -28.820       25.239       -7.232        8.804        7.290        5.870       77.502       53.142       34.461        0.084        0.008       38.309        2.243        0.003      345.801       23.592      864.844
07/02/2013  07:06:00       -4.010        6.425       16.045       13.510        9.429       11.480      182.511       88.910      131.783        0.036        0.020        7.574        6.254        0.682      346.355       24.542      864.844
07/02/2013  07:07:00       -4.086       28.979        5.225       12.829       14.868       14.746      164.575      221.064      217.455        0.074        0.030       29.266       10.677        0.133      346.051       24.021      864.834
07/02/2013  07:08:00       -6.997       22.653        6.230       10.449       17.347       13.920      109.186      300.913      193.773        0.060        0.030       23.709        8.819        0.138      346.187       24.256      864.833
07/02/2013  07:09:00       -2.437       20.057        3.118       10.610       17.093       10.844      112.564      292.170      117.593        0.047        0.026       20.205        7.934        0.154      346.188       24.257      864.827
07/02/2013  07:10:00      -10.297       45.762       -3.176       13.779       24.594       12.105      189.858      604.841      146.543        0.158        0.047       46.906        5.833        0.015      346.031       23.986      864.829
07/02/2013  07:11:00       -4.853       50.177        0.989       13.424       14.904       14.313      180.211      222.127      204.867        0.157        0.030       50.411        9.033        0.032      346.120       24.140      864.822
07/02/2013  07:12:00       -1.654       14.577       15.340        7.738       13.470       12.021       59.870      181.434      144.516        0.042        0.019       14.671        6.377        0.189      346.736       25.199      864.815
07/02/2013  07:13:00      -20.029       18.422        0.906       10.894       11.653       14.043      118.671      135.790      197.201        0.060        0.023       27.213        6.469        0.057      346.211       24.296      864.806
07/02/2013  07:14:00      -34.575        3.260       -3.445        6.869        7.717        5.033       47.178       59.547       25.327        0.067        0.007       34.728        3.490        0.010      345.917       23.791      864.798
07/02/2013  07:15:00      -42.866       -5.129       -2.457        4.316        8.613        3.571       18.624       74.188       12.752        0.099        0.005       43.172        4.048        0.009      345.985       23.907      864.780
07/02/2013  07:16:00      -45.607       -6.545       -7.601        7.318        5.918        4.756       53.556       35.021       22.618        0.115        0.006       46.074        2.250        0.002      346.006       23.946      864.771
07/02/2013  07:17:00      -23.640       -0.502        4.199        9.142       10.748        5.056       83.573      115.517       25.560        0.040        0.011       23.645        4.006        0.029      346.060       24.035      864.758
07/02/2013  07:18:00      -29.004       -0.780       -3.915        5.408        6.752        3.828       29.245       45.585       14.653        0.047        0.004       29.014        3.687        0.016      346.012       23.952      864.749
07/02/2013  07:19:00      -25.383      -11.112       -6.205        9.203        7.880        6.835       84.694       62.093       46.721        0.050        0.010       27.708        3.854        0.019      346.094       24.094      864.742
07/02/2013  07:20:00      -13.953        0.476        3.669        7.984        7.286       10.055       63.744       53.079      101.111        0.021        0.011       13.961        3.225        0.053      346.342       24.523      864.742
07/02/2013  07:21:00       -9.682       -2.170        3.177        9.348        6.745        6.579       87.382       45.489       43.280        0.014        0.009        9.922        4.504        0.206      346.469       24.740      864.756
07/02/2013  07:22:00       -0.595      -15.171        5.905        8.354       14.986       10.662       69.782      224.574      113.676        0.034        0.020       15.183        8.723        0.330      346.634       25.024      864.770
07/02/2013  07:23:00       -0.801      -28.152       -0.129       11.978       28.938       16.012      143.475      837.380      256.374        0.101        0.062       28.163       13.508        0.230      346.466       24.734      864.804
07/02/2013  07:24:00       23.954      -16.234       20.639       28.261       37.243       25.092      798.659     1387.059      629.624        0.204        0.141       28.937       20.169        0.486      346.483       24.763      864.829
07/02/2013  07:25:00       21.757        9.368       32.304       36.826       36.336       27.629     1356.174     1320.279      763.375        0.252        0.172       23.689       28.217        1.419      346.409       24.635      864.858
07/02/2013  07:26:00      -15.121       29.605       43.311       14.361       24.553       19.733      206.230      602.848      389.396        0.209        0.060       33.243       10.428        0.098      346.603       24.969      864.881
07/02/2013  07:27:00       12.825      -18.780       30.244       27.886       33.154       21.859      777.651     1099.185      477.821        0.189        0.118       22.742       16.358        0.517      346.722       25.174      864.908
07/02/2013  07:28:00       -1.335       -5.991       31.784       18.799       29.944       20.107      353.397      896.649      404.277        0.135        0.083        6.138       17.806        8.416      346.743       25.209      864.920
07/02/2013  07:29:00      -21.434        7.190       34.287       16.811       24.338       20.669      282.610      592.333      427.221        0.149        0.065       22.607       18.583        0.676      346.695       25.126      864.930
07/02/2013  07:30:00      -20.186        7.893       12.237       12.356       12.600       17.947      152.672      158.768      322.087        0.063        0.032       21.675       10.033        0.214      346.565       24.904      864.933
07/02/2013  07:31:00      -22.209       -7.106       -2.051       10.704       10.186        9.317      114.577      103.752       86.798        0.043        0.015       23.318        3.923        0.028      346.374       24.576      864.937
07/02/2013  07:32:00      -13.120       15.417        1.837       18.052       14.074       18.345      325.859      198.086      336.542        0.064        0.043       20.244        6.369        0.099      346.579       24.930      864.934
07/02/2013  07:33:00      -35.703       -1.574       -2.517       24.557       18.415       14.201      603.034      339.101      201.657        0.121        0.057       35.738       14.975        0.176      346.469       24.741      864.930
07/02/2013  07:34:00      -48.348      -28.853       11.853       35.678       34.095       19.477     1272.888     1162.479      379.365        0.306        0.141       56.303       24.013        0.182      346.598       24.962      864.916
07/02/2013  07:35:00      -40.050      -54.614        0.877       32.628       20.283       16.923     1064.556      411.396      286.390        0.317        0.088       67.725        8.975        0.018      346.369       24.568      864.905
07/02/2013  07:36:00      -40.567      -55.349       -1.769       18.763       15.601       13.077      352.047      243.387      171.012        0.274        0.038       68.624        9.627        0.020      346.354       24.541      864.890
07/02/2013  07:37:00      -60.656      -60.740      -10.532       16.491       15.622        8.662      271.948      244.049       75.035        0.404        0.030       85.840        5.494        0.004      346.341       24.520      864.880
07/02/2013  07:38:00      -30.673      -22.399        4.608       27.764       19.930       15.101      770.865      397.214      228.044        0.143        0.070       37.981       17.040        0.201      346.621       25.000      864.868
07/02/2013  07:39:00       -7.645       -6.638       14.554       16.231       13.659       15.043      263.452      186.562      226.293        0.050        0.034       10.125       11.667        1.328      347.029       25.703      864.857
07/02/2013  07:40:00       13.323      -12.643        5.380       20.289       16.392       19.267      411.650      268.692      371.208        0.071        0.053       18.367       15.931        0.752      346.839       25.376      864.851
07/02/2013  07:41:00      -13.877        7.225       17.545       11.049       10.667        7.535      122.075      113.777       56.779        0.042        0.015       15.645        5.024        0.103      346.990       25.634      864.845
07/02/2013  07:42:00        1.461       -1.594       12.447       11.628        6.168       11.973      135.205       38.043      143.341        0.024        0.016        2.162        5.821        7.246      347.130       25.877      864.835
07/02/2013  07:43:00      -12.586       -2.057        4.079       11.260       11.539       10.876      126.780      133.141      118.282        0.028        0.019       12.753        8.038        0.397      346.805       25.316      864.827
07/02/2013  07:44:00       -2.691       -4.490       -4.051       11.962       14.129       13.339      143.080      199.641      177.928        0.028        0.026        5.235        8.326        2.530      346.764       25.247      864.824
07/02/2013  07:45:00        2.890        8.256       10.035       20.048       16.780       17.435      401.905      281.583      303.983        0.058        0.049        8.747       12.808        2.144      346.980       25.618      864.821
07/02/2013  07:46:00       -1.194       10.331       23.688       12.427       12.263       14.293      154.425      150.388      204.292        0.059        0.025       10.400        8.801        0.716      347.424       26.384      864.830
07/02/2013  07:47:00        5.215       16.201       17.540       13.838       18.728       16.955      191.488      350.734      287.462        0.071        0.041       17.019       14.270        0.703      347.442       26.415      864.825
07/02/2013  07:48:00       22.661       12.254       19.881       25.874       21.744       20.164      669.464      472.821      406.577        0.130        0.077       25.762       12.315        0.228      347.063       25.761      864.834
07/02/2013  07:49:00       21.040       30.296        6.530       15.119       22.798       14.379      228.583      519.753      206.755        0.118        0.048       36.885       10.593        0.082      346.958       25.581      864.838
07/02/2013  07:50:00       19.766       13.106        7.399       14.455       15.330       16.210      208.936      235.021      262.780        0.066        0.035       23.716        7.272        0.094      346.978       25.615      864.849
07/02/2013  07:51:00       24.107       40.760       17.321       17.465       30.981       18.100      305.010      959.808      327.599        0.207        0.080       47.355       11.519        0.059      346.876       25.439      864.845
07/02/2013  07:52:00       19.747       18.991       24.564       29.544       19.877       19.600      872.868      395.104      384.150        0.150        0.083       27.397       13.546        0.244      347.057       25.752      864.867
07/02/2013  07:53:00      -11.434       20.211        3.195       16.249       23.410       14.951      264.031      548.041      223.539        0.079        0.052       23.221       11.611        0.250      346.910       25.498      864.876
07/02/2013  07:54:00      -20.454        3.384        7.947        8.166        4.589        8.236       66.676       21.061       67.836        0.032        0.008       20.732        5.345        0.066      346.924       25.522      864.891
07/02/2013  07:55:00      -18.112      -17.311        1.990       22.807       19.760       15.028      520.174      390.446      225.854        0.088        0.057       25.055        7.115        0.081      346.862       25.415      864.897
07/02/2013  07:56:00      -22.421      -22.179       -1.932        8.865       14.890       11.211       78.586      221.711      125.687        0.071        0.021       31.537        1.831        0.003      346.795       25.299      864.906
07/02/2013  07:57:00      -22.864       -4.980       -0.981        9.407        5.585        6.178       88.492       31.192       38.166        0.035        0.008       23.400        3.032        0.017      346.835       25.369      864.905
07/02/2013  07:58:00      -15.050       -1.425        3.382        4.893        6.428        5.986       23.940       41.317       35.836        0.017        0.005       15.117        4.364        0.083      346.959       25.581      864.909
07/02/2013  07:59:00      -24.360       -0.180        1.604        8.345        5.239       10.127       69.641       27.444      102.554        0.040        0.010       24.361        6.457        0.070      346.976       25.611      864.909
07/02/2013  08:00:00      -17.639        2.048        5.875       12.278        7.456       13.562      150.744       55.599      183.931        0.037        0.020       17.757        9.498        0.286      347.237       26.063      864.909
07/02/2013  08:01:00        8.293      -15.590       10.489       16.369       21.517       21.772      267.935      462.962      474.012        0.081        0.060       17.658       16.038        0.825      347.335       26.230      864.906
07/02/2013  08:02:00       -0.465      -22.917       14.663       24.538       22.495       22.444      602.135      506.026      503.754        0.118        0.081       22.922       13.874        0.366      347.111       25.844      864.895
07/02/2013  08:03:00       33.829      -32.681       14.105       30.680       32.072       33.288      941.255     1028.585     1108.064        0.274        0.154       47.037       26.539        0.318      347.114       25.849      864.897
07/02/2013  08:04:00       -6.047       -3.574       23.081       22.947       20.395       15.773      526.578      415.949      248.784        0.089        0.060        7.024        7.405        1.111      347.384       26.315      864.892
07/02/2013  08:05:00        7.098      -38.085        2.824       18.601       31.212       29.046      345.998      974.195      843.675        0.184        0.108       38.741       17.442        0.203      347.369       26.290      864.881
07/02/2013  08:06:00       -1.730      -44.722       10.604       17.126       31.134       18.402      293.292      969.314      338.636        0.186        0.080       44.755       12.070        0.073      347.230       26.049      864.887
07/02/2013  08:07:00       -0.416      -21.615        7.848       11.230       15.262       15.984      126.107      232.939      255.495        0.057        0.031       21.619        6.197        0.082      347.368       26.287      864.883
07/02/2013  08:08:00      -10.546       -7.858       11.463       12.995       13.420       14.754      168.880      180.101      217.669        0.044        0.028       13.151       11.004        0.700      347.717       26.889      864.885
07/02/2013  08:09:00      -27.777       13.766        2.317       16.670       11.560       17.599      277.873      133.628      309.719        0.084        0.036       31.001       12.700        0.168      347.456       26.439      864.879
07/02/2013  08:10:00      -22.119       -4.623        7.685       14.459       13.119       10.855      209.054      172.099      117.839        0.053        0.025       22.597        7.978        0.125      347.418       26.374      864.880
07/02/2013  08:11:00       -5.579       -9.445       -0.288       24.265       12.693       17.341      588.784      161.108      300.715        0.059        0.053       10.970       15.865        2.091      347.468       26.459      864.877
07/02/2013  08:12:00       -2.556        4.342       29.980       15.969       20.952       14.634      255.021      438.985      214.161        0.092        0.045        5.039        9.945        3.896      348.505       28.251      864.876
07/02/2013  08:13:00       -5.174        4.346       28.519       23.466       14.124       15.391      550.632      199.500      236.887        0.092        0.049        6.757        8.729        1.669      348.012       27.398      864.877
07/02/2013  08:14:00      -15.207        0.179       15.597       10.641       15.257       15.159      113.222      232.791      229.786        0.053        0.029       15.209        9.852        0.420      347.977       27.338      864.870
07/02/2013  08:15:00      -11.287       16.596       19.162       13.760       16.198       26.601      189.324      262.387      707.603        0.096        0.058       20.071       13.998        0.486      348.105       27.559      864.869
07/02/2013  08:16:00        3.280        7.131       23.950       16.399       12.681       13.311      268.920      160.807      177.189        0.062        0.030        7.849        6.007        0.586      348.285       27.870      864.863
07/02/2013  08:17:00        4.728        4.212       25.585       18.091        9.232       14.663      327.277       85.222      214.992        0.066        0.031        6.332        6.624        1.094      348.478       28.205      864.864
07/02/2013  08:18:00        3.395        1.776       26.545       14.521       11.977       10.244      210.857      143.460      104.933        0.059        0.023        3.831        7.903        4.255      348.461       28.174      864.852
07/02/2013  08:19:00       -2.863       20.664       14.345       22.594       14.774       20.684      510.481      218.272      427.828        0.090        0.058       20.861       14.153        0.460      347.920       27.239      864.851
07/02/2013  08:20:00       -3.770       48.521        4.854       17.496       38.775       21.404      306.117     1503.536      458.116        0.233        0.113       48.667       22.249        0.209      347.974       27.334      864.843
07/02/2013  08:21:00       38.970       51.436       -6.545       33.237       28.117       20.758     1104.667      790.566      430.907        0.327        0.116       64.531       14.046        0.047      347.744       26.935      864.832
07/02/2013  08:22:00       57.547       35.994        7.149       33.924       25.699       23.791     1150.812      660.418      565.993        0.352        0.119       67.876       17.906        0.070      347.996       27.370      864.824
07/02/2013  08:23:00       50.931       48.973       23.494       27.919       14.258       18.741      779.494      203.300      351.233        0.344        0.067       70.656       12.818        0.033      347.675       26.816      864.824
07/02/2013  08:24:00       49.074       51.251       10.788       14.622       17.862       25.520      213.798      319.065      651.273        0.317        0.059       70.957       17.775        0.063      347.558       26.614      864.819
07/02/2013  08:25:00       51.900       44.089       -3.121       15.725       15.281       20.794      247.262      233.518      432.387        0.278        0.046       68.099       10.023        0.022      347.493       26.504      864.818
07/02/2013  08:26:00       13.717       29.572        2.142       18.467       18.197       15.978      341.020      331.146      255.291        0.100        0.046       32.598        8.619        0.070      347.857       27.132      864.815
07/02/2013  08:27:00        0.025        8.795       10.510       29.563       14.923       20.312      873.969      222.682      412.583        0.085        0.075        8.795       16.942        3.711      348.227       27.769      864.813
07/02/2013  08:28:00       -3.104        3.306       19.750       14.989       18.497       16.333      224.682      342.147      266.769        0.062        0.042        4.535       11.026        5.912      348.518       28.272      864.824
07/02/2013  08:29:00        0.245       -7.156       26.371        8.468       11.527        7.272       71.702      132.879       52.886        0.050        0.013        7.161        5.352        0.559      348.742       28.660      864.825
07/02/2013  08:30:00        0.141        8.035       14.050       15.879       21.083       17.515      252.157      444.512      306.783        0.063        0.050        8.036       11.335        1.990      348.490       28.225      864.833
07/02/2013  08:31:00       -8.715       35.685       12.597       15.520       28.387       22.310      240.884      805.838      497.715        0.153        0.077       36.734       19.529        0.283      348.437       28.131      864.835
07/02/2013  08:32:00        1.576        4.741       27.533       16.068        9.854       11.283      258.188       97.093      127.309        0.063        0.024        4.996        8.267        2.738      348.767       28.704      864.828
07/02/2013  08:33:00       11.362       15.653       24.144       24.873       35.841       18.804      618.645     1284.580      353.578        0.161        0.113       19.342       12.461        0.415      348.511       28.261      864.820
07/02/2013  08:34:00       -6.376       29.162       10.817       18.314       26.706       20.344      335.386      713.236      413.865        0.123        0.073       29.851       16.834        0.318      348.561       28.348      864.809
07/02/2013  08:35:00       -9.345       10.379       27.570       10.708       15.442       12.246      114.651      238.450      149.957        0.073        0.025       13.966        6.431        0.212      348.949       29.019      864.804
07/02/2013  08:36:00       -1.562       10.103       27.890       16.499       13.872       16.665      272.204      192.444      277.707        0.081        0.037       10.223        9.575        0.877      348.882       28.904      864.805
07/02/2013  08:37:00       -8.584       14.269       30.907       13.886       15.753       14.013      192.813      248.165      196.377        0.093        0.032       16.652       11.213        0.453      348.861       28.866      864.797
07/02/2013  08:38:00      -30.672       23.138        8.085       20.221       17.746       22.546      408.907      314.938      508.321        0.139        0.062       38.420       20.223        0.277      348.229       27.775      864.792
07/02/2013  08:39:00      -34.353        4.534       16.384       13.853       13.051       16.292      191.918      170.340      265.442        0.105        0.031       34.651        7.343        0.045      348.057       27.474      864.781
07/02/2013  08:40:00      -19.670      -53.988      -20.995       18.660       23.121       21.969      348.185      534.581      482.655        0.255        0.068       57.460       20.156        0.123      347.764       26.970      864.768
07/02/2013  08:41:00      -12.103      -62.098       -2.925       16.158       19.847       24.581      261.073      393.911      604.212        0.263        0.063       63.266        6.147        0.009      347.882       27.173      864.775
07/02/2013  08:42:00      -13.387      -57.669       -5.595       24.416       15.202       17.927      596.118      231.111      321.380        0.234        0.057       59.203       14.683        0.062      347.809       27.046      864.770
07/02/2013  08:43:00      -15.380      -53.271       -8.900       19.399       11.876       14.151      376.313      141.040      200.238        0.194        0.036       55.447       13.006        0.055      347.868       27.150      864.768
07/02/2013  08:44:00      -25.723      -50.909       -7.933       17.109       17.102       15.260      292.727      292.484      232.860        0.207        0.041       57.039        9.125        0.026      347.868       27.149      864.772
07/02/2013  08:45:00      -28.331      -26.391        5.889       24.775       19.191       14.877      613.825      368.305      221.315        0.137        0.060       38.719       15.279        0.156      348.106       27.560      864.758
07/02/2013  08:46:00      -23.950      -74.628        6.576       16.258       26.395       11.807      264.317      696.706      139.400        0.364        0.055       78.377        4.481        0.003      347.985       27.352      864.760
07/02/2013  08:47:00      -17.207      -20.631       12.629       17.510       25.060       13.593      306.587      628.007      184.763        0.100        0.056       26.865       10.170        0.143      348.283       27.866      864.746
07/02/2013  08:48:00      -81.206        9.605       -1.925       48.370       20.668       15.310     2339.658      427.176      234.389        0.485        0.150       81.772       17.863        0.048      348.062       27.484      864.737
07/02/2013  08:49:00      -67.000        9.387       15.227       43.985       36.435       26.917     1934.695     1327.523      724.512        0.440        0.199       67.654       25.100        0.138      348.285       27.869      864.727
07/02/2013  08:50:00      -11.491        7.270       28.396       24.570       30.353       22.032      603.689      921.297      485.429        0.150        0.101       13.597        9.989        0.540      348.896       28.927      864.719
07/02/2013  08:51:00     -116.164       33.512        1.543       28.187       25.128       15.533      794.502      631.433      241.275        0.814        0.083      120.901        8.109        0.004      348.076       27.509      864.708
07/02/2013  08:52:00      -99.594       -8.090       -0.313       47.687       37.970       26.742     2274.088     1441.728      715.111        0.721        0.222       99.922       27.869        0.078      348.178       27.685      864.695
07/02/2013  08:53:00      -81.743      -15.707        1.710       32.915       34.355       17.980     1083.375     1180.273      323.267        0.476        0.129       83.238       14.925        0.032      348.222       27.760      864.694
07/02/2013  08:54:00      -14.152      -14.068        6.750       44.178       31.936       22.862     1951.673     1019.935      522.655        0.197        0.175       19.954       22.954        1.323      348.546       28.323      864.683
07/02/2013  08:55:00      -28.890       -1.100        4.284       45.544       28.422       23.566     2074.274      807.827      555.375        0.215        0.172       28.911       15.130        0.274      348.470       28.191      864.681
07/02/2013  08:56:00      -13.533        1.636        0.738       20.266       33.580       20.769      410.715     1127.595      431.352        0.108        0.098       13.631       18.950        1.933      348.449       28.154      864.664
07/02/2013  08:57:00      -51.370       26.938      -15.224       31.979       26.717       15.876     1022.682      713.811      252.034        0.279        0.099       58.005       10.981        0.036      348.313       27.919      864.657
07/02/2013  08:58:00        8.666       28.545       21.107       30.516       27.932       22.067      931.203      780.217      486.959        0.177        0.110       29.831       16.868        0.320      348.932       28.989      864.651
07/02/2013  08:59:00      -28.868       -8.286        6.819       18.929       14.895       17.954      358.302      221.866      322.354        0.093        0.045       30.034       10.474        0.122      348.626       28.459      864.635
07/02/2013  09:00:00      -22.058      -35.252        1.576       13.890       44.884       10.494      192.927     2014.589      110.133        0.202        0.116       41.585       13.010        0.098      348.441       28.140      864.639
07/02/2013  09:01:00        4.757      -49.099       -7.663       17.448       29.648       18.562      304.442      879.020      344.547        0.201        0.076       49.329       14.621        0.088      348.390       28.052      864.627
07/02/2013  09:02:00      -30.788        3.902       -2.448       20.794       17.604       15.320      432.377      309.888      234.695        0.097        0.049       31.035       14.620        0.222      348.667       28.531      864.611
07/02/2013  09:03:00      -10.611        0.317       23.763       41.215       28.991       24.313     1698.660      840.453      591.113        0.190        0.157       10.615       19.335        3.318      348.953       29.027      864.609
07/02/2013  09:04:00        0.166       27.178       32.802       25.361       21.636       32.078      643.185      468.133     1028.976        0.198        0.107       27.179        8.484        0.097      349.032       29.161      864.598
07/02/2013  09:05:00       -0.437       -8.832       29.961       29.507       31.874       31.711      870.660     1015.940     1005.572        0.193        0.145        8.843       24.084        7.418      348.976       29.067      864.593
07/02/2013  09:06:00       -9.701       -8.453       20.118       28.199       33.811       23.201      795.163     1143.156      538.264        0.152        0.124       12.867       20.312        2.492      349.088       29.260      864.580
07/02/2013  09:07:00      -12.667        6.268       29.442       20.243       22.817       21.146      409.779      520.622      447.149        0.122        0.069       14.133       11.639        0.678      349.477       29.934      864.579
07/02/2013  09:08:00       14.398      -10.106       20.762       25.328       19.749       23.056      641.520      390.011      531.563        0.115        0.078       17.590       17.924        1.038      349.004       29.116      864.567
07/02/2013  09:09:00       16.268      -31.090        8.493       20.319       23.372       23.980      412.864      546.253      575.018        0.142        0.077       35.089       12.173        0.120      348.612       28.436      864.559
07/02/2013  09:10:00        9.742      -22.584      -11.478       22.094       27.076       16.452      488.144      733.122      270.669        0.111        0.075       24.596        7.692        0.098      348.618       28.446      864.559
07/02/2013  09:11:00       16.337      -11.792       18.218       15.974       28.024       19.396      255.183      785.333      376.190        0.108        0.071       20.148       18.797        0.870      348.944       29.011      864.553
07/02/2013  09:12:00       -7.193      -36.002        4.529       13.922       21.833       14.835      193.822      476.699      220.083        0.113        0.045       36.714        8.967        0.060      348.582       28.383      864.552
07/02/2013  09:13:00      -17.061       -1.119       11.525       11.777        8.037       11.755      138.692       64.589      138.178        0.038        0.017       17.098        9.835        0.331      349.370       29.749      864.543
07/02/2013  09:14:00       11.542        4.395       24.674       21.767       19.158        9.365      473.818      367.028       87.695        0.084        0.046       12.351        4.910        0.158      349.734       30.380      864.538
07/02/2013  09:15:00       34.090       21.427       26.618       21.333       18.213       17.601      455.117      331.708      309.789        0.171        0.055       40.265       10.129        0.063      349.374       29.756      864.542
07/02/2013  09:16:00       32.919       24.406       30.475       25.252       34.322       19.191      637.645     1178.012      368.314        0.240        0.109       40.979       11.859        0.084      349.248       29.536      864.538
07/02/2013  09:17:00      -13.507      -19.075       38.777       30.587       31.789       18.525      935.577     1010.555      343.168        0.217        0.114       23.373       14.061        0.362      349.202       29.457      864.534
07/02/2013  09:18:00       -2.862      -32.739       17.732       33.989       31.355       29.757     1155.275      983.153      885.460        0.221        0.151       32.864       22.678        0.476      349.036       29.168      864.518
07/02/2013  09:19:00       17.574      -47.005        8.864       26.288       41.213       33.842      691.054     1698.508     1145.254        0.307        0.177       50.183       21.954        0.191      349.239       29.523      864.522
07/02/2013  09:20:00       24.432      -50.679        0.672       26.938       30.812       21.614      725.660      949.363      467.184        0.265        0.107       56.261        9.491        0.028      348.614       28.440      864.510
07/02/2013  09:21:00       33.857      -12.615       31.146       27.433       32.122       26.769      752.559     1031.835      716.596        0.239        0.125       36.130       19.822        0.301      349.249       29.539      864.510
07/02/2013  09:22:00       56.775      -16.053        7.625       34.302       25.110       22.616     1176.612      630.537      511.465        0.293        0.116       59.001        8.794        0.022      348.870       28.883      864.497
07/02/2013  09:23:00       31.078      -37.739       19.669       34.565       40.815       31.938     1194.756     1665.839     1020.051        0.333        0.194       48.889       16.293        0.111      349.136       29.344      864.500
07/02/2013  09:24:00       17.716       -4.360        7.625       25.244       16.748       20.006      637.239      280.501      400.230        0.085        0.066       18.245       13.405        0.540      349.393       29.789      864.488
07/02/2013  09:25:00       30.095      -13.401       14.133       20.556       13.812       22.300      422.563      190.769      497.278        0.120        0.056       32.944        9.392        0.081      349.110       29.299      864.486
07/02/2013  09:26:00        6.270      -21.731       -1.756       21.808       20.192       17.913      475.597      407.728      320.882        0.086        0.060       22.618       10.053        0.198      349.151       29.368      864.475
07/02/2013  09:27:00      -10.747       -3.192       10.211       14.738       14.931       24.923      217.212      222.949      621.163        0.065        0.053       11.211       14.817        1.747      349.753       30.413      864.475
07/02/2013  09:28:00       21.177       12.733       37.295       41.026       28.421       29.576     1683.174      807.728      874.720        0.268        0.168       24.710       25.612        1.074      349.437       29.866      864.474
07/02/2013  09:29:00        0.002        7.150       21.959       25.027       25.964       29.513      626.331      674.109      870.999        0.135        0.109        7.150       14.271        3.984      349.789       30.475      864.480
07/02/2013  09:30:00       16.013        9.996       41.979       28.032       21.684       13.712      785.780      470.188      188.012        0.178        0.072       18.877       10.593        0.315      349.880       30.633      864.479
07/02/2013  09:31:00       42.580       -1.875       28.847       41.760       28.387       28.604     1743.881      805.795      818.199        0.301        0.168       42.621       25.405        0.355      349.309       29.644      864.486
07/02/2013  09:32:00        1.225       11.257       38.219       25.734       33.979       17.883      662.232     1154.599      319.817        0.186        0.107       11.323       11.610        1.051      349.895       30.659      864.482
07/02/2013  09:33:00       -9.100        6.288       59.152       16.299       39.349       16.454      265.654     1548.308      270.739        0.285        0.104       11.061       17.231        2.427      350.307       31.376      864.489
07/02/2013  09:34:00       -1.852       30.397       49.836       26.704       28.093       20.330      713.083      789.219      413.297        0.266        0.096       30.453       15.891        0.272      349.968       30.785      864.481
07/02/2013  09:35:00        2.650       23.550       46.353       30.451       45.906       29.586      927.234     2107.402      875.333        0.331        0.195       23.698       33.762        2.030      349.898       30.665      864.476
07/02/2013  09:36:00       18.951       32.432       28.897       34.553       26.195       34.462     1193.885      686.182     1187.642        0.266        0.153       37.563       12.520        0.111      349.745       30.400      864.466
07/02/2013  09:37:00       -3.301       46.100      -16.653       19.176       33.874       22.213      367.716     1147.417      493.400        0.221        0.100       46.218       14.209        0.095      349.398       29.797      864.466
07/02/2013  09:38:00      -30.186        0.578       17.771       13.705       11.125       13.401      187.839      123.775      179.598        0.086        0.025       30.192        6.876        0.052      349.742       30.394      864.446
07/02/2013  09:39:00      -19.745        3.644       14.874       15.037       12.075       14.183      226.118      145.811      201.152        0.060        0.029       20.078       11.780        0.344      349.839       30.562      864.442
07/02/2013  09:40:00       -4.767      -11.776        6.065       16.547       13.877       19.154      273.801      192.581      366.882        0.052        0.042       12.704       10.262        0.652      349.885       30.643      864.430
07/02/2013  09:41:00       18.255        9.178       16.842       24.708       24.507       19.476      610.509      600.571      379.327        0.115        0.080       20.433       12.490        0.374      350.312       31.386      864.422
07/02/2013  09:42:00       77.300       40.065       28.361       41.982       27.124       24.494     1762.471      735.703      599.945        0.574        0.155       87.066       18.061        0.043      349.772       30.445      864.407
07/02/2013  09:43:00       19.221       17.982       19.620       26.388       21.140       20.061      696.335      446.906      402.438        0.131        0.077       26.321       17.567        0.445      350.429       31.589      864.400
07/02/2013  09:44:00       32.295       41.601      -14.046       31.326       36.480       27.474      981.308     1330.800      754.805        0.302        0.153       52.665       15.852        0.091      349.800       30.494      864.379
07/02/2013  09:45:00        9.559       -2.100       15.153       29.732       30.185       20.871      883.967      911.157      435.598        0.128        0.112        9.787       20.558        4.412      350.029       30.891      864.371
07/02/2013  09:46:00        2.495       -2.616       22.904       20.986       15.712       13.771      440.409      246.882      189.651        0.071        0.044        3.615        8.377        5.369      350.633       31.942      864.350
07/02/2013  09:47:00       -2.462       40.422       10.813       17.834       46.079       29.099      318.048     2123.282      846.772        0.252        0.164       40.497       30.610        0.571      350.782       32.203      864.344
07/02/2013  09:48:00       -6.751      128.119       -8.816       30.892       51.314       35.253      954.313     2633.143     1242.805        1.068        0.242      128.296       29.375        0.052      350.027       30.888      864.325
07/02/2013  09:49:00       -0.156       64.761        8.031       34.430       47.506       39.200     1185.426     2256.778     1536.610        0.462        0.249       64.761       28.691        0.196      350.382       31.507      864.319
07/02/2013  09:50:00       39.816       19.363       23.709       32.389       23.834       25.036     1049.045      568.053      626.783        0.238        0.112       44.274        9.815        0.049      350.139       31.082      864.304
07/02/2013  09:51:00      126.794       75.039       11.815       29.248       23.926       29.019      855.472      572.466      842.111        1.206        0.114      147.334       17.001        0.013      349.579       30.111      864.297
07/02/2013  09:52:00       85.110       80.492        2.926       36.253       33.041       31.443     1314.255     1091.720      988.688        0.856        0.170      117.144       15.088        0.017      349.770       30.441      864.277
07/02/2013  09:53:00       38.437       35.422        9.530       24.965       30.035       24.540      623.233      902.098      602.203        0.247        0.106       52.270       12.206        0.055      349.977       30.802      864.276
07/02/2013  09:54:00        1.078      -23.780        9.079       29.318       38.122       23.496      859.519     1453.278      552.056        0.176        0.143       23.804        8.766        0.136      350.181       31.156      864.259
07/02/2013  09:55:00       91.737       72.382       48.030       49.473       37.925       42.914     2447.560     1438.335     1841.597        1.084        0.286      116.854       29.180        0.062      349.985       30.816      864.251
07/02/2013  09:56:00       47.651       46.212       -8.221       35.473       32.317       31.875     1258.330     1044.411     1016.017        0.390        0.166       66.378       21.658        0.106      349.523       30.013      864.232
07/02/2013  09:57:00        7.783      -35.985        8.922       26.561       32.733       27.533      705.464     1071.461      758.088        0.198        0.127       36.817        8.018        0.047      349.786       30.469      864.233
07/02/2013  09:58:00       45.638      -16.706       14.677       35.665       31.184       31.417     1271.960      972.429      987.014        0.290        0.162       48.599       18.448        0.144      349.713       30.346      864.230
07/02/2013  09:59:00       12.527       -8.711       16.088       27.249       15.593       22.357      742.518      243.135      499.826        0.099        0.074       15.258       16.093        1.112      350.220       31.226      864.238
07/02/2013  10:00:00       20.604        9.970        4.330       25.330       17.399       21.926      641.607      302.731      480.737        0.098        0.071       22.889       12.458        0.296      350.088       30.994      864.233
07/02/2013  10:01:00       85.688       72.990        9.129       34.465       24.856       22.427     1187.835      617.829      502.953        0.753        0.115      112.561       14.865        0.017      350.002       30.845      864.235
07/02/2013  10:02:00       62.008       58.308       23.105       33.443       29.460       30.534     1118.422      867.874      932.303        0.535        0.146       85.116       15.276        0.032      350.214       31.213      864.229
07/02/2013  10:03:00      116.444       72.380       -3.447       48.196       41.140       35.334     2322.901     1692.531     1248.491        1.204        0.263      137.106       27.150        0.039      349.888       30.648      864.234
07/02/2013  10:04:00       23.990       28.516       50.723       38.865       54.133       32.878     1510.502     2930.432     1080.963        0.474        0.276       37.265       10.449        0.079      350.283       31.334      864.233
07/02/2013  10:05:00       38.090       48.334       17.230       36.792       43.150       37.414     1353.631     1861.914     1399.830        0.435        0.231       61.538       25.112        0.167      350.506       31.721      864.227
07/02/2013  10:06:00       27.066       31.607       30.129       33.605       37.593       36.406     1129.302     1413.208     1325.387        0.325        0.193       41.612       28.384        0.465      350.841       32.305      864.220
07/02/2013  10:07:00       25.383       20.909       24.433       22.347       27.586       23.471      499.392      760.996      550.889        0.174        0.091       32.886        9.223        0.079      350.787       32.211      864.224
07/02/2013  10:08:00       31.424        4.427       -3.354       18.605       18.282       18.235      346.131      334.239      332.512        0.102        0.051       31.734       13.159        0.172      350.198       31.187      864.224
07/02/2013  10:09:00      -28.688      -18.556        2.288       20.825       19.727       18.473      433.666      389.171      341.260        0.117        0.058       34.166       15.960        0.218      350.469       31.656      864.230
07/02/2013  10:10:00      -32.234       19.583       18.008       22.916       21.515       20.219      525.138      462.901      408.825        0.157        0.070       37.717       10.084        0.071      350.857       32.331      864.227
07/02/2013  10:11:00      -14.302        5.500       31.799       19.094       14.363       11.516      364.588      206.290      132.620        0.097        0.035       15.323       11.429        0.556      351.599       33.628      864.231
07/02/2013  10:12:00      -40.409       -1.358       -1.759       19.324       11.344        8.602      373.403      128.678       73.995        0.111        0.029       40.432        7.549        0.035      350.459       31.637      864.228
07/02/2013  10:13:00      -25.270       14.833       24.723       16.673       24.095       24.399      277.993      580.557      595.295        0.146        0.073       29.302       18.897        0.416      351.068       32.701      864.236
07/02/2013  10:14:00        1.726      -16.473       12.101       23.393       29.561       18.532      547.239      873.854      343.437        0.109        0.088       16.563       20.089        1.471      351.152       32.847      864.231
07/02/2013  10:15:00       17.121      -55.401        0.776       25.596       33.299       22.589      655.144     1108.816      510.246        0.282        0.114       57.987       18.360        0.100      350.567       31.828      864.241
07/02/2013  10:16:00       39.944       -5.925       17.447       29.319       36.235       26.589      859.632     1312.981      706.986        0.241        0.144       40.381       19.951        0.244      350.627       31.932      864.237
07/02/2013  10:17:00       13.359      -18.549       -0.879       25.982       14.339       25.826      675.073      205.618      666.981        0.104        0.077       22.859       15.341        0.450      350.513       31.734      864.238
07/02/2013  10:18:00      -56.412      -16.127      -10.055       22.223       16.891       14.165      493.846      285.313      200.645        0.226        0.049       58.672        8.001        0.019      350.419       31.570      864.227
07/02/2013  10:19:00      -78.782       14.101       -3.543       18.522       18.292       10.913      343.049      334.605      119.086        0.361        0.040       80.034        5.999        0.006      350.339       31.430      864.222
07/02/2013  10:20:00      -47.460       -8.201        4.197       32.482       20.687       15.989     1055.094      427.965      255.651        0.204        0.087       48.163       15.535        0.104      350.948       32.492      864.211
07/02/2013  10:21:00      -21.485        8.389       20.841       31.083       25.538       20.813      966.128      652.174      433.200        0.151        0.103       23.065       22.859        0.982      351.242       33.004      864.206
07/02/2013  10:22:00        3.633        7.568       29.356       12.838       12.355        9.433      164.827      152.648       88.980        0.067        0.020        8.395        5.995        0.510      351.625       33.671      864.198
07/02/2013  10:23:00      -38.184        6.419        0.146       15.352       14.689       10.793      235.689      215.760      116.497        0.103        0.028       38.720        7.659        0.039      350.677       32.019      864.187
07/02/2013  10:24:00       46.899       48.580       25.485       56.061       38.649       42.611     3142.881     1493.708     1815.678        0.583        0.323       67.524       27.969        0.172      351.098       32.752      864.192
07/02/2013  10:25:00        5.184       51.168       26.261       30.046       51.121       33.846      902.768     2613.317     1145.559        0.400        0.233       51.429       30.033        0.341      351.665       33.742      864.182
07/02/2013  10:26:00      -19.191       37.623       16.314       37.556       27.833       31.671     1410.470      774.698     1003.046        0.262        0.159       42.234       30.986        0.538      351.279       33.068      864.179
07/02/2013  10:27:00      -63.260       41.817       -1.387       43.589       32.910       28.692     1900.009     1083.038      823.226        0.478        0.190       75.832       22.575        0.089      350.993       32.571      864.182
07/02/2013  10:28:00        3.244       13.554       23.258       20.770       23.770       15.079      431.388      565.010      227.377        0.098        0.061       13.936        9.398        0.455      352.005       34.334      864.176
07/02/2013  10:29:00        8.137      -10.422       35.666       17.731       20.745       19.291      314.400      430.375      372.140        0.128        0.056       13.222       11.210        0.719      351.761       33.909      864.185
07/02/2013  10:30:00       12.820      -17.753       26.103       28.894       51.321       36.794      834.872     2633.832     1353.773        0.299        0.241       21.898        7.186        0.108      351.271       33.054      864.176
07/02/2013  10:31:00        8.743      -71.883        6.576       49.041       65.328       40.337     2405.060     4267.807     1627.111        0.679        0.415       72.412       42.194        0.340      351.354       33.199      864.181
07/02/2013  10:32:00       30.581      -72.178       -7.226       55.146       75.493       36.065     3041.094     5699.265     1300.676        0.812        0.502       78.390       45.864        0.342      351.147       32.837      864.181
07/02/2013  10:33:00       13.267       17.420       23.899       36.168       34.568       40.564     1308.143     1194.939     1645.455        0.260        0.207       21.897        8.868        0.164      351.724       33.847      864.186
07/02/2013  10:34:00       80.959        4.038       20.305       62.290       47.957       32.676     3879.985     2299.905     1067.705        0.711        0.362       81.059       33.541        0.171      350.573       31.838      864.191
07/02/2013  10:35:00      110.165       91.657        6.838       37.571       47.721       40.114     1411.547     2277.317     1609.151        1.294        0.265      143.309       14.940        0.011      350.734       32.119      864.173
07/02/2013  10:36:00      111.959       64.811       18.792       39.081       31.688       31.823     1527.316     1004.150     1012.734        1.032        0.177      129.365       16.059        0.015      351.067       32.697      864.168
07/02/2013  10:37:00        1.844       46.672       -2.936       33.627       64.818       27.063     1130.787     4201.335      732.427        0.413        0.303       46.708       17.527        0.141      351.188       32.910      864.173
07/02/2013  10:38:00       42.209       62.460       22.310       60.436       39.460       32.345     3652.562     1557.071     1046.223        0.622        0.313       75.385       21.533        0.082      351.789       33.956      864.162
07/02/2013  10:39:00      100.473       73.215       -8.312       26.316       35.204       28.703      692.556     1239.328      823.889        0.914        0.138      124.319       20.515        0.027      350.979       32.543      864.172
07/02/2013  10:40:00       24.348       16.733       10.144       36.015       31.141       28.729     1297.046      969.769      825.352        0.203        0.155       29.543       23.337        0.624      351.412       33.299      864.163
07/02/2013  10:41:00       45.024       27.627       32.378       43.524       30.784       30.803     1894.347      947.642      948.820        0.381        0.190       52.825       22.137        0.176      351.788       33.955      864.155
07/02/2013  10:42:00      -18.847       10.763        3.329       28.585       20.958       19.785      817.122      439.223      391.461        0.106        0.082       21.704       11.842        0.298      351.610       33.647      864.154
07/02/2013  10:43:00      -32.587        9.982       12.413       36.772       41.115       38.861     1352.205     1690.482     1510.209        0.293        0.228       34.082       24.178        0.503      351.708       33.817      864.158
07/02/2013  10:44:00        9.232       -1.012       55.040       26.904       32.494       24.049      723.830     1055.857      578.373        0.274        0.118        9.287       21.674        5.446      351.870       34.100      864.160
07/02/2013  10:45:00      -46.028       -1.935       -5.186       32.210       26.456       34.004     1037.490      699.940     1156.260        0.252        0.145       46.069       24.744        0.288      351.240       32.999      864.152
07/02/2013  10:46:00        9.084       -8.442       13.999       26.747       19.331       25.331      715.398      373.674      641.656        0.104        0.087       12.401       16.712        1.816      351.587       33.605      864.156
07/02/2013  10:47:00       22.494       34.972       46.567       36.343       37.955       24.145     1320.811     1440.583      582.961        0.362        0.167       41.582       22.274        0.287      351.530       33.505      864.144
07/02/2013  10:48:00       62.306       55.338       18.591       55.320       47.416       32.633     3060.302     2248.280     1064.911        0.683        0.319       83.333       18.048        0.047      351.489       33.432      864.143
07/02/2013  10:49:00       20.582       14.992       -9.747       42.984       36.928       28.221     1847.590     1363.668      796.428        0.237        0.200       25.464        6.670        0.069      350.646       31.965      864.143
07/02/2013  10:50:00        5.072        5.619       14.550       29.037       31.990       25.995      843.146     1023.344      675.736        0.141        0.127        7.569       14.720        3.782      351.419       33.311      864.131
07/02/2013  10:51:00       26.410       49.031       21.114       40.819       40.421       26.350     1666.214     1633.844      694.343        0.377        0.200       55.691       27.281        0.240      351.552       33.543      864.139
07/02/2013  10:52:00       -0.170       46.380        0.543       14.551       48.809       25.890      211.736     2382.281      670.297        0.271        0.163       46.381       20.989        0.205      351.777       33.939      864.137
07/02/2013  10:53:00      -16.083      -13.236       12.275       11.524       15.922       15.353      132.797      253.524      235.708        0.060        0.031       20.829        7.882        0.143      351.667       33.744      864.144
07/02/2013  10:54:00        4.307        3.964       33.968       33.952       24.097       29.509     1152.761      580.659      870.772        0.190        0.130        5.854       25.365       18.777      351.961       34.260      864.138
07/02/2013  10:55:00       -9.351       -1.024       -2.603       16.287       23.018       20.276      265.251      529.850      411.116        0.065        0.060        9.407       11.284        1.439      351.415       33.303      864.145
07/02/2013  10:56:00        6.725      -19.471       20.207       20.337       30.510       21.065      413.575      930.860      443.722        0.131        0.089       20.599       23.522        1.304      351.853       34.069      864.131
07/02/2013  10:57:00       34.290      -54.658       13.126       44.575       58.733       37.464     1986.972     3449.526     1403.569        0.559        0.342       64.524       38.261        0.352      351.825       34.021      864.123
07/02/2013  10:58:00       31.575     -100.188      -10.660       51.937       62.376       37.918     2697.439     3890.725     1437.756        0.959        0.401      105.046       29.242        0.077      351.589       33.609      864.108
07/02/2013  10:59:00       79.813       36.216       42.356       34.320       41.943       35.764     1177.848     1759.245     1279.061        0.685        0.211       87.645       25.103        0.082      351.544       33.530      864.102
07/02/2013  11:00:00       11.220       54.849        6.152       39.426       37.073       32.987     1554.404     1374.443     1088.163        0.359        0.201       55.985       23.372        0.174      351.887       34.129      864.099
07/02/2013  11:01:00      -16.139      -43.669        4.531       35.040       49.571       24.127     1227.785     2457.272      582.090        0.323        0.213       46.556       15.528        0.111      351.840       34.045      864.091
07/02/2013  11:02:00        1.735     -100.896        5.127       41.440       46.634       45.507     1717.259     2174.730     2070.859        0.808        0.298      100.911       24.590        0.059      351.630       33.679      864.094
07/02/2013  11:03:00       -6.123      -73.245       -0.491       44.872       56.671       36.428     2013.489     3211.555     1326.984        0.598        0.328       73.500       25.105        0.117      351.776       33.934      864.087
07/02/2013  11:04:00       21.479      -68.402        1.261       32.148       49.166       35.959     1033.497     2417.332     1293.076        0.494        0.237       71.695       23.899        0.111      351.392       33.264      864.089
07/02/2013  11:05:00       46.915       -3.852       47.010       44.432       35.868       22.271     1974.195     1286.527      496.000        0.409        0.188       47.073       16.353        0.121      351.618       33.661      864.079
07/02/2013  11:06:00        3.750      -30.014       28.521       24.855       46.058       27.432      617.777     2121.296      752.539        0.261        0.175       30.247       17.711        0.343      351.837       34.041      864.078
07/02/2013  11:07:00      -60.961      -49.249       -3.389       46.828       30.124       24.088     2192.852      907.434      580.238        0.492        0.184       78.369       15.057        0.037      351.407       33.289      864.065
07/02/2013  11:08:00     -116.817      -29.622        0.006       43.551       26.668       20.345     1896.714      711.208      413.936        0.877        0.151      120.514       21.212        0.031      351.422       33.317      864.055
07/02/2013  11:09:00      -65.141       45.103      -10.984       30.892       29.829       21.598      954.300      889.754      466.471        0.435        0.116       79.231       13.777        0.030      351.512       33.474      864.043
07/02/2013  11:10:00        4.826       -9.509       35.583       15.695       18.599       21.581      246.347      345.939      465.746        0.122        0.053       10.664       15.243        2.043      352.555       35.296      864.038
07/02/2013  11:11:00       -9.951       16.682      -10.362       20.047       40.738       16.186      401.889     1659.562      261.974        0.140        0.116       19.424       10.188        0.275      351.972       34.277      864.029
07/02/2013  11:12:00       -4.411       51.268       11.457       24.052       42.464       23.895      578.518     1803.193      570.974        0.287        0.148       51.458       22.709        0.195      352.613       35.399      864.044
07/02/2013  11:13:00      -69.509       -3.430        5.616       44.987       34.599       21.916     2023.861     1197.057      480.303        0.429        0.185       69.594       20.284        0.085      351.988       34.306      864.038
07/02/2013  11:14:00      -55.280       30.674       -1.431       46.506       31.280       24.142     2162.827      978.467      582.858        0.386        0.186       63.220       23.837        0.142      351.757       33.902      864.048
07/02/2013  11:15:00       14.676       29.086       37.907       24.631       33.588       21.426      606.663     1128.141      459.077        0.235        0.110       32.579       18.054        0.307      352.525       35.243      864.031
07/02/2013  11:16:00       -7.450      -15.659       13.486       20.246       26.802       26.238      409.908      718.362      688.431        0.115        0.091       17.341       15.742        0.824      352.566       35.316      864.035
07/02/2013  11:17:00      -30.872      -27.028        0.366       23.199       22.751       19.209      538.207      517.627      368.987        0.155        0.071       41.031        8.909        0.047      351.974       34.280      864.026
07/02/2013  11:18:00      -38.337       76.085       -2.741       31.483       76.357       35.774      991.178     5830.455     1279.760        0.768        0.405       85.198       34.502        0.164      351.954       34.245      864.029
07/02/2013  11:19:00      -49.920      136.800       -8.479       27.678       42.182       25.097      766.066     1779.326      629.842        1.223        0.159      145.623       16.620        0.013      351.758       33.903      864.019
07/02/2013  11:20:00       -3.951       41.825       16.897       28.002       37.363       29.072      784.088     1396.023      845.208        0.254        0.151       42.012       22.270        0.281      352.709       35.568      864.014
07/02/2013  11:21:00       -8.151       12.085       19.876       16.654       30.808       17.352      277.355      949.153      301.088        0.107        0.076       14.577       14.315        0.964      353.118       36.283      863.995
07/02/2013  11:22:00      -38.003       12.301       -5.101       48.966       38.324       37.147     2397.705     1468.700     1379.911        0.343        0.262       39.944       34.770        0.758      352.125       34.544      863.996
07/02/2013  11:23:00      -64.045       -8.350        3.496       66.069       44.919       25.991     4365.105     2017.722      675.554        0.562        0.353       64.587       20.359        0.099      351.933       34.209      863.976
07/02/2013  11:24:00     -131.405        6.058        1.091       59.121       53.704       35.027     3495.276     2884.106     1226.908        1.245        0.380      131.545       34.847        0.070      351.863       34.085      863.971
07/02/2013  11:25:00     -138.325        3.066      -11.078       68.054       27.815       21.034     4631.286      773.667      442.431        1.256        0.292      138.359       22.687        0.027      351.619       33.658      863.959
07/02/2013  11:26:00      -20.637       41.164       16.721       37.362       37.550       33.697     1395.946     1410.026     1135.505        0.317        0.197       46.048       15.710        0.116      352.591       35.359      863.960
07/02/2013  11:27:00      -47.741      112.316       18.892       54.472       69.096       41.477     2967.177     4774.271     1720.347        1.235        0.473      122.041       43.990        0.130      352.207       34.687      863.943
07/02/2013  11:28:00      -98.010      124.558      -13.932       39.836       63.361       42.294     1586.943     4014.620     1788.740        1.635        0.370      158.495       32.204        0.041      351.928       34.200      863.945
07/02/2013  11:29:00     -119.229       70.532      -16.670       65.525       57.642       40.972     4293.526     3322.632     1678.704        1.438        0.465      138.529       31.641        0.052      351.833       34.034      863.927
07/02/2013  11:30:00     -111.847      -13.636      -16.910       22.488       35.205       14.252      505.691     1239.395      203.107        0.746        0.097      112.675        8.387        0.006      351.515       33.479      863.937
07/02/2013  11:31:00      -41.608       12.326      -26.255       21.873       16.375       16.834      478.422      268.130      283.375        0.180        0.051       43.395        9.080        0.044      351.769       33.921      863.925
07/02/2013  11:32:00        6.665       40.274       12.488       43.003       32.437       36.353     1849.247     1052.143     1321.538        0.302        0.211       40.822       11.866        0.084      352.341       34.921      863.916
07/02/2013  11:33:00       56.682       33.249       15.125       49.468       37.882       30.765     2447.100     1435.062      946.508        0.469        0.241       65.714       23.230        0.125      352.191       34.659      863.902
07/02/2013  11:34:00        7.841       50.334       29.039       26.637       35.848       29.359      709.525     1285.081      861.936        0.315        0.143       50.941       22.249        0.191      352.622       35.415      863.896
07/02/2013  11:35:00       -0.148       52.808       -1.041       22.740       49.995       33.730      517.117     2499.516     1137.711        0.347        0.208       52.808       32.946        0.389      352.271       34.800      863.883
07/02/2013  11:36:00       52.892       38.698       -0.215       42.255       82.917       30.882     1785.444     6875.242      953.685        0.695        0.481       65.537       25.203        0.148      351.750       33.888      863.872
07/02/2013  11:37:00       17.531        1.623       30.609       29.423       35.091       35.900      865.719     1231.412     1288.838        0.232        0.169       17.606       25.691        2.129      352.013       34.350      863.864
07/02/2013  11:38:00       90.682       71.733       36.780       51.714       41.029       40.211     2674.338     1683.363     1616.929        1.035        0.299      115.624       30.720        0.071      351.806       33.987      863.849
07/02/2013  11:39:00       44.713       51.785       32.023       45.701       40.628       27.052     2088.547     1650.627      731.827        0.509        0.224       68.417       15.290        0.050      352.146       34.582      863.848
07/02/2013  11:40:00       32.103       25.179       32.200       61.663       39.974       34.933     3802.382     1597.950     1220.310        0.466        0.331       40.799       22.097        0.293      352.314       34.876      863.833
07/02/2013  11:41:00      153.352       85.302       41.603       63.406       57.399       61.788     4020.272     3294.605     3817.754        2.183        0.557      175.480       47.199        0.072      352.001       34.325      863.825
07/02/2013  11:42:00       86.854       96.304       45.687       69.441       47.744       51.772     4822.020     2279.514     2680.329        1.434        0.489      129.685       31.620        0.059      352.018       34.357      863.821
07/02/2013  11:43:00       59.112       51.595       52.231       54.399       57.893       32.513     2959.305     3351.598     1057.111        0.812        0.368       78.462       23.515        0.090      352.346       34.931      863.803
07/02/2013  11:44:00       91.443       70.243       41.928       73.877       58.148       54.645     5457.861     3381.179     2986.098        1.344        0.591      115.308       33.228        0.083      352.219       34.709      863.795
07/02/2013  11:45:00      -15.478      132.885      -15.945       49.768       63.337       35.828     2476.864     4011.513     1283.641        1.296        0.389      133.783       23.011        0.030      352.298       34.847      863.785
07/02/2013  11:46:00        7.899       25.498       22.850       45.198       50.685       33.573     2042.823     2568.983     1127.157        0.349        0.287       26.693       12.049        0.204      352.886       35.874      863.780
07/02/2013  11:47:00      -14.154       36.275       15.839       26.445       39.767       29.549      699.316     1581.389      873.118        0.246        0.158       38.939       17.011        0.191      352.844       35.803      863.774
07/02/2013  11:48:00      -69.431        3.105       -3.648       21.188       33.737       23.655      448.917     1138.157      559.570        0.349        0.107       69.500       11.916        0.029      352.067       34.441      863.763
07/02/2013  11:49:00      -10.260      -43.879       -2.979       63.985       36.146       33.112     4094.097     1306.567     1096.432        0.427        0.325       45.062       23.320        0.268      352.322       34.890      863.763
07/02/2013  11:50:00      -28.564      -23.132        7.457       29.026       31.819       17.394      842.504     1012.418      302.555        0.178        0.108       36.756       18.670        0.258      352.422       35.063      863.756
07/02/2013  11:51:00       64.931      -87.072        6.715       80.041      103.392       45.481     6406.539    10689.936     2068.505        1.550        0.958      108.617       56.667        0.272      352.695       35.539      863.736
07/02/2013  11:52:00       14.610       58.516      104.213       46.538       57.238       35.844     2165.776     3276.214     1284.796        1.061        0.336       60.312       29.501        0.239      352.751       35.639      863.731
07/02/2013  11:53:00       40.254     -101.915       -0.079       29.275       63.180       34.342      857.024     3991.707     1179.376        0.902        0.301      109.576       38.501        0.123      352.122       34.539      863.729
07/02/2013  11:54:00       66.194      -65.123       21.860       77.624       80.242       71.600     6025.535     6438.751     5126.561        1.334        0.880       92.858       71.759        0.597      352.668       35.494      863.713
07/02/2013  11:55:00       56.230      -86.129       -8.139       35.728       51.469       33.974     1276.507     2649.070     1154.257        0.786        0.254      102.859       30.619        0.089      352.306       34.860      863.720
07/02/2013  11:56:00       33.657       -5.750       29.161       30.396       34.085       28.336      923.915     1161.816      802.907        0.245        0.144       34.144       21.759        0.406      352.500       35.201      863.693
07/02/2013  11:57:00       48.297       17.159       37.119       45.060       51.209       36.572     2030.381     2622.398     1337.533        0.500        0.300       51.254       27.332        0.284      351.904       34.157      863.688
07/02/2013  11:58:00       95.269       68.322       56.435       51.247       38.237       43.662     2626.295     1462.088     1906.394        1.146        0.300      117.235       37.286        0.101      351.855       34.073      863.681
07/02/2013  11:59:00       89.790       61.793       23.500       47.148       35.492       39.667     2222.946     1259.717     1573.489        0.874        0.253      108.998       31.199        0.082      352.140       34.571      863.665
07/02/2013  12:00:00       56.116       42.937       15.262       44.820       38.701       34.873     2008.795     1497.791     1216.144        0.497        0.236       70.658       23.734        0.113      352.831       35.781      863.661
07/02/2013  12:01:00       81.043       27.167       12.745       72.204       63.166       34.198     5213.388     3989.925     1169.519        0.892        0.519       85.476       25.270        0.087      352.831       35.780      863.654
07/02/2013  12:02:00       43.005       36.064       -9.892       48.697       68.061       26.599     2371.425     4632.350      707.514        0.548        0.386       56.125       39.795        0.503      352.451       35.114      863.653
07/02/2013  12:03:00       41.059       60.490       -4.073       24.126       33.725       26.079      582.079     1137.382      680.134        0.388        0.120       73.109       25.297        0.120      352.670       35.497      863.654
07/02/2013  12:04:00        8.554       40.451       29.085       21.319       28.602       37.007      454.492      818.070     1369.485        0.260        0.132       41.346       19.734        0.228      352.453       35.118      863.649
07/02/2013  12:05:00       68.073        0.163       28.479       48.256       36.781       35.225     2328.597     1352.870     1240.816        0.518        0.246       68.073       27.989        0.169      351.813       33.999      863.630
07/02/2013  12:06:00       17.108       25.643       44.940       45.283       38.535       24.405     2050.564     1484.923      595.587        0.355        0.207       30.825       24.167        0.615      352.268       34.796      863.622
07/02/2013  12:07:00       39.713       37.460       35.859       69.790       82.711       51.753     4870.657     6841.071     2678.385        0.933        0.720       54.593       33.894        0.385      352.386       35.001      863.607
07/02/2013  12:08:00       80.695       24.465       70.081       64.628       60.344       60.266     4176.743     3641.351     3631.953        1.173        0.573       84.322       47.017        0.311      352.248       34.759      863.609
07/02/2013  12:09:00       26.805       11.796       51.826       62.742       65.731       48.145     3936.620     4320.628     2317.958        0.706        0.529       29.286       49.232        2.826      352.339       34.917      863.588
07/02/2013  12:10:00       21.036       27.274       27.995       54.937       45.128       39.791     3018.115     2036.494     1583.322        0.430        0.332       34.444       11.631        0.114      352.562       35.309      863.571
07/02/2013  12:11:00       71.778       65.174        6.441      104.287       50.867       34.009    10875.745     2587.485     1156.591        1.203        0.731       96.952       33.156        0.117      352.416       35.051      863.566
07/02/2013  12:12:00      104.098       69.999        8.053       82.301       58.518       52.290     6773.401     3424.361     2734.279        1.436        0.647      125.444       19.833        0.025      352.659       35.478      863.563
07/02/2013  12:13:00       96.628       98.581        7.749       94.324       60.748       39.648     8897.032     3690.314     1571.954        1.663        0.708      138.040       33.229        0.058      352.498       35.196      863.557
07/02/2013  12:14:00      162.190       94.261       17.160       50.898       42.869       41.085     2590.560     1837.721     1688.013        2.080        0.306      187.593       22.604        0.015      352.377       34.984      863.559
07/02/2013  12:15:00      119.711       80.240       16.763       58.923       40.882       33.937     3471.952     1671.344     1151.743        1.367        0.315      144.115       13.776        0.009      352.360       34.955      863.580
07/02/2013  12:16:00        3.213      -11.439        4.657       43.766       68.129       27.250     1915.430     4641.506      742.549        0.373        0.365       11.882       28.567        5.780      352.408       35.040      863.563
07/02/2013  12:17:00      -62.295       68.680       -5.646       30.405       44.065       32.244      924.449     1941.721     1039.698        0.627        0.195       92.723       21.638        0.054      352.392       35.011      863.567
07/02/2013  12:18:00      -78.695       12.014       -7.199       31.731       28.416       19.690     1006.855      807.494      387.695        0.430        0.110       79.607       15.789        0.039      352.298       34.846      863.569
07/02/2013  12:19:00      -61.902      -48.827        3.706       65.223       44.489       31.316     4254.040     1979.305      980.710        0.672        0.361       78.841       33.245        0.178      352.571       35.324      863.558
07/02/2013  12:20:00      -56.535      -31.063       12.125       64.039       33.685       30.845     4100.987     1134.683      951.424        0.525        0.309       64.507       37.572        0.339      352.512       35.222      863.555
07/02/2013  12:21:00      -62.704       19.731       -0.953       16.930       17.517       15.557      286.635      306.839      242.008        0.258        0.042       65.736       10.921        0.028      352.351       34.939      863.548
07/02/2013  12:22:00      -74.324       26.030        2.777       46.152       20.151       24.824     2129.962      406.068      616.250        0.468        0.158       78.750       25.426        0.104      352.425       35.069      863.546
07/02/2013  12:23:00      -85.907      -18.535        0.942       57.466       40.114       30.386     3302.366     1609.137      923.279        0.678        0.292       87.884       30.218        0.118      352.706       35.561      863.535
07/02/2013  12:24:00      -47.564      -22.540       18.104       54.220       32.745       30.465     2939.795     1072.250      928.110        0.402        0.247       52.635       32.082        0.372      352.677       35.510      863.530
07/02/2013  12:25:00      -89.264      -17.060        5.757       91.875       46.210       37.926     8440.950     2135.324     1438.396        1.015        0.601       90.879       42.252        0.216      352.550       35.286      863.520
07/02/2013  12:26:00     -174.189      -17.951       -7.742       47.612       40.705       28.556     2266.884     1656.929      815.457        1.773        0.237      175.111       22.687        0.017      352.285       34.821      863.516
07/02/2013  12:27:00      -93.395      -23.904       -7.878       34.832       22.975       19.268     1213.270      527.872      371.258        0.573        0.106       96.405       15.313        0.025      352.213       34.697      863.497
07/02/2013  12:28:00      -20.207      -34.335       13.805       25.550       22.763       25.050      652.811      518.152      627.492        0.179        0.090       39.840       22.389        0.316      352.746       35.630      863.488
07/02/2013  12:29:00       -4.767       -8.034       15.621       16.655       13.074       18.928      277.401      170.935      358.271        0.057        0.040        9.341       12.859        1.895      352.997       36.071      863.485
07/02/2013  12:30:00       27.033      -77.897       -7.701       25.370       51.613       30.124      643.641     2663.943      907.485        0.554        0.211       82.454       36.282        0.194      352.391       35.010      863.466
07/02/2013  12:31:00       41.844      -21.561       34.968       43.721       36.078       23.976     1911.490     1301.630      574.844        0.361        0.189       47.072       19.928        0.179      352.544       35.277      863.461
07/02/2013  12:32:00       53.498        7.081       11.712       29.739       20.628       26.843      884.383      425.522      720.526        0.254        0.102       53.965       13.480        0.062      352.079       34.465      863.464
07/02/2013  12:33:00       23.151       -9.837       34.564       30.671       26.231       17.747      940.723      688.039      314.960        0.189        0.097       25.154       13.314        0.280      352.561       35.307      863.456
07/02/2013  12:34:00        0.834        9.213       21.550       16.885       25.681       21.311      285.113      659.493      454.173        0.097        0.070        9.251       12.923        1.951      352.749       35.637      863.449
07/02/2013  12:35:00       78.711       50.573       12.535       56.586       51.174       30.540     3201.993     2618.816      932.713        0.783        0.338       93.558       18.471        0.039      352.453       35.119      863.452
07/02/2013  12:36:00       68.795       49.390        0.179       29.141       28.143       30.233      849.185      792.024      914.046        0.486        0.128       84.689       22.351        0.070      352.465       35.138      863.452
07/02/2013  12:37:00       54.881       -1.658        7.562       23.509       18.502       22.471      552.684      342.334      504.942        0.224        0.070       54.906        9.211        0.028      352.472       35.151      863.437
07/02/2013  12:38:00      110.884       57.495       24.537       47.190       32.967       31.362     2226.932     1086.808      983.589        1.025        0.215      124.904       26.332        0.044      352.512       35.221      863.426
07/02/2013  12:39:00       29.527       37.553       54.965       38.261       48.421       37.379     1463.891     2344.640     1397.218        0.525        0.260       47.771       34.767        0.530      352.696       35.543      863.423
07/02/2013  12:40:00      100.868       67.385       49.893       60.063       48.401       41.912     3607.559     2342.670     1756.640        1.245        0.385      121.306       34.130        0.079      352.506       35.210      863.404
07/02/2013  12:41:00       61.748       61.944       31.258       63.126       53.864       47.495     3984.932     2901.333     2255.803        0.888        0.457       87.463       35.938        0.169      352.857       35.824      863.391
07/02/2013  12:42:00       75.029       44.072       53.586       67.523       68.258       42.656     4559.404     4659.154     1819.526        1.074        0.552       87.015       37.329        0.184      352.663       35.484      863.384
07/02/2013  12:43:00       22.112      -11.785       23.475       45.403       65.086       48.675     2061.404     4236.217     2369.229        0.492        0.433       25.057       49.056        3.833      353.065       36.190      863.384
07/02/2013  12:44:00       50.878      -71.172       30.584       76.934      128.047       82.462     5918.823    16396.088     6799.913        1.885        1.456       87.487       90.683        1.074      353.020       36.108      863.355
07/02/2013  12:45:00       75.142     -136.328       52.889       85.199      183.728       74.728     7258.944    33755.878     5584.319        3.680        2.330      155.665       94.934        0.372      353.057       36.172      863.347
07/02/2013  12:46:00       23.431      -14.842       76.120       46.072       72.615       44.239     2122.617     5272.886     1957.126        0.796        0.468       27.736       42.684        2.368      353.387       36.754      863.372
07/02/2013  12:47:00      -12.968       16.505       79.504       39.350       67.077       39.736     1548.397     4499.379     1578.952        0.719        0.381       20.990       23.431        1.246      353.471       36.901      863.369
07/02/2013  12:48:00       76.926     -127.407       15.443       88.575      106.985       60.573     7845.614    11445.742     3669.066        2.267        1.148      148.830       72.786        0.239      353.060       36.179      863.364
07/02/2013  12:49:00       -1.649      -28.546       49.288       58.135       70.471       52.691     3379.682     4966.132     2776.379        0.718        0.556       28.593       46.499        2.645      353.304       36.609      863.354
07/02/2013  12:50:00      -11.413      -51.317        8.489       74.774       54.901       39.957     5591.186     3014.109     1596.568        0.652        0.510       52.570       36.654        0.486      353.093       36.238      863.348
07/02/2013  12:51:00       37.194      -76.151       19.003       61.977       74.284       46.098     3841.108     5518.094     2125.053        0.951        0.574       84.748       43.201        0.260      352.946       35.979      863.338
07/02/2013  12:52:00       37.943     -123.972        8.801       71.278       54.510       37.380     5080.485     2971.329     1397.251        1.317        0.472      129.648       25.136        0.038      352.785       35.698      863.330
07/02/2013  12:53:00      -13.904      -76.207        4.494       46.498       71.321       36.063     2162.033     5086.681     1300.543        0.728        0.427       77.465       34.039        0.193      353.148       36.335      863.330
07/02/2013  12:54:00       45.996      -64.534       26.707       94.744       70.067       38.382     8976.495     4909.447     1473.209        1.117        0.768       79.248       26.431        0.111      352.914       35.924      863.321
07/02/2013  12:55:00      172.723     -116.364       19.442      134.444      155.772       99.148    18075.067    24264.857     9830.369        4.795        2.609      208.264      113.963        0.299      352.914       35.921      863.291
07/02/2013  12:56:00      119.934     -122.014       -0.315       92.661      120.106       83.934     8586.049    14425.353     7044.985        2.966        1.503      171.089       83.264        0.237      352.816       35.750      863.290
07/02/2013  12:57:00      196.634     -192.610      -34.145       55.845       57.331       36.350     3118.654     3286.852     1321.318        4.233        0.386      275.252       39.215        0.020      352.629       35.420      863.287
07/02/2013  12:58:00       97.192     -118.929       11.433       63.208      105.734       47.997     3995.198    11179.687     2303.726        2.060        0.874      153.591       55.528        0.131      352.766       35.663      863.278
07/02/2013  12:59:00       94.051      -37.657       10.791       59.703       74.450       33.984     3564.489     5542.834     1154.922        1.032        0.513      101.310       36.534        0.130      352.697       35.543      863.262
07/02/2013  13:00:00       45.036       23.293        2.993       46.135       45.432       33.102     2128.460     2064.075     1095.771        0.393        0.264       50.703       24.537        0.234      352.575       35.332      863.231
07/02/2013  13:01:00        6.650        5.375        9.440       22.630       28.849       24.418      512.138      832.242      596.239        0.105        0.097        8.551       18.949        4.911      353.160       36.355      863.204
07/02/2013  13:02:00       39.564       14.923      -18.159       31.104       29.485       21.602      967.455      869.377      466.641        0.221        0.115       42.285       14.549        0.118      352.580       35.340      863.188
07/02/2013  13:03:00       46.574       -9.323       10.666       64.249       62.129       36.266     4127.938     3859.961     1315.251        0.583        0.465       47.498       24.285        0.261      352.792       35.710      863.162
07/02/2013  13:04:00        4.741      -21.022       29.484       37.954       65.825       48.491     1440.488     4332.891     2351.339        0.473        0.406       21.550       50.609        5.515      353.026       36.121      863.155
07/02/2013  13:05:00       -3.000      -26.251        8.733       40.006       54.050       37.146     1600.441     2921.376     1379.792        0.334        0.295       26.422       37.021        1.963      353.402       36.781      863.148
07/02/2013  13:06:00      -19.614       -6.694       20.411       38.384       53.929       28.626     1473.327     2908.377      819.426        0.302        0.260       20.725       28.064        1.834      353.481       36.918      863.149
07/02/2013  13:07:00      -67.990      -44.579       -4.159       69.541       47.020       34.200     4835.921     2210.885     1169.621        0.742        0.411       81.302       38.358        0.223      353.298       36.598      863.142
07/02/2013  13:08:00      -50.693      -85.208       -7.788       61.525       46.059       29.370     3785.372     2121.400      862.583        0.833        0.338       99.147       20.388        0.042      353.097       36.245      863.133
07/02/2013  13:09:00      -35.225      -63.092        2.313       28.242       47.015       26.463      797.596     2210.407      700.289        0.447        0.185       72.259       18.383        0.065      353.141       36.323      863.138
07/02/2013  13:10:00      -14.305      -27.285        6.923       29.362       34.804       23.633      862.120     1211.333      558.495        0.181        0.132       30.808       20.659        0.450      353.536       37.016      863.120
07/02/2013  13:11:00      -26.081        1.679       24.290       28.691       28.715       19.496      823.154      824.574      380.088        0.165        0.101       26.135       12.659        0.235      353.587       37.105      863.096
07/02/2013  13:12:00      -35.524       -6.443        8.700       42.616       30.805       20.273     1816.115      948.960      411.011        0.228        0.159       36.104       18.336        0.258      353.591       37.113      863.086
07/02/2013  13:13:00     -184.506     -128.492       -7.064       90.957       70.669       47.506     8273.157     4994.050     2256.777        3.306        0.776      224.839       45.067        0.040      353.029       36.123      863.074
07/02/2013  13:14:00     -179.812      -96.897       -8.265       57.317       57.484       30.796     3285.237     3304.365      948.394        2.466        0.377      204.258       27.724        0.018      352.849       35.810      863.071
07/02/2013  13:15:00     -151.794      -76.573       -7.801       90.949       71.062       34.825     8271.695     5049.813     1212.796        2.175        0.727      170.015       41.251        0.059      353.095       36.241      863.060
07/02/2013  13:16:00     -122.392      -69.574      -12.187       88.746       51.460       36.639     7875.931     2648.082     1342.451        1.592        0.593      140.785       47.167        0.112      352.863       35.835      863.052
07/02/2013  13:17:00     -216.561      -15.422      -21.991       51.517       42.634       26.603     2654.008     1817.676      707.713        2.640        0.259      217.109       23.039        0.011      352.682       35.516      863.028
07/02/2013  13:18:00     -165.822      -64.609       -7.982       61.568       67.922       36.441     3790.647     4613.357     1327.921        2.073        0.487      177.964       20.764        0.014      353.023       36.115      863.002
07/02/2013  13:19:00      -95.558       49.703      -11.269       51.314       60.774       29.622     2633.141     3693.477      877.472        0.946        0.360      107.711       36.549        0.115      352.888       35.879      862.992
07/02/2013  13:20:00       -8.184       44.706       12.492       31.666       40.223       30.252     1002.717     1617.912      915.161        0.288        0.177       45.449       24.834        0.299      353.684       37.274      862.977
07/02/2013  13:21:00       -1.016       95.933       18.207       30.426       67.071       36.433      925.764     4498.470     1327.327        0.814        0.338       95.939       38.120        0.158      353.520       36.986      862.962
07/02/2013  13:22:00       29.562       47.595       17.229       39.261       43.158       30.615     1541.457     1862.596      937.302        0.389        0.217       56.028       26.390        0.222      353.528       37.003      862.946
07/02/2013  13:23:00       16.331       25.027       19.467       33.102       38.668       31.210     1095.741     1495.187      974.078        0.242        0.178       29.884       25.920        0.752      353.708       37.318      862.930
07/02/2013  13:24:00       15.404       38.561       14.465       34.432       36.765       39.326     1185.580     1351.689     1546.526        0.301        0.204       41.524       32.171        0.600      353.628       37.177      862.908
07/02/2013  13:25:00       53.359      141.890      -14.559       55.202       89.533       49.920     3047.261     8016.111     2491.977        1.837        0.678      151.592       56.052        0.137      353.436       36.837      862.889
07/02/2013  13:26:00      133.695      114.613        8.461       99.950       72.564       43.594     9989.971     5265.532     1900.455        2.412        0.858      176.098       34.280        0.038      353.259       36.526      862.870
07/02/2013  13:27:00       60.429       41.767       39.700       74.589       54.768       43.333     5563.475     2999.532     1877.774        0.870        0.522       73.458       36.392        0.245      353.087       36.228      862.859
07/02/2013  13:28:00       62.170       -3.375       13.785      115.471       88.403       41.079    13333.527     7815.135     1687.496        1.345        1.142       62.261       28.951        0.216      352.821       35.760      862.851
07/02/2013  13:29:00       62.097       23.008       22.898       62.944       65.910       36.973     3961.918     4344.124     1367.017        0.729        0.484       66.222       20.736        0.098      353.078       36.212      862.838
07/02/2013  13:30:00       66.217       98.961      -10.910       75.799       59.932       42.999     5745.554     3591.880     1848.896        1.274        0.559      119.071       30.939        0.068      353.269       36.547      862.833
07/02/2013  13:31:00       28.843       35.395        4.350       63.433       32.172       32.628     4023.691     1035.016     1064.597        0.411        0.306       45.659       15.890        0.121      353.630       37.181      862.796
07/02/2013  13:32:00       80.572       40.774        1.008       71.338       56.032       46.425     5089.150     3139.572     2155.265        0.927        0.519       90.302       26.399        0.085      353.417       36.805      862.797
07/02/2013  13:33:00       13.388       -6.221       16.402       36.408       46.524       38.642     1325.557     2164.475     1493.241        0.273        0.249       14.762       23.424        2.518      353.153       36.343      862.793
07/02/2013  13:34:00       13.773       28.987       86.987       57.348       60.883       56.546     3288.766     3706.694     3197.422        0.939        0.510       32.092       43.023        1.797      353.619       37.161      862.761
07/02/2013  13:35:00       11.696       19.479       60.227       42.790       60.677       37.732     1831.013     3681.707     1423.714        0.554        0.347       22.721       35.567        2.451      353.418       36.806      862.759
07/02/2013  13:36:00       34.619      -41.929       25.393       46.219       56.279       31.904     2136.235     3167.368     1017.872        0.496        0.316       54.374       26.953        0.246      353.056       36.174      862.735
07/02/2013  13:37:00       19.795      -23.640       27.528       41.984       48.501       35.823     1762.643     2352.344     1283.320        0.355        0.270       30.833       32.914        1.140      353.081       36.220      862.729
07/02/2013  13:38:00       -4.036      -31.113       13.458       34.713       42.100       32.310     1205.023     1772.425     1043.940        0.259        0.201       31.374       28.592        0.830      353.093       36.239      862.707
07/02/2013  13:39:00      -41.913       16.807       16.004       54.242       38.069       39.679     2942.226     1449.218     1574.387        0.413        0.298       45.157       26.748        0.351      353.597       37.122      862.692
07/02/2013  13:40:00     -105.912      -95.883      -16.315       67.798      120.943       39.390     4596.605    14627.305     1551.581        2.072        1.039      142.866       29.785        0.043      353.326       36.644      862.705
07/02/2013  13:41:00     -185.645     -199.290      -10.464       93.620       83.332       55.031     8764.658     6944.224     3028.371        4.651        0.937      272.361       48.858        0.032      353.226       36.467      862.679
07/02/2013  13:42:00     -212.668      -55.892       -4.520      100.081       96.094       57.099    10016.232     9233.973     3260.339        3.544        1.126      219.890       57.091        0.067      353.375       36.730      862.664
07/02/2013  13:43:00     -214.451     -139.432       -1.205      102.452      107.714       69.435    10496.450    11602.347     4821.192        4.617        1.346      255.794       66.214        0.067      353.410       36.791      862.651
07/02/2013  13:44:00      -67.765     -132.812       -1.471       76.633       45.119       34.237     5872.565     2035.755     1172.169        1.566        0.454      149.101       34.098        0.052      353.330       36.652      862.650
07/02/2013  13:45:00      -29.433       -9.766       28.718       39.427       76.326       44.428     1554.474     5825.668     1973.834        0.557        0.468       31.011       49.726        2.571      353.293       36.587      862.640
07/02/2013  13:46:00      -62.514      -25.835       14.032       64.505       49.126       37.847     4160.927     2413.399     1432.386        0.639        0.400       67.642       35.015        0.268      353.574       37.081      862.611
07/02/2013  13:47:00        0.055        1.790       29.442       33.077       25.480       21.867     1094.065      649.219      478.186        0.155        0.111        1.791       14.924       69.420      353.540       37.022      862.595
07/02/2013  13:48:00      -62.046      -14.064        7.603       46.544       38.135       26.943     2166.306     1454.290      725.935        0.423        0.217       63.620       26.165        0.169      353.486       36.927      862.582
07/02/2013  13:49:00      -75.546      -44.534       -1.574       43.974       35.038       22.424     1933.756     1227.659      502.839        0.568        0.183       87.695       12.521        0.020      353.545       37.030      862.560
07/02/2013  13:50:00     -129.446      -47.705        2.362       93.058       42.994       34.428     8659.774     1848.520     1185.302        1.536        0.585      137.956       44.120        0.102      353.597       37.121      862.548
07/02/2013  13:51:00     -142.212      -26.356      -17.295       57.874       53.078       34.092     3349.368     2817.233     1162.236        1.427        0.366      144.634       29.453        0.041      353.406       36.786      862.544
07/02/2013  13:52:00     -119.371       16.644        3.219       80.393       38.081       35.791     6463.021     1450.156     1281.007        1.186        0.460      120.526       44.567        0.137      353.442       36.850      862.529
07/02/2013  13:53:00      -88.594       29.370       -8.346       39.445       59.482       21.224     1555.939     3538.062      450.440        0.716        0.277       93.335       20.403        0.048      353.218       36.458      862.515
07/02/2013  13:54:00      -82.248      -90.677        9.566      111.409       77.030       42.051    12411.922     5933.593     1768.316        1.759        1.006      122.421       49.857        0.166      353.429       36.826      862.498
07/02/2013  13:55:00     -175.218      -75.046      -13.434       58.710       49.521       32.815     3446.889     2452.306     1076.802        2.174        0.349      190.613       31.048        0.027      353.043       36.150      862.487
07/02/2013  13:56:00      -60.887      -68.090        9.809       61.852       52.183       30.029     3825.672     2723.021      901.713        0.794        0.373       91.342       31.869        0.122      353.491       36.935      862.462
07/02/2013  13:57:00      -33.039       -5.778       15.473       59.572       38.243       36.862     3548.836     1462.552     1358.808        0.387        0.319       33.541       32.290        0.927      353.527       37.000      862.434
07/02/2013  13:58:00      -67.936      -38.590        8.955       86.279       55.139       34.413     7443.985     3040.260     1184.280        0.892        0.583       78.132       34.689        0.197      353.629       37.179      862.418
07/02/2013  13:59:00      -38.543       10.866       25.592       86.751       35.933       32.560     7525.735     1291.155     1060.121        0.607        0.494       40.045       35.425        0.783      353.838       37.546      862.410
07/02/2013  14:00:00     -122.161      -58.223        3.162      132.345       93.616       51.831    17515.207     8763.921     2686.495        2.364        1.448      135.327       56.726        0.176      353.579       37.088      862.404
07/02/2013  14:01:00     -228.426      -61.824       -8.505       74.257       58.494       41.475     5514.164     3421.526     1720.186        3.336        0.533      236.645       37.436        0.025      353.509       36.963      862.382
07/02/2013  14:02:00     -215.529      -69.667       -2.103      145.124      109.842       48.004    21061.010    12065.212     2304.371        4.336        1.772      226.509       63.036        0.077      353.580       37.087      862.376
07/02/2013  14:03:00     -203.529      -12.295       -3.872       66.945       67.941       33.205     4481.639     4615.975     1102.545        2.589        0.510      203.900       30.937        0.023      353.339       36.666      862.362
07/02/2013  14:04:00     -210.992      -38.929        0.833       95.140       68.436       49.095     9051.577     4683.544     2410.363        3.109        0.807      214.554       47.138        0.048      353.598       37.121      862.343
07/02/2013  14:05:00     -238.097      -11.616      -15.279      103.676       64.951       41.188    10748.663     4218.596     1696.481        3.686        0.833      238.380       37.941        0.025      353.279       36.560      862.333
07/02/2013  14:06:00     -161.252      146.711      -22.005       75.947       57.883       38.847     5767.971     3350.477     1509.114        2.932        0.531      218.005       28.067        0.017      353.140       36.318      862.313
07/02/2013  14:07:00      -85.159       57.286       -3.531       68.372       69.839       40.795     4674.758     4877.442     1664.219        1.088        0.561      102.634       47.728        0.216      353.347       36.683      862.293
07/02/2013  14:08:00      -44.822      -62.034       17.206       65.069       48.563       36.012     4234.021     2358.349     1296.889        0.702        0.394       76.533       38.484        0.253      353.680       37.267      862.266
07/02/2013  14:09:00     -140.803     -134.871        1.695       99.516       79.779       50.166     9903.407     6364.675     2516.587        2.840        0.939      194.976       57.215        0.086      353.354       36.691      862.242
07/02/2013  14:10:00     -171.399     -146.538       -9.390       79.282       68.921       45.763     6285.646     4750.120     2094.266        3.203        0.657      225.502       46.764        0.043      353.335       36.659      862.238
07/02/2013  14:11:00     -139.951      -85.802        4.076       80.523       58.535       41.649     6483.951     3426.383     1734.615        1.930        0.582      164.159       44.086        0.072      353.394       36.763      862.236
07/02/2013  14:12:00     -137.103      -53.367       -1.774       42.962       43.786       29.751     1845.714     1917.235      885.140        1.315        0.232      147.123       26.925        0.033      353.364       36.712      862.228
07/02/2013  14:13:00     -246.349      -61.423       -9.022      111.819       58.337       45.295    12503.547     3403.230     2051.601        4.125        0.898      253.891       44.711        0.031      353.412       36.793      862.205
07/02/2013  14:14:00     -259.904      -18.861      -13.864       97.523       64.327       42.573     9510.698     4137.972     1812.442        4.178        0.773      260.587       45.061        0.030      353.239       36.489      862.197
07/02/2013  14:15:00      -78.220       17.665       -3.036       63.976       30.224       28.562     4092.945      913.493      815.783        0.613        0.291       80.190       34.722        0.187      353.292       36.587      862.194
07/02/2013  14:16:00      -69.845        2.364        1.241       68.242       53.090       33.237     4657.013     2818.556     1104.710        0.673        0.429       69.885       36.834        0.278      353.407       36.787      862.178
07/02/2013  14:17:00      -38.193      -26.600       22.966       55.021       40.067       37.015     3027.328     1605.359     1370.109        0.435        0.300       46.544       39.585        0.723      353.750       37.390      862.178
07/02/2013  14:18:00     -181.443       55.424       -2.154      119.109       95.692       47.515    14186.922     9157.003     2257.629        3.079        1.280      189.720       43.833        0.053      353.465       36.887      862.172
07/02/2013  14:19:00     -126.210      -35.707       18.756      120.879       79.484       42.228    14611.747     6317.724     1783.162        2.013        1.136      131.163       40.266        0.094      353.698       37.299      862.164
07/02/2013  14:20:00     -139.678       26.411        3.620       82.310      134.129       44.718     6774.905    17990.600     1999.664        2.349        1.338      142.153       40.977        0.083      353.554       37.043      862.152
07/02/2013  14:21:00     -156.794      -18.923       -2.093       90.694       64.096       46.138     8225.337     4108.258     2128.693        1.970        0.723      157.931       44.550        0.080      353.654       37.218      862.145
07/02/2013  14:22:00     -107.179        7.372       14.517       76.406       63.143       38.331     5837.894     3987.002     1469.287        1.152        0.565      107.433       42.368        0.156      353.853       37.571      862.154
07/02/2013  14:23:00     -163.024       84.868      -39.410       86.188       70.953       32.016     7428.401     5034.365     1025.001        2.441        0.674      183.792       33.372        0.033      353.367       36.714      862.165
07/02/2013  14:24:00     -165.628      -19.065      -15.915       62.097       96.796       26.453     3856.072     9369.486      699.736        2.098        0.696      166.722       19.771        0.014      353.547       37.032      862.158
07/02/2013  14:25:00     -137.328      -31.370      -10.757       71.364       46.928       26.245     5092.830     2202.256      688.790        1.397        0.399      140.866       13.952        0.010      353.310       36.617      862.153
07/02/2013  14:26:00     -146.970       48.314      -14.427       32.573       45.106       26.443     1061.029     2034.516      699.235        1.397        0.190      154.707       16.416        0.011      353.241       36.499      862.129
07/02/2013  14:27:00      -72.429       69.351      -11.411       38.481       65.952       30.046     1480.818     4349.607      902.789        0.846        0.337      100.277       24.957        0.062      353.490       36.934      862.117
07/02/2013  14:28:00       39.701        9.629        5.621       38.259       47.145       31.211     1463.759     2222.630      974.144        0.318        0.233       40.852       18.510        0.205      353.343       36.676      862.118
07/02/2013  14:29:00       39.120       24.183        1.352       25.950       31.278       19.502      673.427      978.302      380.313        0.207        0.102       45.992       17.094        0.138      353.057       36.175      862.108
07/02/2013  14:30:00       44.126       31.884       24.318       47.692       47.447       38.295     2274.484     2251.241     1466.500        0.477        0.300       54.440       24.815        0.208      353.230       36.478      862.092
07/02/2013  14:31:00      -16.786       -4.735       15.111       53.667       46.763       35.004     2880.136     2186.814     1225.314        0.341        0.315       17.441       37.267        4.565      353.745       37.380      862.084
07/02/2013  14:32:00        4.261       60.348        3.819       55.379       45.574       39.834     3066.816     2077.035     1586.786        0.520        0.337       60.498       31.682        0.274      353.655       37.223      862.074
07/02/2013  14:33:00      -73.193      160.733       -9.472       37.439       86.438       44.398     1401.647     7471.610     1971.148        2.106        0.542      176.613       42.315        0.057      353.495       36.940      862.085
07/02/2013  14:34:00      -89.364      120.409       -4.261       60.735       70.884       40.663     3688.733     5024.522     1653.459        1.643        0.518      149.947       50.332        0.113      353.670       37.248      862.083
07/02/2013  14:35:00      -12.258      153.470       -6.882       41.727      110.163       42.672     1741.181    12135.955     1820.898        1.972        0.785      153.959       52.172        0.115      353.620       37.161      862.064
07/02/2013  14:36:00       -5.628      104.506        5.841       94.920       93.803       49.566     9009.823     8798.944     2456.765        1.562        1.013      104.658       49.350        0.222      353.744       37.378      862.065
07/02/2013  14:37:00      134.488      165.593       -3.619      107.495       76.766       54.149    11555.068     5892.986     2932.066        3.295        1.019      213.326       47.824        0.050      353.522       36.987      862.060
07/02/2013  14:38:00      137.998      166.216       21.695      133.277       90.689       64.524    17762.862     8224.417     4163.368        3.864        1.508      216.035       49.212        0.052      353.404       36.779      862.062
07/02/2013  14:39:00      -59.239      257.718      -48.715       41.709       61.660       20.143     1739.655     3801.995      405.725        3.912        0.297      264.439       13.323        0.003      353.130       36.298      862.068
07/02/2013  14:40:00       46.268       23.811       24.152       51.197       42.208       41.281     2621.103     1781.554     1704.114        0.470        0.305       52.035       21.902        0.177      353.432       36.833      862.038
07/02/2013  14:41:00       54.964      104.873       -7.676       38.607       69.373       39.969     1490.474     4812.651     1597.505        1.099        0.395      118.404       43.653        0.136      353.259       36.529      862.008
07/02/2013  14:42:00       41.572       16.160      -22.888       31.295       51.716       15.527      979.373     2674.592      241.093        0.320        0.195       44.603       22.199        0.248      353.219       36.456      862.010
07/02/2013  14:43:00      -41.273      -95.226        1.574       44.844       60.747       31.857     2010.972     3690.189     1014.863        0.874        0.336      103.786       28.924        0.078      353.369       36.721      861.960
07/02/2013  14:44:00     -106.647      -69.529        9.504       66.173       43.752       38.387     4378.896     1914.276     1473.560        1.203        0.388      127.310       38.381        0.091      353.547       37.034      861.913
07/02/2013  14:45:00      -30.341       22.665       22.404       47.324       37.279       35.406     2239.582     1389.748     1253.598        0.341        0.244       37.871       33.228        0.770      353.643       37.202      861.900
07/02/2013  14:46:00      -44.877        8.025       13.669       46.105       21.549       24.269     2125.654      464.370      589.005        0.272        0.159       45.589       29.524        0.419      353.722       37.341      861.892
07/02/2013  14:47:00     -126.049       66.440      -18.801       76.657       55.272       37.711     5876.340     3054.996     1422.152        1.550        0.518      142.487       41.092        0.083      353.602       37.129      861.875
07/02/2013  14:48:00      -50.413      219.912      -34.914      106.939      124.059       40.330    11435.995    15390.709     1626.500        4.028        1.423      225.616       46.516        0.043      353.698       37.297      861.848
07/02/2013  14:49:00       42.799      186.491        2.398       90.633      137.713       73.935     8214.365    18964.975     5466.379        3.462        1.632      191.339       80.853        0.179      353.742       37.374      861.841
07/02/2013  14:50:00       14.511      212.643       -6.800      108.968      116.116       65.191    11874.050    13482.836     4249.847        3.753        1.480      213.137       74.840        0.123      353.601       37.124      861.823
07/02/2013  14:51:00      -32.751      293.394      -33.697       40.477       44.585       19.436     1638.422     1987.798      377.767        4.615        0.200      295.217       12.605        0.002      353.350       36.682      861.830
07/02/2013  14:52:00      -28.983      143.928      -15.905       76.214       77.280       41.501     5808.559     5972.163     1722.314        1.765        0.675      146.818       34.239        0.054      353.645       37.205      861.821
07/02/2013  14:53:00      -70.978      248.202      -43.127       81.497       79.010       38.048     6641.693     6242.571     1447.626        4.141        0.717      258.152       28.453        0.012      353.496       36.940      861.809
07/02/2013  14:54:00     -152.694      164.650      -37.448      101.805       83.796       46.023    10364.194     7021.801     2118.081        3.566        0.975      224.555       37.268        0.028      353.512       36.970      861.806
07/02/2013  14:55:00     -161.759       82.035      -17.871       47.553       33.050       31.654     2261.253     1092.327     1001.983        1.878        0.218      181.372       21.404        0.014      353.386       36.751      861.779
07/02/2013  14:56:00     -193.734      -46.765        5.220      106.802      116.467       41.717    11406.586    13564.498     1740.332        3.322        1.336      199.298       38.584        0.037      353.745       37.378      861.736
07/02/2013  14:57:00      -70.399      -38.572       11.985       90.160       72.311       50.114     8128.800     5228.951     2511.428        1.123        0.793       80.273       31.480        0.154      353.902       37.657      861.726
07/02/2013  14:58:00        1.116      -29.744       19.018       34.396       35.478       27.689     1183.100     1258.683      766.662        0.223        0.160       29.765       18.573        0.389      353.977       37.789      861.729
07/02/2013  14:59:00      -94.149      -46.556        9.600       46.941       36.702       28.198     2203.431     1347.014      795.133        0.773        0.217      105.031       24.788        0.056      353.749       37.388      861.720
07/02/2013  15:00:00        0.487       24.659       43.558       24.361       44.150       24.624      593.469     1949.186      606.342        0.283        0.157       24.663       19.947        0.654      353.550       37.040      861.699
07/02/2013  15:01:00       15.116       20.207       17.056       34.333       26.765       29.120     1178.729      716.388      847.960        0.183        0.137       25.235       15.252        0.365      353.021       36.112      861.684
07/02/2013  15:02:00      -32.734       54.522      -12.654       32.929       75.335       22.105     1084.324     5675.424      488.610        0.572        0.362       63.593       28.653        0.203      353.566       37.066      861.684
07/02/2013  15:03:00       22.474       59.044       13.770       41.893       63.193       39.727     1755.011     3993.299     1578.210        0.575        0.366       63.177       39.052        0.382      354.106       38.015      861.675
07/02/2013  15:04:00       -0.139      170.423      -13.283       28.825       80.386       39.096      830.859     6461.851     1528.462        1.902        0.441      170.423       49.040        0.083      353.800       37.475      861.645
07/02/2013  15:05:00     -118.755       76.366      -18.427       56.209       41.356       28.595     3159.430     1710.302      817.649        1.298        0.284      141.189       32.593        0.053      353.617       37.155      861.612
07/02/2013  15:06:00      -78.465      104.672       -7.854       48.466       59.464       32.611     2348.944     3535.965     1063.463        1.206        0.347      130.816       23.079        0.031      353.763       37.413      861.596
07/02/2013  15:07:00      -25.761      113.681       -4.883       31.566       43.656       27.093      996.407     1905.813      734.017        0.862        0.182      116.563       26.968        0.054      353.874       37.607      861.589
07/02/2013  15:08:00       34.991       41.842       18.346       41.381       39.168       27.597     1712.393     1534.099      761.593        0.366        0.200       54.545       23.183        0.181      353.830       37.530      861.577
07/02/2013  15:09:00        6.300       27.473       24.436       28.909       22.516       20.868      835.734      506.961      435.485        0.158        0.089       28.186       19.433        0.475      353.485       36.925      861.577
07/02/2013  15:10:00     -112.962      -48.640        8.502       75.091       54.388       29.460     5638.664     2958.040      867.909        1.233        0.473      122.988       36.895        0.090      353.881       37.619      861.566
07/02/2013  15:11:00     -111.582      -23.164      -10.538       59.250       56.706       28.115     3510.596     3215.593      790.463        1.031        0.376      113.961       24.572        0.046      353.954       37.748      861.561
07/02/2013  15:12:00     -282.412      -30.597      -21.546       83.206       68.267       35.239     6923.166     4660.390     1241.766        4.699        0.641      284.064       39.604        0.019      353.711       37.319      861.551
07/02/2013  15:13:00     -221.180     -100.482        4.532      101.820       85.083       52.309    10367.278     7239.171     2736.213        3.969        1.017      242.935       49.494        0.042      353.964       37.763      861.556
07/02/2013  15:14:00     -210.720      -90.702       -0.676       85.917       65.445       45.005     7381.698     4283.034     2025.492        3.316        0.685      229.412       33.931        0.022      353.605       37.132      861.564
07/02/2013  15:15:00      -94.867       78.923      -15.062       46.490       62.461       34.275     2161.338     3901.324     1174.810        1.135        0.362      123.404       28.045        0.052      353.828       37.525      861.582
07/02/2013  15:16:00     -112.449       67.706       -5.955       83.287       43.409       48.911     6936.710     1884.327     2392.269        1.424        0.561      131.259       54.361        0.172      353.544       37.028      861.602
07/02/2013  15:17:00      -37.636      107.201        2.269       47.942       72.533       37.676     2298.436     5261.067     1419.447        1.094        0.449      113.615       40.493        0.127      353.739       37.370      861.590
07/02/2013  15:18:00       -6.082       41.868        7.278       29.172       40.700       30.164      850.997     1656.510      909.866        0.263        0.171       42.308       20.863        0.243      353.864       37.591      861.577
07/02/2013  15:19:00      -20.826       83.592       -0.128       58.087       38.945       30.311     3374.050     1516.699      918.759        0.661        0.290       86.147       25.902        0.090      353.785       37.451      861.560
07/02/2013  15:20:00     -101.547       68.391      -16.261       73.856       61.617       31.126     5454.645     3796.706      968.801        1.273        0.511      122.430       34.844        0.081      353.744       37.381      861.539
07/02/2013  15:21:00      -86.181       51.337      -22.907       71.096       42.743       32.668     5054.618     1826.979     1067.212        0.927        0.397      100.312       19.745        0.039      353.816       37.507      861.525
07/02/2013  15:22:00     -132.704       35.757        5.316      133.525       56.602       39.364    17828.850     3203.842     1549.553        2.075        1.129      137.437       56.543        0.169      353.713       37.323      861.498
07/02/2013  15:23:00     -139.381      104.391      -10.522       69.439       95.968       47.097     4821.759     9209.913     2218.093        2.334        0.812      174.139       36.328        0.044      353.681       37.268      861.478
07/02/2013  15:24:00     -118.966      112.867      -10.714       48.883       62.224       41.931     2389.552     3871.818     1758.222        1.751        0.401      163.988       28.925        0.031      353.632       37.182      861.460
07/02/2013  15:25:00      -93.555       42.743       -4.969       60.220       40.462       29.947     3626.429     1637.214      896.812        0.838        0.308      102.856       29.031        0.080      353.673       37.254      861.432
07/02/2013  15:26:00     -133.814      -41.121        0.508       72.229       52.766       31.506     5217.043     2784.262      992.618        1.429        0.450      139.990       31.491        0.051      353.738       37.370      861.404
07/02/2013  15:27:00     -146.537      -71.728        3.119       80.642       68.023       39.614     6503.173     4627.075     1569.293        1.966        0.635      163.151       42.505        0.068      353.743       37.377      861.398
07/02/2013  15:28:00     -197.471      -56.267       -9.810       83.972       83.907       41.112     7051.261     7040.402     1690.204        2.902        0.789      205.331       25.827        0.016      353.700       37.301      861.378
07/02/2013  15:29:00     -164.058        0.270      -13.992       56.560       58.165       31.922     3199.002     3383.209     1018.992        1.735        0.380      164.058       28.029        0.029      353.328       36.649      861.378
07/02/2013  15:30:00      -75.793        7.515       -7.516       49.011       34.562       24.828     2402.058     1194.556      616.429        0.503        0.211       76.165       24.147        0.101      353.656       37.226      861.373
07/02/2013  15:31:00       14.729       10.461       22.658       26.214       12.397       19.006      687.200      153.675      361.214        0.102        0.060       18.066       19.529        1.168      353.768       37.423      861.354
07/02/2013  15:32:00       -7.286       25.203       43.419       20.753       19.118       14.023      430.686      365.503      196.651        0.178        0.050       26.235       10.957        0.174      353.102       36.254      861.351
07/02/2013  15:33:00      -78.557      -89.217      -10.527       69.220       71.725       32.358     4791.445     5144.412     1047.063        1.261        0.549      118.874       39.889        0.113      353.333       36.658      861.354
07/02/2013  15:34:00     -106.823      -83.949        7.970       94.486       56.723       43.018     8927.578     3217.457     1850.587        1.626        0.700      135.862       45.302        0.111      353.491       36.933      861.348
07/02/2013  15:35:00       54.478      -90.290       15.861       68.069       91.725       68.522     4633.402     8413.541     4695.290        1.455        0.887      105.452       55.596        0.278      353.379       36.738      861.326
07/02/2013  15:36:00       34.614      -70.719       33.467       90.330      158.520      102.441     8159.572    25128.558    10494.164        2.554        2.189       78.736      119.262        2.294      353.347       36.680      861.297
07/02/2013  15:37:00     -157.051     -111.581       -4.118      104.969       81.438       49.172    11018.452     6632.146     2417.846        2.860        1.003      192.654       48.489        0.063      353.559       37.054      861.343
07/02/2013  15:38:00     -322.555      -19.699      -12.541      128.712      102.376       52.840    16566.745    10480.887     2792.108        6.721        1.492      323.156       65.635        0.041      353.510       36.965      861.344
07/02/2013  15:39:00     -217.214     -124.435       13.626      129.744       91.066       55.689    16833.597     8293.051     3101.230        4.553        1.411      250.332       53.814        0.046      353.488       36.928      861.365
07/02/2013  15:40:00     -117.915       -2.195        2.497       64.882       44.445       32.815     4209.662     1975.323     1076.830        1.059        0.363      117.935       25.143        0.045      353.547       37.035      861.380
07/02/2013  15:41:00      -31.410      -42.334       21.575       45.722       26.727       24.616     2090.480      714.341      605.967        0.333        0.171       52.714       26.229        0.248      353.603       37.131      861.360
07/02/2013  15:42:00     -126.588     -104.983       -0.698       70.873       59.818       32.126     5023.027     3578.191     1032.106        1.834        0.482      164.456       31.779        0.037      353.445       36.853      861.351
07/02/2013  15:43:00     -219.694     -129.226       -1.473      102.048       85.386       52.433    10413.895     7290.774     2749.272        4.271        1.023      254.882       59.872        0.055      353.435       36.833      861.342
07/02/2013  15:44:00      -33.617      -54.265        6.484       58.131       29.983       19.469     3379.204      898.958      379.052        0.439        0.233       63.834       26.630        0.174      353.452       36.867      861.327
07/02/2013  15:45:00      -17.786      -10.764       15.625       21.306       24.828       20.867      453.936      616.440      435.416        0.109        0.075       20.790       18.370        0.781      353.214       36.450      861.281
07/02/2013  15:46:00      -13.342       11.767       13.944       21.509       24.028       21.285      462.658      577.354      453.041        0.100        0.075       17.789       17.710        0.991      353.157       36.349      861.262
07/02/2013  15:47:00      -61.541      -33.605        6.774       60.643       39.765       21.821     3677.529     1581.229      476.175        0.535        0.287       70.119       21.437        0.093      353.221       36.462      861.247
07/02/2013  15:48:00     -115.774       -9.628        3.726       78.319       63.756       30.254     6133.944     4064.859      915.294        1.231        0.556      116.173       27.316        0.055      353.213       36.447      861.226
07/02/2013  15:49:00     -106.890      -22.525        1.691       60.328       35.693       21.064     3639.525     1273.960      443.710        0.865        0.268      109.237       25.077        0.053      353.441       36.846      861.199
07/02/2013  15:50:00      -94.952      -17.130        7.416       69.327       42.903       30.639     4806.285     1840.637      938.724        0.847        0.379       96.484       39.182        0.165      353.546       37.031      861.190
07/02/2013  15:51:00     -191.428      -94.986        4.922      101.527       70.824       46.822    10307.691     5016.091     2192.328        3.160        0.876      213.698       39.298        0.034      353.461       36.881      861.176
07/02/2013  15:52:00     -190.646      -17.326       -4.477       70.187       58.762       31.351     4926.160     3452.918      982.912        2.301        0.468      191.431       37.934        0.039      353.428       36.824      861.160
07/02/2013  15:53:00       -2.878      -43.931        4.825       84.658       60.231       26.643     7166.932     3627.722      709.855        0.673        0.575       44.025       14.297        0.105      353.128       36.300      861.145
07/02/2013  15:54:00     -123.764     -171.315        2.823      112.831       89.095       51.104    12730.845     7937.957     2611.609        3.397        1.164      211.345       45.831        0.047      353.388       36.749      861.133
07/02/2013  15:55:00      -10.715      -66.325        7.621       74.927       48.172       28.631     5613.988     2320.551      819.741        0.666        0.438       67.185       24.578        0.134      353.361       36.707      861.131
07/02/2013  15:56:00      -60.372     -122.561      -13.376       58.001       73.088       39.133     3364.116     5341.872     1531.361        1.454        0.512      136.623       27.521        0.041      353.116       36.278      861.116
07/02/2013  15:57:00       41.439      -92.780       -5.054      117.451      114.698       63.301    13794.742    13155.631     4007.016        2.065        1.548      101.613       71.863        0.500      352.965       36.013      861.071
07/02/2013  15:58:00        0.038      -48.788       29.867       55.410       77.907       69.162     3070.248     6069.524     4783.409        0.859        0.696       48.788       58.326        1.429      353.129       36.301      861.002
07/02/2013  15:59:00      -49.873     -230.925        0.727      195.688      161.052       82.934    38293.884    25937.607     6878.042        6.345        3.555      236.249       68.430        0.084      353.112       36.267      861.025
07/02/2013  16:00:00     -408.824     -269.225       -5.735      270.651      151.897       95.718    73252.041    23072.632     9162.022       17.255        5.274      489.509       96.106        0.039      353.100       36.244      861.031
07/02/2013  16:01:00     -542.603     -435.288      -21.403      305.419      262.680      148.301    93280.701    69000.873    21993.333       33.428        9.214      695.625      166.591        0.057      352.842       35.793      861.099
07/02/2013  16:02:00     -477.544     -271.676       -0.952      210.635      205.033       91.472    44366.941    42038.559     8367.124       19.830        4.739      549.414       96.879        0.031      352.732       35.601      861.243
07/02/2013  16:03:00     -426.735     -227.390       -8.229      218.254      151.325       88.277    47635.013    22899.217     7792.823       15.609        3.916      483.538      104.003        0.046      352.705       35.554      861.317
07/02/2013  16:04:00     -362.264     -119.841       13.181      251.157      189.665      105.225    63079.591    35972.947    11072.350       12.793        5.506      381.572      105.157        0.076      352.563       35.306      861.354
07/02/2013  16:05:00     -462.435     -157.543        1.455      236.963      179.810       98.558    56151.531    32331.799     9713.637       16.841        4.910      488.534      113.636        0.054      352.475       35.152      861.416
07/02/2013  16:06:00     -391.558     -203.591       -2.762      257.178      235.961      139.291    66140.428    55677.374    19401.941       16.797        7.061      441.324      144.423        0.107      352.401       35.023      861.456
07/02/2013  16:07:00     -495.606     -266.266       -8.112      252.685      229.406      114.171    63849.595    52627.105    13035.115       22.302        6.476      562.604      124.983        0.049      352.206       34.681      861.606
07/02/2013  16:08:00     -759.268     -468.238      -17.170      441.936      408.205      162.543   195307.207   166631.612    26420.334       59.212       19.418      892.039      195.829        0.048      351.283       33.071      861.635
07/02/2013  16:09:00     -477.474     -345.616        6.954      340.748      298.409      160.529   116108.943    89047.822    25769.617       28.916       11.546      589.433      188.130        0.102      351.224       32.967      861.689
07/02/2013  16:10:00     -871.965     -448.929      -20.981      386.955      353.289      168.407   149733.887   124813.128    28360.766       63.254       15.145      980.745      194.833        0.039      351.097       32.747      861.672
07/02/2013  16:11:00     -777.290     -518.309      -40.398      304.817      252.199      145.720    92913.169    63604.179    21234.248       52.607        8.888      934.250      159.537        0.029      350.883       32.373      861.738
07/02/2013  16:12:00     -681.864     -481.705       -0.986      384.769      317.659      169.222   148047.197   100907.517    28636.090       48.723       13.880      834.852      212.169        0.065      350.722       32.092      861.805
07/02/2013  16:13:00     -808.792     -517.445      -19.268      408.390      317.151      154.454   166782.017   100584.804    23855.887       60.669       14.561      960.154      177.621        0.034      350.477       31.667      861.815
07/02/2013  16:14:00     -834.905     -537.259      -16.474      404.430      347.986      188.882   163563.257   121093.951    35676.283       65.309       16.017      992.832      204.193        0.042      350.268       31.303      861.895
07/02/2013  16:15:00     -823.212     -529.632      -17.168      423.911      321.341      167.165   179700.336   103259.738    27944.216       63.463       15.545      978.871      208.681        0.045      350.134       31.071      862.026
07/02/2013  16:16:00     -673.256     -436.335      -42.372      393.334      326.274      158.317   154711.629   106454.755    25064.256       46.579       14.312      802.285      178.333        0.049      350.045       30.916      862.044
07/02/2013  16:17:00     -870.082     -474.234      -39.196      337.912      282.534      135.929   114184.678    79825.717    18476.778       59.794       10.624      990.930      152.783        0.024      349.919       30.697      862.073
07/02/2013  16:18:00     -611.179     -437.192      -26.893      377.430      323.552      151.961   142453.065   104685.637    23092.123       41.776       13.512      751.450      183.608        0.060      349.876       30.622      862.160
07/02/2013  16:19:00     -632.041     -384.327       -7.361      344.228      316.138      148.735   118492.880    99942.973    22122.042       39.385       12.028      739.718      179.845        0.059      349.771       30.438      862.224
07/02/2013  16:20:00     -495.235     -285.803      -17.145      273.450      288.226      133.338    74774.854    83074.071    17779.047       25.140        8.781      571.788      143.895        0.063      349.706       30.327      862.333
07/02/2013  16:21:00     -371.842     -111.084       -1.728      214.638      172.335       96.848    46069.543    29699.206     9379.439       11.786        4.257      388.080      113.777        0.086      349.632       30.198      862.469
07/02/2013  16:22:00     -337.919     -194.869        5.230      234.341      221.680      101.603    54915.749    49141.871    10323.191       13.326        5.719      390.081      109.864        0.079      349.548       30.053      862.568
07/02/2013  16:23:00     -490.707     -184.856      -21.748      263.915      207.761      117.910    69651.208    43164.625    13902.799       20.105        6.336      524.371      132.005        0.063      349.498       29.966      862.743
07/02/2013  16:24:00     -519.738     -250.261      -11.580      349.343      277.158      122.923   122040.640    76816.763    15110.029       27.339       10.698      576.852      157.692        0.075      349.267       29.566      862.905
07/02/2013  16:25:00     -416.590     -258.182        6.724      328.583      239.950      113.724   107966.966    57576.065    12933.236       20.933        8.924      490.108      131.901        0.072      349.102       29.279      863.035
07/02/2013  16:26:00     -367.243     -185.036       -6.891      212.626      178.265       91.692    45209.778    31778.450     8407.402       12.726        4.270      411.224      122.766        0.089      348.928       28.980      863.222
07/02/2013  16:27:00     -389.981     -332.171       -7.926      274.983      202.593      114.924    75615.749    41044.033    13207.590       19.615        6.493      512.272      137.226        0.072      348.586       28.386      863.353
07/02/2013  16:28:00     -393.983     -242.850       -0.479      244.230      186.204      113.880    59648.297    34671.831    12968.557       16.072        5.364      462.816      120.123        0.067      348.433       28.120      863.492
07/02/2013  16:29:00     -377.773     -137.572      -11.523      181.135      155.869       89.472    32809.767    24295.062     8005.150       11.343        3.255      402.043       85.124        0.045      348.482       28.206      863.690
07/02/2013  16:30:00     -288.132     -200.021        2.215      222.767      201.405      103.828    49625.004    40564.123    10780.179       11.198        5.048      350.754      118.421        0.114      348.251       27.806      863.880
07/02/2013  16:31:00     -545.187     -305.803       -4.898      220.690      194.381      110.163    48704.151    37784.070    12135.966       24.468        4.931      625.095      116.187        0.035      348.084       27.518      864.057
07/02/2013  16:32:00     -302.200     -215.055       16.093      237.869      191.436      110.841    56581.580    36647.880    12285.635       12.165        5.276      370.909      134.840        0.132      348.064       27.482      864.264
07/02/2013  16:33:00     -298.547     -186.093       19.560      208.287      184.100       92.381    43383.359    33892.641     8534.274       10.496        4.291      351.796      112.914        0.103      347.938       27.267      864.309
07/02/2013  16:34:00     -405.453     -170.440      -16.682      263.823      174.884      101.256    69602.412    30584.445    10252.771       15.206        5.522      439.820      132.143        0.090      347.829       27.080      864.380
07/02/2013  16:35:00     -395.407     -194.305        4.634      187.964      183.791       92.303    35330.539    33779.291     8519.910       13.586        3.881      440.569       91.982        0.044      347.608       26.697      864.417
07/02/2013  16:36:00     -202.539     -101.072       -0.114      104.145      146.006       55.070    10846.208    21317.879     3032.687        4.321        1.760      226.357       45.552        0.040      347.675       26.813      864.488
07/02/2013  16:37:00     -505.103        9.962      -34.531      125.666      116.789       58.883    15792.051    13639.694     3467.162       14.465        1.645      505.201       54.617        0.012      347.344       26.242      864.558
07/02/2013  16:38:00     -277.391      -93.437        4.493      138.643      108.055       66.959    19221.929    11675.968     4483.506        6.053        1.769      292.705       74.425        0.065      347.532       26.564      864.648
07/02/2013  16:39:00     -394.419        0.925      -26.779      172.973      105.029       78.002    29919.729    11031.193     6084.268       10.165        2.352      394.420       88.582        0.050      347.531       26.563      864.722
07/02/2013  16:40:00     -275.822     -108.401      -35.397      127.518      104.429       62.515    16260.733    10905.481     3908.143        6.007        1.554      296.359       54.623        0.034      347.635       26.742      864.736
07/02/2013  16:41:00     -253.374      -41.627      -10.544      137.499      136.940       59.943    18906.093    18752.690     3593.180        5.364        2.063      256.771       61.462        0.057      347.638       26.749      864.755
07/02/2013  16:42:00     -377.068      -53.962      -18.579      171.754      128.244       68.398    29499.520    16446.567     4678.238        9.802        2.531      380.910       75.255        0.039      347.554       26.603      864.757
07/02/2013  16:43:00     -398.847       14.472      -38.694      109.956      122.127       44.175    12090.284    14915.049     1951.456        9.487        1.448      399.110       33.410        0.007      347.564       26.621      864.706
07/02/2013  16:44:00     -207.423       53.735      -10.216       65.975      116.363       52.392     4352.722    13540.355     2744.909        3.332        1.032      214.271       35.388        0.027      347.723       26.894      864.736
07/02/2013  16:45:00     -273.207     -107.387       -6.260      202.688      136.795       57.535    41082.427    18712.850     3310.316        7.465        3.155      293.554       70.665        0.058      347.774       26.984      864.770
07/02/2013  16:46:00     -255.618     -107.132       -9.268      130.749       97.800       59.319    17095.281     9564.932     3518.762        5.354        1.509      277.161       59.239        0.046      347.722       26.892      864.752
07/02/2013  16:47:00     -148.893      -58.585       -2.522      119.633       99.309       53.948    14311.964     9862.199     2910.374        2.634        1.354      160.004       54.688        0.117      347.885       27.177      864.742
07/02/2013  16:48:00     -275.718       20.659      -12.381      131.793       94.259       54.410    17369.301     8884.767     2960.412        5.290        1.461      276.491       61.723        0.050      347.875       27.158      864.746
07/02/2013  16:49:00     -189.172      -15.319      -20.418       96.069      136.019       64.214     9229.207    18501.172     4123.427        3.414        1.593      189.791       42.422        0.050      347.976       27.331      864.729
07/02/2013  16:50:00     -210.432      -23.091      -17.347      107.043      101.082       60.541    11458.147    10217.579     3665.271        3.522        1.267      211.695       47.475        0.050      347.974       27.329      864.699
07/02/2013  16:51:00     -154.772      -67.253       14.758      134.196       92.219       58.029    18008.437     8504.367     3367.420        2.928        1.494      168.752       64.707        0.147      348.032       27.432      864.717
07/02/2013  16:52:00     -261.068      -88.652       -4.386      116.041       92.096       52.448    13465.534     8481.594     2750.777        5.036        1.235      275.709       59.609        0.047      347.958       27.300      864.773
07/02/2013  16:53:00     -263.489      -44.154       -7.561      137.597       97.944       51.109    18932.945     9593.063     2612.172        5.128        1.557      267.163       63.794        0.057      347.913       27.223      864.826
07/02/2013  16:54:00     -434.468      -17.846      -48.707      136.013      112.309       57.299    18499.458    12613.301     3283.202       11.292        1.720      434.834       51.325        0.014      348.027       27.420      864.851
07/02/2013  16:55:00     -166.196       23.037      -17.369      116.521       64.911       46.976    13577.032     4213.465     2206.713        2.422        1.000      167.785       26.153        0.024      347.883       27.172      864.826
07/02/2013  16:56:00     -280.898      -19.894      -23.347      139.709      186.047       72.419    19518.743    34613.481     5244.489        6.960        2.969      281.601       74.517        0.070      347.791       27.013      864.872
07/02/2013  16:57:00     -229.888      -80.237       -8.165      184.785       92.728       63.990    34145.585     8598.432     4094.694        5.309        2.342      243.488       82.234        0.114      347.556       26.608      864.897
07/02/2013  16:58:00     -180.850       72.947      -21.611      177.232      107.988       73.177    31411.006    11661.301     5354.926        4.345        2.421      195.008       78.677        0.163      347.557       26.612      864.875
07/02/2013  16:59:00     -228.163       92.949      -12.769      113.173      136.505       90.221    12808.231    18633.503     8139.768        5.021        1.979      246.369       60.476        0.060      347.964       27.311      864.911
07/02/2013  17:00:00     -232.239      171.938      -22.050      158.783      117.710       80.519    25212.031    13855.714     6483.293        6.476        2.278      288.959       82.546        0.082      348.504       28.246      864.945
07/02/2013  17:01:00     -303.404      163.046      -53.760      143.525      133.494       74.342    20599.471    17820.692     5526.682        8.273        2.197      344.438       68.501        0.040      348.458       28.165      864.986
07/02/2013  17:02:00     -266.595       72.977      -40.484      174.605      155.484       68.804    30487.027    24175.237     4733.930        6.870        2.970      276.403       78.187        0.080      348.170       27.667      865.042
07/02/2013  17:03:00     -416.749     -112.781      -24.168      171.219      126.293       82.343    29315.957    15949.909     6780.451       11.950        2.602      431.740       74.894        0.030      348.069       27.491      865.032
07/02/2013  17:04:00     -372.355     -111.446      -43.873      189.218      131.447       78.900    35803.310    17278.274     6225.274       10.614        2.965      388.675       93.050        0.057      348.055       27.470      865.120
07/02/2013  17:05:00     -393.085     -103.391      -15.077      130.891      146.938       63.380    17132.579    21590.746     4017.019       10.408        2.137      406.455       62.026        0.023      348.309       27.909      865.125
07/02/2013  17:06:00     -393.985       55.597      -54.434      132.498      153.769       68.165    17555.756    23644.983     4646.499       10.355        2.292      397.889       74.802        0.035      348.623       28.449      865.165
07/02/2013  17:07:00     -311.063      139.329      -41.355      159.652      101.292       68.131    25488.669    10260.075     4641.873        7.913        2.020      340.842       73.676        0.047      348.460       28.168      865.182
07/02/2013  17:08:00     -122.343      155.791        3.020      120.522      118.600       66.506    14525.480    14066.003     4423.018        3.612        1.651      198.088       69.990        0.125      348.151       27.635      865.195
07/02/2013  17:09:00      -99.846       -3.736        8.011      121.677      102.925       55.641    14805.313    10593.503     3095.888        1.927        1.425       99.915       60.782        0.370      347.961       27.308      865.204
07/02/2013  17:10:00     -177.996      126.870      -23.279       84.489      108.794       59.902     7138.452    11836.222     3588.287        3.544        1.128      218.583       54.895        0.063      347.873       27.155      865.228
07/02/2013  17:11:00     -302.610      100.734      -28.080      203.205      205.145      123.310    41292.347    42084.281    15205.245       10.053        4.929      318.936       88.985        0.078      347.442       26.412      865.284
07/02/2013  17:12:00     -282.760       61.396      -44.449      168.356      196.659      110.428    28343.842    38674.690    12194.266        8.244        3.961      289.349       90.047        0.097      347.595       26.674      865.313
07/02/2013  17:13:00     -254.716      131.976      -53.973      137.733      193.224       89.869    18970.482    37335.474     8076.483        7.478        3.219      286.876       85.858        0.090      347.833       27.085      865.347
07/02/2013  17:14:00     -343.269      125.895      -40.424      177.422      111.929       79.954    31478.719    12528.206     6392.651        9.285        2.520      365.627       37.833        0.011      347.706       26.866      865.358
07/02/2013  17:15:00     -400.437      181.226      -71.788      172.138      140.305       88.048    29631.656    19685.514     7752.519       12.770        2.853      439.537       72.448        0.027      347.515       26.537      865.377
07/02/2013  17:16:00     -320.618      111.643      -35.533      186.920      139.324       92.834    34939.261    19411.211     8618.203        8.973        3.148      339.500      105.916        0.097      347.284       26.138      865.385
07/02/2013  17:17:00     -180.390      103.698      -40.102      102.630       79.666       64.601    10532.862     6346.640     4173.251        3.297        1.053      208.072       59.179        0.081      347.448       26.422      865.390
07/02/2013  17:18:00     -209.811      145.874      -23.353      176.445      134.586       85.133    31132.767    18113.295     7247.577        6.116        2.825      255.538       85.424        0.112      347.978       27.337      865.347
07/02/2013  17:19:00     -278.379      451.153      -41.296      147.149      181.730       89.920    21652.781    33025.946     8085.646       17.274        3.138      530.126       89.335        0.028      348.267       27.835      865.243
07/02/2013  17:20:00     -400.731      294.223      -49.670      216.524      172.166      103.392    46882.602    29641.022    10689.878       16.840        4.361      497.144       99.882        0.040      348.304       27.899      865.256
07/02/2013  17:21:00     -281.351      288.233      -46.102      167.975      195.105      105.267    28215.568    38066.020    11081.079       12.085        3.868      402.786      105.845        0.069      347.921       27.236      865.223
07/02/2013  17:22:00     -262.456      236.568      -24.211      168.962      181.900       84.488    28548.309    33087.649     7138.160        9.709        3.439      353.337       74.112        0.044      347.940       27.269      865.160
07/02/2013  17:23:00     -372.430      127.374      -50.813      149.390      187.060      100.829    22317.242    34991.283    10166.543       11.248        3.374      393.609       90.773        0.053      348.181       27.686      865.104
07/02/2013  17:24:00     -204.577      -61.020      -13.965      148.669      124.224       71.023    22102.468    15431.683     5044.269        4.417        2.129      213.484       66.002        0.096      347.909       27.218      865.048
07/02/2013  17:25:00     -232.020       58.583      -10.505      167.402      155.662       80.895    28023.424    24230.585     6543.958        5.808        2.940      239.302       63.203        0.070      347.982       27.343      865.081
07/02/2013  17:26:00     -293.225      -50.981       -7.970      217.788      198.493      102.111    47431.715    39399.651    10426.692        9.293        4.863      297.624       97.319        0.107      348.123       27.587      865.186
07/02/2013  17:27:00     -206.955       63.188        4.988      234.595      152.283      100.449    55034.607    23190.263    10090.019        6.756        4.416      216.387      117.864        0.297      348.170       27.668      865.338
07/02/2013  17:28:00     -252.429       12.805      -30.016      144.128      131.217       81.423    20773.015    17218.008     6629.730        5.469        2.231      252.753       64.712        0.066      348.197       27.713      865.367
07/02/2013  17:29:00     -230.078      -24.813      -24.057      131.466      140.179       71.208    17283.310    19650.177     5070.636        4.806        2.100      231.412       58.230        0.063      347.863       27.137      865.408
07/02/2013  17:30:00     -281.081       48.841      -30.937      199.547      151.816       87.570    39818.975    23048.089     7668.557        7.643        3.527      285.293       95.736        0.113      347.722       26.895      865.434
07/02/2013  17:31:00     -351.899      148.080      -66.277      180.046      155.864       86.346    32416.566    24293.552     7455.561       10.715        3.208      381.786       83.571        0.048      347.597       26.678      865.484
07/02/2013  17:32:00     -267.390      -94.282      -35.644      194.433      118.479       75.964    37804.374    14037.166     5770.596        6.962        2.881      283.525       53.791        0.036      347.254       26.086      865.492
07/02/2013  17:33:00     -156.564       56.319        1.886      156.969      103.933       80.398    24639.240    10802.047     6463.807        3.479        2.095      166.386       92.753        0.311      347.386       26.315      865.585
07/02/2013  17:34:00     -157.358      111.979      -21.288      120.300      143.892       71.321    14472.150    20704.933     5086.630        3.900        2.013      193.134       64.760        0.112      347.660       26.789      865.635
07/02/2013  17:35:00     -199.942      210.656      -34.933       94.836      108.337       55.579     8993.951    11736.946     3089.055        5.469        1.191      290.435       49.851        0.029      347.607       26.695      865.678
07/02/2013  17:36:00     -271.746      -38.335      -28.178      108.075      130.062       61.012    11680.203    16916.243     3722.502        5.421        1.616      274.437       61.365        0.050      347.298       26.162      865.716
07/02/2013  17:37:00     -176.933       56.017      -23.465       90.170      108.812       51.427     8130.619    11840.024     2644.771        2.880        1.131      185.589       53.162        0.082      347.039       25.718      865.723
07/02/2013  17:38:00     -166.555       71.887      -23.373      107.160      106.813       64.077    11483.299    11409.044     4105.855        3.022        1.350      181.407       63.135        0.121      347.121       25.858      865.724
07/02/2013  17:39:00     -151.643      -28.676       -5.495      145.174      103.569       69.113    21075.480    10726.445     4776.580        3.021        1.829      154.331       81.398        0.278      346.911       25.497      865.768
07/02/2013  17:40:00     -110.351     -118.256       15.418      186.839       93.454       60.278    34908.743     8733.589     3633.425        3.683        2.364      161.746       62.995        0.152      346.664       25.072      865.859
07/02/2013  17:41:00      -86.612     -233.938        8.577      129.478      110.917       56.804    16764.532    12302.583     3226.745        4.729        1.615      249.457       53.843        0.047      346.719       25.165      865.904
07/02/2013  17:42:00      -11.203     -153.727      -25.147       73.217       72.942       44.221     5360.740     5320.540     1955.508        1.851        0.632      154.135       26.028        0.029      346.994       25.641      865.876
07/02/2013  17:43:00     -108.705        5.136        5.166       68.537       57.583       43.879     4697.366     3315.858     1925.382        1.090        0.497      108.826       37.945        0.122      346.944       25.556      865.900
07/02/2013  17:44:00     -217.047      -72.793      -15.730       74.047      101.845       43.211     5482.974    10372.426     1867.225        3.519        0.886      228.928       29.341        0.016      346.914       25.501      865.990
07/02/2013  17:45:00     -314.431     -173.963      -13.691       99.336       79.605       53.731     9867.598     6336.914     2886.979        7.420        0.955      359.347       39.477        0.012      347.038       25.714      865.977
07/02/2013  17:46:00     -238.368      -82.637       -8.958      124.032       77.880       51.669    15384.010     6065.238     2669.665        4.392        1.206      252.286       51.811        0.042      347.050       25.735      865.942
07/02/2013  17:47:00     -400.764     -108.983      -12.161      159.662      176.308       83.446    25492.047    31084.357     6963.264       11.808        3.177      415.318       83.446        0.040      347.284       26.138      865.913
07/02/2013  17:48:00     -343.261     -108.722      -14.430      170.014      165.180       79.455    28904.924    27284.333     6313.022        9.617        3.125      360.067       69.784        0.038      347.265       26.106      865.934
07/02/2013  17:49:00     -544.782     -131.010      -52.487      174.426      194.710       79.885    30424.274    37912.150     6381.535       19.570        3.736      560.314       84.334        0.023      347.386       26.314      865.879
07/02/2013  17:50:00     -461.443     -119.212      -14.503      174.580      198.584       88.216    30478.161    39435.722     7782.071       15.251        3.885      476.593       77.250        0.026      347.313       26.186      865.904
07/02/2013  17:51:00     -426.272      -43.704      -14.499      233.467      141.044       89.587    54506.840    19893.461     8025.871       13.311        4.121      428.506      116.338        0.074      347.344       26.241      865.931
07/02/2013  17:52:00     -189.465      -35.065       -9.973      172.719      106.791       66.979    29831.912    11404.256     4486.126        4.147        2.286      192.682       70.690        0.135      347.291       26.151      865.905
07/02/2013  17:53:00     -129.619      -47.980        7.996       99.854       91.955       52.005     9970.872     8455.680     2704.490        2.014        1.057      138.214       49.928        0.130      347.251       26.082      865.939
07/02/2013  17:54:00     -164.135      -44.910       -6.351      108.576       84.138       45.379    11788.716     7079.132     2059.249        2.496        1.046      170.168       48.284        0.081      347.315       26.191      865.943
07/02/2013  17:55:00     -265.942      -86.523      -11.258      144.925      120.680       61.033    21003.167    14563.543     3725.084        5.881        1.965      279.663       70.095        0.063      347.476       26.468      865.932
07/02/2013  17:56:00     -256.853       10.575      -13.620      120.636      103.427       57.927    14553.065    10697.074     3355.568        4.743        1.430      257.070       50.815        0.039      347.459       26.440      865.923
07/02/2013  17:57:00     -389.015      -53.071      -17.631      147.277      156.304       70.067    21690.548    24430.919     4909.432       10.274        2.552      392.619       70.097        0.032      347.792       27.013      865.911
07/02/2013  17:58:00     -267.601      -45.574        4.355      158.609      130.672       79.759    25156.741    17075.193     6361.503        6.114        2.430      271.454       84.028        0.096      347.884       27.174      865.929
07/02/2013  17:59:00     -481.151      -25.032      -49.592      162.193      167.487       84.993    26306.498    28051.862     7223.894       14.808        3.079      481.802       91.919        0.036      347.714       26.881      865.983
07/02/2013  18:00:00     -243.782      -28.374      -10.021      170.925      118.945       85.129    29215.237    14148.026     7247.010        5.546        2.531      245.428       90.305        0.135      347.623       26.723      865.973
07/02/2013  18:01:00     -271.795      -12.507      -18.983      172.704      113.638       67.916    29826.697    12913.674     4612.530        6.086        2.368      272.082       69.836        0.066      347.623       26.725      865.925
07/02/2013  18:02:00     -333.903      -83.158      -23.931      138.234      133.514       62.441    19108.547    17826.047     3898.876        7.990        2.042      344.103       44.995        0.017      347.578       26.645      865.934
07/02/2013  18:03:00     -217.640      -69.612      -13.643      145.895      101.905       65.250    21285.309    10384.693     4257.520        4.416        1.796      228.502       53.807        0.055      347.556       26.609      865.906
07/02/2013  18:04:00     -316.573     -106.678       -6.371      190.512      139.363       79.711    36294.981    19422.023     6353.812        8.684        3.104      334.063       94.461        0.080      347.486       26.486      865.909
07/02/2013  18:05:00     -377.239      -65.735      -21.504      182.836      137.034       75.311    33429.144    18778.327     5671.773       10.247        2.894      382.923       87.943        0.053      347.483       26.481      865.906
07/02/2013  18:06:00     -285.199     -103.917      -25.763      138.590      142.459       59.283    19207.190    20294.473     3514.434        6.790        2.151      303.541       51.486        0.029      347.471       26.461      865.905
07/02/2013  18:07:00     -171.987       19.323      -20.495      118.571      126.252       53.816    14059.013    15939.443     2896.151        3.163        1.645      173.069       46.001        0.071      347.499       26.509      865.899
07/02/2013  18:08:00     -190.911       14.437      -46.088       93.732      117.152       50.168     8785.676    13724.639     2516.809        3.190        1.251      191.456       15.556        0.007      347.583       26.654      865.876
07/02/2013  18:09:00     -229.243        8.944      -37.047       84.485       81.589       45.850     7137.747     6656.762     2102.203        3.495        0.795      229.418       21.855        0.009      347.681       26.821      865.858
07/02/2013  18:10:00     -251.625      -58.296      -19.653      144.326      152.502       76.658    20829.866    23256.989     5876.406        5.852        2.498      258.289       62.315        0.058      347.825       27.073      865.864
07/02/2013  18:11:00     -302.919      -93.859      -29.018      140.254      141.308       63.266    19671.263    19967.988     4002.560        7.252        2.182      317.127       59.404        0.035      347.830       27.079      865.857
07/02/2013  18:12:00     -325.939     -105.226      -36.861      123.418      134.116       67.865    15231.926    17987.133     4605.615        7.824        1.891      342.504       43.935        0.016      347.821       27.063      865.844
07/02/2013  18:13:00     -282.829       15.259      -37.465      134.371      115.650       55.563    18055.458    13374.826     3087.233        5.807        1.726      283.240       55.343        0.038      347.811       27.047      865.833
07/02/2013  18:14:00     -276.676      -33.585      -33.463      111.411      126.818       66.992    12412.344    16082.803     4487.959        5.588        1.649      278.707       62.838        0.051      347.830       27.080      865.799
07/02/2013  18:15:00     -246.851      -40.593      -23.547      121.131      100.713       62.370    14672.767    10143.071     3890.060        4.592        1.435      250.166       34.856        0.019      347.807       27.040      865.724
07/02/2013  18:16:00     -143.043       76.791        4.004      155.930       93.444       76.092    24314.275     8731.863     5790.005        3.260        1.942      162.353       87.848        0.293      347.775       26.985      865.709
07/02/2013  18:17:00     -242.247      -64.260       -5.060      163.825      137.425       78.867    26838.497    18885.568     6220.042        5.738        2.597      250.625       78.014        0.097      347.736       26.918      865.612
07/02/2013  18:18:00     -293.929      -58.808      -43.998      209.997      144.633       91.259    44098.775    20918.657     8328.165        8.255        3.667      299.754       83.829        0.078      347.717       26.884      865.540
07/02/2013  18:19:00     -354.243        6.926      -12.660      177.070      219.591       93.874    31353.840    48219.999     8812.417       10.702        4.419      354.311       90.435        0.065      347.761       26.962      865.463
07/02/2013  18:20:00     -433.082      -92.513      -32.430      215.732      172.361       81.545    46540.120    29708.427     6649.568       14.002        4.145      442.853       73.520        0.028      347.747       26.937      865.358
07/02/2013  18:21:00     -383.033      185.788     -102.322      178.001      214.091      101.933    31684.203    45834.910    10390.324       13.979        4.395      425.713       63.144        0.022      347.786       27.004      865.296
07/02/2013  18:22:00     -345.647      117.533      -52.744      186.235      211.569       90.286    34683.515    44761.440     8151.644       11.181        4.380      365.083       90.746        0.062      347.678       26.818      865.214
07/02/2013  18:23:00     -408.947      173.484      -71.829      195.196      166.230       98.490    38101.577    27632.418     9700.364       13.895        3.772      444.224       76.071        0.029      347.697       26.851      865.204
07/02/2013  18:24:00     -308.776       59.307      -29.110      205.230      161.832       95.740    42119.520    26189.476     9166.213        8.858        3.874      314.420       97.934        0.097      347.566       26.624      865.141
07/02/2013  18:25:00     -262.233      107.729      -53.375      151.640      218.680      101.378    22994.562    47821.095    10277.548        8.214        4.055      283.499       68.604        0.059      347.572       26.635      865.134
07/02/2013  18:26:00     -197.232      -13.247      -17.450      129.126       85.153       88.899    16673.449     7251.069     7903.023        3.560        1.591      197.676       71.308        0.130      347.512       26.531      865.130
07/02/2013  18:27:00     -190.293      -77.246      -13.601      162.832       97.277       58.540    26514.127     9462.791     3426.980        4.088        1.970      205.374       70.425        0.118      347.437       26.403      865.157
07/02/2013  18:28:00      -11.823      -63.003        1.439       82.484       75.458       50.715     6803.601     5693.914     2571.998        0.959        0.753       64.103       48.206        0.566      347.365       26.280      865.250
07/02/2013  18:29:00     -142.861     -133.497       13.440      107.603       71.699       58.584    11578.390     5140.790     3432.135        2.928        1.008      195.526       52.830        0.073      347.340       26.236      865.401
07/02/2013  18:30:00        9.462     -104.624        7.394       99.833       76.181       63.032     9966.540     5803.480     3973.038        1.541        0.987      105.051       50.339        0.230      347.428       26.390      865.398
07/02/2013  18:31:00     -198.002     -212.288       15.458      184.128      140.416       82.905    33903.067    19716.625     6873.306        7.249        3.025      290.295       88.707        0.093      347.568       26.629      865.382
07/02/2013  18:32:00     -334.545     -238.388       13.379      247.647      201.583      107.352    61329.164    40635.569    11524.530       14.119        5.674      410.791      116.044        0.080      347.616       26.711      865.388
07/02/2013  18:33:00     -322.261      -61.695      -18.114      188.511      138.741       78.724    35536.237    19249.170     6197.529        8.447        3.049      328.113       80.880        0.061      347.649       26.769      865.379
07/02/2013  18:34:00     -261.109      -80.414       -8.409      145.421      109.378       65.791    21147.406    11963.589     4328.485        5.607        1.872      273.211       77.043        0.080      347.606       26.694      865.366
07/02/2013  18:35:00     -347.972     -141.355       -8.880      133.645      106.405       73.866    17861.032    11322.020     5456.246        8.789        1.732      375.588       77.493        0.043      347.588       26.663      865.328
07/02/2013  18:36:00     -229.534     -144.686       -7.114      127.774       94.768       58.850    16326.161     8980.898     3463.272        5.121        1.439      271.330       51.310        0.036      347.597       26.679      865.277
07/02/2013  18:37:00     -289.504     -189.623        3.964      151.219      115.435       62.695    22867.314    13325.350     3930.657        7.995        2.006      346.077       59.706        0.030      347.589       26.665      865.224
07/02/2013  18:38:00     -295.060     -266.561       -0.711      174.322      138.892       84.623    30388.294    19290.891     7161.045       10.747        2.842      397.637       89.877        0.051      347.617       26.712      865.212
07/02/2013  18:39:00     -254.457     -177.465        1.378      146.944      140.246       77.494    21592.680    19668.906     6005.375        7.175        2.363      310.229       66.202        0.046      347.570       26.632      865.195
07/02/2013  18:40:00     -246.239     -194.222        6.244      141.379       97.337       75.202    19987.955     9474.410     5655.341        6.675        1.756      313.617       75.059        0.057      347.545       26.588      865.167
07/02/2013  18:41:00     -259.010     -193.203      -19.257      112.261      110.739       52.239    12602.501    12263.127     2728.882        6.618        1.380      323.131       51.952        0.026      347.556       26.608      865.167
07/02/2013  18:42:00     -158.797     -178.681        7.908      127.375      122.906       54.209    16224.323    15105.915     2938.593        4.573        1.713      239.047       60.948        0.065      347.521       26.547      865.181
07/02/2013  18:43:00     -147.462     -275.637       -0.083      139.177      121.185       62.341    19370.174    14685.920     3886.415        6.782        1.897      312.603       44.212        0.020      347.471       26.460      865.148
07/02/2013  18:44:00     -491.517     -379.895      -12.181      272.310      220.254      104.737    74152.734    48511.664    10969.914       25.982        6.682      621.216      116.853        0.035      347.442       26.411      865.141
07/02/2013  18:45:00     -550.399     -346.271      -16.221      330.568      311.977      130.030   109275.123    97329.478    16907.796       32.326       11.176      650.263      173.284        0.071      347.441       26.409      865.081
07/02/2013  18:46:00     -604.857     -316.420      -15.558      337.393      222.106      121.856   113834.192    49331.095    14848.929       32.208        8.901      682.623      151.206        0.049      347.366       26.280      865.098
07/02/2013  18:47:00     -571.209     -294.481      -12.068      269.926      224.704      120.476    72859.849    50491.828    14514.442       27.548        6.893      642.650      147.897        0.053      347.383       26.309      865.078
07/02/2013  18:48:00     -270.172     -184.202        7.835      209.863      190.233       92.112    44042.600    36188.437     8484.552        9.783        4.436      326.991      102.594        0.098      347.425       26.382      865.095
07/02/2013  18:49:00     -379.368     -252.800       -5.631      190.813      172.297       93.414    36409.429    29686.146     8726.241       14.133        3.741      455.881       89.859        0.039      347.515       26.538      865.041
07/02/2013  18:50:00     -356.481     -301.333        4.830      209.935      223.573      106.889    44072.734    49984.915    11425.190       16.167        5.274      466.776      116.169        0.062      347.615       26.711      865.001
07/02/2013  18:51:00     -486.535     -262.848       -7.164      202.317      160.948       84.845    40932.198    25904.297     7198.739       18.993        3.702      552.997       95.734        0.030      347.617       26.713      864.978
07/02/2013  18:52:00     -344.722     -266.578       -0.338      182.304      144.874       99.930    33234.923    20988.479     9985.973       12.704        3.210      435.772      101.895        0.055      347.572       26.635      864.992
07/02/2013  18:53:00     -353.403     -308.749       15.765      202.086      180.700      106.466    40838.906    32652.453    11335.098       15.263        4.241      469.276      112.874        0.058      347.512       26.530      864.980
07/02/2013  18:54:00     -404.659     -270.675        7.606      204.006      166.145       87.759    41618.418    27604.187     7701.644       15.698        3.846      486.841       99.773        0.042      347.431       26.391      864.986
07/02/2013  18:55:00     -244.758     -214.594        0.749      226.994      126.448       83.408    51526.328    15989.180     6956.860        9.020        3.724      325.510       85.343        0.069      347.445       26.416      864.980
07/02/2013  18:56:00     -258.055     -147.793       10.376      146.930      149.028       73.772    21588.516    22209.410     5442.348        6.888        2.462      297.380       78.815        0.070      347.557       26.610      865.005
07/02/2013  18:57:00     -207.027     -132.557        8.096      136.804       93.752       68.776    18715.306     8789.383     4730.133        4.636        1.612      245.828       73.582        0.090      347.751       26.944      865.047
07/02/2013  18:58:00     -294.863     -166.455       11.060      155.913      103.283       62.616    24308.982    10667.349     3920.703        7.683        1.945      338.602       64.096        0.036      347.861       27.134      865.098
07/02/2013  18:59:00     -235.701     -214.204       17.651      201.679      164.248       87.263    40674.440    26977.368     7614.906        8.849        3.763      318.494       95.099        0.089      347.506       26.521      865.132
07/02/2013  19:00:00     -435.426     -323.319       12.841      231.504      230.524      119.096    53593.977    53141.539    14183.759       20.758        6.046      542.338      126.361        0.054      347.158       25.922      865.127
07/02/2013  19:01:00     -516.286     -380.196      -12.863      207.450      233.903       97.860    43035.447    54710.591     9576.526       25.927        5.366      641.171      117.733        0.034      347.107       25.834      865.133
07/02/2013  19:02:00     -346.438     -207.235       11.941      200.229      184.837       99.365    40091.564    34164.765     9873.345       12.360        4.206      403.689      111.241        0.076      347.084       25.792      865.154
07/02/2013  19:03:00     -450.283     -240.327      -14.275      222.838      153.686       92.037    49656.620    23619.538     8470.749       17.121        4.087      510.404      109.807        0.046      347.073       25.773      865.198
07/02/2013  19:04:00     -483.240     -298.801      -15.971      235.686      215.348      101.491    55547.877    46374.597    10300.425       21.762        5.611      568.158      110.455        0.038      347.111       25.839      865.224
07/02/2013  19:05:00     -416.229     -261.193      -19.356      230.494      190.814      100.663    53127.590    36409.820    10133.073       17.074        4.984      491.395      106.449        0.047      347.170       25.941      865.261
07/02/2013  19:06:00     -299.653     -224.876        6.750      232.051      171.785       86.387    53847.640    29510.015     7462.773       11.560        4.541      374.648       86.874        0.054      347.204       26.001      865.292
07/02/2013  19:07:00     -431.220     -315.249      -15.010      194.506      163.746       96.645    37832.448    26812.615     9340.204       17.976        3.699      534.165       97.466        0.033      347.272       26.118      865.289
07/02/2013  19:08:00     -367.430     -273.358       -7.948      172.468      168.366       92.756    29745.220    28347.114     8603.590       13.823        3.335      457.962       90.296        0.039      347.398       26.334      865.277
07/02/2013  19:09:00     -340.532     -217.751      -13.147      173.364      149.103       81.799    30054.929    22231.634     6691.087       11.125        2.949      404.200       85.822        0.045      347.447       26.419      865.284
07/02/2013  19:10:00     -256.524     -135.539       -6.281      153.929      122.520       77.026    23694.236    15011.155     5933.021        6.442        2.232      290.130       84.528        0.085      347.421       26.375      865.262
07/02/2013  19:11:00     -319.480     -216.473      -16.469      160.531      159.008       87.273    25770.067    25283.449     7616.495       10.392        2.934      385.911       94.847        0.060      347.480       26.478      865.208
07/02/2013  19:12:00     -306.690     -200.954      -12.406      169.341      132.703       91.449    28676.468    17610.146     8362.890        9.461        2.732      366.662       89.060        0.059      347.470       26.457      865.174
07/02/2013  19:13:00     -232.632     -167.158       10.930      204.580      122.510       91.339    41852.844    15008.723     8342.902        7.368        3.260      286.460      106.474        0.138      347.428       26.386      865.128
07/02/2013  19:14:00     -206.157     -162.780      -10.166      123.985      120.579       61.641    15372.252    14539.361     3799.651        5.140        1.686      262.675       57.197        0.047      347.377       26.298      865.101
07/02/2013  19:15:00     -146.173      -72.579       -7.548      108.461       93.049       62.711    11763.847     8658.185     3932.626        2.552        1.218      163.200       54.881        0.113      347.365       26.279      865.064
07/02/2013  19:16:00     -162.658      -69.130        3.267       93.916       66.381       46.322     8820.186     4406.401     2145.685        2.331        0.769      176.738       51.084        0.084      347.400       26.339      865.003
07/02/2013  19:17:00     -203.766      -32.129      -20.993      119.700       78.832       48.165    14328.150     6214.473     2319.830        3.292        1.143      206.284       61.855        0.090      347.437       26.400      864.954
07/02/2013  19:18:00     -220.202      -10.801      -12.365      100.059       84.860       50.480    10011.746     7201.261     2548.246        3.426        0.988      220.466       51.663        0.055      347.783       26.999      864.860
07/02/2013  19:19:00     -237.303      -74.047      -24.274      108.459       98.349       52.721    11763.272     9672.507     2779.474        4.330        1.211      248.587       36.160        0.021      348.100       27.546      864.758
07/02/2013  19:20:00     -348.234      -93.634      -12.700      136.588      129.904       71.923    18656.365    16875.027     5172.944        8.544        2.035      360.602       65.473        0.033      348.399       28.064      864.685
07/02/2013  19:21:00     -315.321      -13.011      -40.917      145.627      117.104       65.663    21207.119    13713.323     4311.661        7.024        1.962      315.589       49.803        0.025      348.656       28.507      864.612
07/02/2013  19:22:00     -277.298        7.786      -31.422      144.543      142.811       70.891    20892.651    20395.083     5025.543        6.212        2.316      277.407       58.911        0.045      348.699       28.583      864.551
07/02/2013  19:23:00     -187.425      -43.817      -16.284      117.743      120.861       80.627    13863.443    14607.412     6500.635        3.614        1.749      192.478       64.789        0.113      348.776       28.717      864.470
07/02/2013  19:24:00     -165.377      -29.256      -12.815      154.966      147.090       70.945    24014.613    21635.612     5033.126        3.952        2.534      167.945       43.759        0.068      348.894       28.922      864.432
07/02/2013  19:25:00     -274.570      -78.261      -12.928       98.916      101.317       72.072     9784.307    10265.165     5194.404        5.346        1.262      285.505       51.536        0.033      348.847       28.837      864.418
07/02/2013  19:26:00     -225.242       53.556      -54.097      135.343      178.104       72.661    18317.801    31721.133     5279.583        5.591        2.766      231.521       54.814        0.056      348.838       28.822      864.369
07/02/2013  19:27:00     -203.815       21.513      -35.195      169.340      113.962       77.002    28676.169    12987.351     5929.269        4.541        2.380      204.947       65.179        0.101      348.804       28.766      864.357
07/02/2013  19:28:00     -171.833       58.882       -9.989      150.745      121.786       79.740    22724.025    14831.776     6358.423        3.850        2.196      181.642       61.871        0.116      348.743       28.659      864.364
07/02/2013  19:29:00     -255.661       -6.547      -35.490      136.809      162.561       81.218    18716.760    26426.157     6596.346        5.919        2.587      255.745       72.745        0.081      348.736       28.647      864.384
07/02/2013  19:30:00     -302.954       43.257      -49.468      188.729      156.353       82.731    35618.632    24446.128     6844.350        8.149        3.345      306.027       70.387        0.053      348.730       28.637      864.400
07/02/2013  19:31:00     -285.877      101.520      -27.553      121.421      139.707       75.846    14743.047    19518.116     5752.590        6.639        2.001      303.368       41.745        0.019      348.755       28.679      864.450
07/02/2013  19:32:00     -234.484       13.161      -13.060      166.495      140.447       85.147    27720.492    19725.305     7250.070        5.500        2.735      234.853       98.900        0.177      348.745       28.664      864.513
07/02/2013  19:33:00     -255.942      111.201      -26.661      133.300      102.216       69.195    17768.792    10448.198     4787.943        5.579        1.650      279.055       71.411        0.065      348.709       28.599      864.573
07/02/2013  19:34:00     -101.270      146.943      -17.942       80.196      108.907       52.314     6431.414    11860.832     2736.714        2.660        1.051      178.459       52.868        0.088      348.711       28.605      864.652
07/02/2013  19:35:00     -121.144      254.257      -34.873      143.408      118.144       60.626    20565.912    13958.093     3675.457        5.936        1.910      281.642       66.879        0.056      348.571       28.360      864.741
07/02/2013  19:36:00     -299.447      364.910      -63.028      171.820      199.896       90.489    29522.067    39958.436     8188.294       15.222        3.883      472.046      100.419        0.045      348.283       27.861      864.814
07/02/2013  19:37:00     -152.236      232.854      -23.826      122.105      144.481       73.720    14909.535    20874.745     5434.693        5.958        2.061      278.203       75.599        0.074      348.195       27.712      864.840
07/02/2013  19:38:00     -113.053      272.152      -29.744       99.652      210.366       68.320     9930.593    44254.028     4667.669        7.328        2.943      294.700       78.742        0.071      348.077       27.508      864.834
07/02/2013  19:39:00     -188.489      409.764      -56.038      134.565      204.125       73.699    18107.804    41667.199     5431.511       13.588        3.260      451.037       77.813        0.030      347.998       27.371      864.835
07/02/2013  19:40:00     -204.988      392.531      -57.718      165.393      183.648       77.186    27354.722    33726.494     5957.665       13.322        3.352      442.832       86.073        0.038      347.881       27.169      864.796
07/02/2013  19:41:00     -176.130      426.557      -51.374      138.008      166.680       71.337    19046.315    27782.087     5089.036       13.375        2.596      461.490       72.364        0.025      347.698       26.854      864.759
07/02/2013  19:42:00     -104.920      438.528      -59.818      107.115      161.967       65.230    11473.598    26233.151     4254.986       12.442        2.098      450.905       41.878        0.009      347.453       26.428      864.685
07/02/2013  19:43:00     -159.193      452.925      -47.070      126.846      186.179       83.210    16089.916    34662.473     6923.905       14.518        2.884      480.087       90.510        0.036      347.339       26.233      864.624
07/02/2013  19:44:00     -197.477      407.897      -39.235      137.492      167.890       87.576    18904.168    28187.121     7669.526       13.083        2.738      453.186       83.591        0.034      347.486       26.487      864.575
07/02/2013  19:45:00     -234.731      378.655      -50.803      170.079      180.718       84.735    28926.850    32659.068     7179.951       13.490        3.438      445.509       92.174        0.043      347.703       26.861      864.557
07/02/2013  19:46:00     -217.824      521.386      -56.722      174.073      230.148      108.013    30301.255    52967.943    11666.913       20.870        4.747      565.058      110.614        0.038      347.859       27.130      864.522
07/02/2013  19:47:00     -245.252      364.942      -50.130      178.235      166.840       90.328    31767.737    27835.571     8159.169       13.179        3.388      439.694       91.694        0.043      347.993       27.362      864.529
07/02/2013  19:48:00     -137.803      260.169      -22.487       94.252      138.619       68.951     8883.484    19215.156     4754.309        6.001        1.643      294.411       62.636        0.045      347.981       27.341      864.531
07/02/2013  19:49:00     -198.406      257.381      -44.423      132.575      136.815       68.955    17576.082    18718.275     4754.765        7.431        2.052      324.977       67.840        0.044      348.070       27.494      864.532
07/02/2013  19:50:00     -186.766      258.964      -56.498      127.896      142.808       58.729    16357.353    20394.062     3449.076        7.266        2.010      319.286       72.761        0.052      348.162       27.652      864.531
07/02/2013  19:51:00     -210.216      220.199      -28.163      132.760      173.783       77.529    17625.157    30200.367     6010.734        7.364        2.692      304.431       72.802        0.057      348.241       27.790      864.522
07/02/2013  19:52:00     -216.162      269.546      -34.688      158.884      123.248       64.875    25244.176    15190.057     4208.817        8.260        2.232      345.516       62.097        0.032      348.309       27.906      864.521
07/02/2013  19:53:00     -209.377      323.615      -46.202      103.138      107.745       77.448    10637.455    11608.916     5998.188        8.947        1.412      385.442       64.770        0.028      348.385       28.038      864.503
07/02/2013  19:54:00     -189.005      296.502      -44.121      117.449      142.688       68.732    13794.347    20359.998     4724.074        8.222        1.944      351.619       57.811        0.027      348.405       28.075      864.495
07/02/2013  19:55:00     -163.119      299.835      -29.270      103.280      131.788       67.348    10666.713    17367.990     4535.739        7.496        1.629      341.334       52.315        0.023      348.407       28.076      864.471
07/02/2013  19:56:00     -176.761      291.728      -42.847      136.654      169.545       81.625    18674.360    28745.640     6662.565        8.612        2.704      341.101       98.108        0.083      348.475       28.196      864.443
07/02/2013  19:57:00     -232.854      331.432      -34.233      165.115      159.652       95.892    27263.036    25488.684     9195.371       11.358        3.097      405.053       92.074        0.052      348.497       28.234      864.415
07/02/2013  19:58:00     -250.563      298.984      -53.832      115.458      132.833       73.808    13330.592    17644.718     5447.694        9.574        1.821      390.094       69.496        0.032      348.550       28.324      864.393
07/02/2013  19:59:00     -275.017      350.654      -56.480      164.035      155.822       83.039    26907.639    24280.425     6895.467       12.992        2.904      445.638       83.622        0.035      348.601       28.411      864.370
07/02/2013  20:00:00     -283.821      474.257      -74.717      150.547      191.025       99.027    22664.261    36490.628     9806.372       19.000        3.448      552.697       83.779        0.023      348.578       28.372      864.363
07/02/2013  20:01:00     -292.625      388.482      -65.148      174.729      167.936      102.772    30530.167    28202.419    10562.112       15.503        3.465      486.362      112.533        0.054      348.485       28.211      864.342
07/02/2013  20:02:00     -349.343      436.461      -74.476      221.906      206.972       99.968    49242.354    42837.301     9993.636       21.006        5.104      559.052      123.405        0.049      348.481       28.204      864.337
07/02/2013  20:03:00     -308.736      298.840      -78.872      129.208      134.499       81.527    16694.727    18090.103     6646.621       11.613        2.072      429.678       66.872        0.024      348.471       28.188      864.321
07/02/2013  20:04:00     -275.065      340.443      -48.215      170.649      206.216      104.621    29121.225    42525.120    10945.455       13.822        4.130      437.678      109.423        0.063      348.468       28.184      864.320
07/02/2013  20:05:00     -332.791      259.873      -52.346      174.546      174.743       93.678    30466.409    30535.275     8775.505       12.539        3.489      422.236       87.530        0.043      348.479       28.200      864.307
07/02/2013  20:06:00     -303.242      373.639      -63.700      175.576      172.623       98.991    30826.967    29798.711     9799.282       15.301        3.521      481.209       99.218        0.043      348.460       28.169      864.305
07/02/2013  20:07:00     -243.603      136.485      -44.490      202.223      172.106      106.281    40894.066    29620.446    11295.686        8.086        4.091      279.232       71.095        0.065      348.470       28.188      864.288
07/02/2013  20:08:00     -299.484      313.102      -45.149      189.410      218.123       89.504    35876.289    47577.784     8010.893       14.060        4.573      433.271       99.869        0.053      348.491       28.222      864.288
07/02/2013  20:09:00     -239.190      162.367      -30.982      147.009      185.287       76.360    21611.649    34331.449     5830.866        7.314        3.089      289.094       73.047        0.064      348.481       28.205      864.302
07/02/2013  20:10:00     -320.957      169.220      -40.471      176.435      187.688      101.960    31129.247    35226.827    10395.848       10.500        3.838      362.834      111.238        0.094      348.504       28.245      864.291
07/02/2013  20:11:00     -247.689      102.289       -0.425      225.967      160.929       94.502    51061.145    25898.071     8930.556        7.883        4.294      267.980      105.015        0.154      348.517       28.267      864.292
07/02/2013  20:12:00     -167.943      191.350      -17.397      152.389      163.894       85.603    23222.260    26861.215     7327.827        6.126        2.871      254.597       77.133        0.092      348.497       28.233      864.293
07/02/2013  20:13:00     -224.687      193.649      -29.520       99.803      144.497       74.354     9960.712    20879.325     5528.496        6.260        1.818      296.621       59.308        0.040      348.525       28.280      864.290
07/02/2013  20:14:00     -190.617      155.058      -41.711      101.585      121.160       58.100    10319.603    14679.750     3375.580        4.524        1.419      245.719       51.126        0.043      348.530       28.288      864.272
07/02/2013  20:15:00     -177.351      166.248      -41.733      102.817      168.322       58.678    10571.433    28332.392     3443.125        5.158        2.117      243.088       71.257        0.086      348.546       28.317      864.264
07/02/2013  20:16:00     -233.477      155.276      -46.092      109.502      124.062       67.844    11990.653    15391.277     4602.835        5.636        1.599      280.397       70.565        0.063      348.573       28.363      864.275
07/02/2013  20:17:00     -167.278      128.599      -18.085      111.565      138.239       71.193    12446.690    19110.132     5068.407        4.073        1.831      210.997       55.715        0.070      348.526       28.283      864.266
07/02/2013  20:18:00     -283.939      268.545      -53.436      157.264      166.789       89.444    24731.912    27818.588     8000.204       10.806        3.028      390.817       99.378        0.065      348.559       28.338      864.269
07/02/2013  20:19:00     -171.357      225.546      -23.699      126.695      151.751       68.084    16051.658    23028.383     4635.454        6.225        2.186      283.256       51.124        0.033      348.504       28.245      864.275
07/02/2013  20:20:00     -249.050      346.805      -48.512      157.471      172.957       91.680    24797.059    29913.973     8405.148       12.387        3.156      426.966      104.149        0.060      348.510       28.254      864.290
07/02/2013  20:21:00     -230.015      319.389      -44.781      133.990      143.090       77.506    17953.198    20474.645     6007.181       10.067        2.222      393.594       75.757        0.037      348.514       28.262      864.310
07/02/2013  20:22:00     -200.507      299.034      -45.020      158.853      150.044       72.608    25234.128    22513.271     5271.939        9.232        2.651      360.034       76.702        0.045      348.452       28.154      864.352
07/02/2013  20:23:00     -179.418      311.584      -36.149      124.331      150.262       74.360    15458.316    22578.751     5529.482        8.707        2.178      359.549       86.398        0.058      348.348       27.975      864.395
07/02/2013  20:24:00     -159.872      429.363      -46.147      139.231      164.871       82.575    19385.276    27182.317     6818.626       13.270        2.669      458.161       91.632        0.040      348.248       27.803      864.443
07/02/2013  20:25:00      -96.858      384.005      -43.145      110.465      136.053       61.648    12202.560    18510.356     3800.516        9.660        1.726      396.032       63.777        0.026      348.149       27.629      864.492
07/02/2013  20:26:00     -135.065      271.037      -26.289      103.890      127.268       66.995    10793.075    16197.212     4488.351        6.193        1.574      302.826       68.238        0.051      348.096       27.538      864.511
07/02/2013  20:27:00     -213.629      300.436      -52.768      179.612      135.697       80.636    32260.502    18413.779     6502.105        9.792        2.859      368.645       99.302        0.073      348.152       27.635      864.520
07/02/2013  20:28:00     -216.667      335.662      -40.036      175.757      153.956      101.841    30890.377    23702.415    10371.524       11.308        3.248      399.516       98.766        0.061      348.166       27.660      864.536
07/02/2013  20:29:00     -168.326      347.995      -42.232      130.158      170.837       71.832    16941.017    29185.227     5159.816       10.124        2.564      386.567       80.077        0.043      348.102       27.549      864.563
07/02/2013  20:30:00     -207.132      317.867      -62.177      137.091      132.553       69.644    18793.883    17570.427     4850.334        9.450        2.061      379.399       62.052        0.027      348.073       27.499      864.609
07/02/2013  20:31:00     -149.886      380.237      -30.064      127.693      115.013       72.733    16305.413    13228.040     5290.117       10.138        1.741      408.712       64.676        0.025      347.901       27.201      864.641
07/02/2013  20:32:00     -167.265      185.165      -26.823      129.058      113.469       68.645    16655.919    12875.309     4712.157        4.861        1.712      249.527       75.183        0.091      347.858       27.128      864.640
07/02/2013  20:33:00     -171.001      165.796      -13.224       98.902      124.646       66.891     9781.617    15536.731     4474.422        4.334        1.490      238.180       63.671        0.071      347.805       27.037      864.619
07/02/2013  20:34:00     -213.289      165.308      -35.842      144.148      153.911       77.051    20778.744    23688.679     5936.920        6.224        2.520      269.850       85.988        0.102      347.767       26.973      864.622
07/02/2013  20:35:00     -187.507      157.630      -41.039      110.355      147.750       76.070    12178.288    21830.014     5786.709        5.073        1.990      244.961       69.882        0.081      347.772       26.981      864.633
07/02/2013  20:36:00     -242.098      117.648      -35.462      134.067      136.337       72.667    17973.947    18587.873     5280.468        5.777        2.092      269.170       70.921        0.069      347.731       26.909      864.646
07/02/2013  20:37:00     -274.062      176.558      -26.368      152.685      192.654       87.387    23312.753    37115.434     7636.475        8.751        3.403      326.010       93.469        0.082      347.698       26.852      864.654
07/02/2013  20:38:00     -248.573      -51.957       -9.247      155.302      108.080       66.939    24118.646    11681.225     4480.831        5.242        2.014      253.945       45.762        0.032      347.688       26.836      864.645
07/02/2013  20:39:00     -283.035      -32.190      -32.852      167.646      131.593       55.463    28105.185    17316.754     3076.095        6.535        2.425      284.859       67.376        0.056      347.684       26.828      864.688
07/02/2013  20:40:00     -214.369      -92.231      -10.523      111.207      116.674       57.433    12366.894    13612.797     3298.568        4.192        1.464      233.368       42.248        0.033      347.683       26.826      864.709
07/02/2013  20:41:00     -300.036      -34.465      -19.924      155.212      160.833       73.939    24090.813    25867.233     5466.995        7.350        2.771      302.009       67.039        0.049      347.703       26.859      864.759
07/02/2013  20:42:00     -161.105       -5.111      -10.323       82.792       86.955       49.732     6854.552     7561.233     2473.294        2.148        0.844      161.186       45.884        0.081      347.644       26.761      864.795
07/02/2013  20:43:00     -181.846       -7.732       -1.178      136.184       93.384       51.142    18546.013     8720.602     2615.537        3.150        1.494      182.010       69.259        0.145      347.682       26.826      864.822
07/02/2013  20:44:00     -256.555        8.046       -5.626      165.474      109.577       60.181    27381.604    12007.142     3621.774        5.446        2.151      256.681       81.407        0.101      347.680       26.822      864.841
07/02/2013  20:45:00     -374.034      -44.725      -31.298      150.094      109.025       57.340    22528.146    11886.395     3287.908        9.028        1.885      376.698       72.458        0.037      347.729       26.905      864.859
07/02/2013  20:46:00     -338.969      -20.897      -27.711      151.651      126.097       65.046    22997.903    15900.432     4231.046        7.961        2.156      339.612       67.117        0.039      347.747       26.937      864.886
07/02/2013  20:47:00     -299.526        4.284      -18.260      135.104      113.804       59.105    18253.010    12951.307     3493.381        6.238        1.735      299.556       64.886        0.047      347.727       26.901      864.921
07/02/2013  20:48:00     -294.695     -125.349      -13.397      131.730      109.589       66.424    17352.733    12009.835     4412.085        6.825        1.689      320.246       58.687        0.034      347.615       26.708      864.947
07/02/2013  20:49:00     -301.371      -83.763       -2.245      132.389      146.408       72.455    17526.939    21435.340     5249.711        7.102        2.211      312.795       65.805        0.044      347.619       26.718      864.994
07/02/2013  20:50:00     -286.089      -44.664        3.661      159.244      124.263       62.111    25358.730    15441.243     3857.817        6.425        2.233      289.554       75.129        0.067      347.675       26.813      865.044
07/02/2013  20:51:00     -278.214       -3.009      -11.778      136.921       86.352       58.632    18747.272     7456.591     3437.769        5.359        1.482      278.230       62.971        0.051      347.740       26.925      865.048
07/02/2013  20:52:00     -200.805      -46.402       -3.578       95.351       66.859       40.993     9091.872     4470.092     1680.410        2.886        0.762      206.097       46.945        0.052      347.782       26.997      865.087
07/02/2013  20:53:00     -212.341      -22.171      -14.123      112.068       90.104       45.920    12559.337     8118.809     2108.666        3.428        1.139      213.495       50.431        0.056      347.913       27.224      865.147
07/02/2013  20:54:00     -185.170      -27.555      -16.367       75.234       59.615       39.748     5660.160     3553.938     1579.896        2.305        0.540      187.209       38.864        0.043      347.877       27.163      865.212
07/02/2013  20:55:00     -292.268      -82.896      -21.071      129.910      109.232       67.525    16876.674    11931.539     4559.666        6.305        1.668      303.796       74.911        0.061      347.872       27.152      865.252
07/02/2013  20:56:00     -212.052      -15.083      -16.965      101.598       63.353       38.879    10322.119     4013.596     1511.614        3.066        0.792      212.588       37.423        0.031      347.815       27.057      865.284
07/02/2013  20:57:00     -138.537      -31.349      -20.852      105.773       55.020       41.976    11188.033     3027.185     1761.977        1.829        0.799      142.040       49.624        0.122      347.827       27.077      865.303
07/02/2013  20:58:00     -195.628      -65.805       -3.215       86.035       61.060       41.271     7401.970     3728.372     1703.269        2.772        0.642      206.400       40.677        0.039      347.777       26.989      865.304
07/02/2013  20:59:00     -262.253       32.833      -20.747      102.893       64.131       42.078    10586.901     4112.763     1770.539        4.337        0.824      264.301       39.643        0.022      348.008       27.389      865.332
07/02/2013  21:00:00     -189.235      -18.966      -15.739       81.326       57.128       36.233     6613.899     3263.630     1312.801        2.380        0.560      190.183       37.630        0.039      347.985       27.349      865.356
07/02/2013  21:01:00     -180.144      -34.810       -8.814       76.375       59.401       39.680     5833.084     3528.450     1574.507        2.234        0.547      183.476       38.464        0.044      347.945       27.279      865.404
07/02/2013  21:02:00     -232.656      -63.610      -18.339       78.727       78.508       40.680     6197.962     6163.449     1654.862        3.626        0.701      241.195       41.413        0.029      347.880       27.166      865.444
07/02/2013  21:03:00     -213.908      -52.010       -7.110      103.917       76.211       38.602    10798.654     5808.162     1490.112        3.330        0.905      220.141       39.938        0.033      347.831       27.082      865.477
07/02/2013  21:04:00     -236.002      -65.247       -8.381       99.485       58.850       40.565     9897.352     3463.341     1645.517        3.751        0.750      244.855       43.245        0.031      347.723       26.895      865.504
07/02/2013  21:05:00     -131.576      -81.127       -0.207       68.737       50.240       42.317     4724.838     2524.097     1790.766        1.646        0.452      154.576       32.273        0.044      347.710       26.874      865.518
07/02/2013  21:06:00      -78.728       -6.989        6.952       65.847       57.839       30.034     4335.815     3345.391      902.045        0.744        0.429       79.038       37.613        0.226      347.700       26.859      865.531
07/02/2013  21:07:00     -155.759        6.489      -16.135       40.759       44.632       21.669     1661.323     1992.018      469.547        1.434        0.206      155.894       25.748        0.027      347.697       26.857      865.562
07/02/2013  21:08:00      -98.653       23.240       -4.131       31.280       25.974       16.821      978.469      674.628      282.938        0.611        0.097      101.353       17.307        0.029      347.663       26.796      865.582
07/02/2013  21:09:00      -22.435       58.518        9.240       35.756       28.735       26.566     1278.526      825.714      705.759        0.341        0.140       62.671       20.631        0.108      347.569       26.634      865.608
07/02/2013  21:10:00      -33.825       74.974      -10.102       20.380       17.529       12.428      415.334      307.275      154.451        0.387        0.044       82.251        9.181        0.012      347.557       26.612      865.639
07/02/2013  21:11:00      -20.624      112.979      -12.160       26.409       37.974       17.933      697.447     1442.060      321.582        0.790        0.123      114.846       19.830        0.030      347.496       26.506      865.668
07/02/2013  21:12:00        5.243       12.539       10.150       14.254       19.996       14.259      203.187      399.834      203.318        0.055        0.040       13.591       11.585        0.727      347.467       26.458      865.660
07/02/2013  21:13:00       -6.882       16.702       13.873       22.267       36.701       22.669      495.801     1346.980      513.895        0.144        0.118       18.065       13.998        0.600      347.530       26.566      865.654
07/02/2013  21:14:00        1.664       29.851       14.608       13.199       12.259       12.978      174.216      150.277      168.419        0.080        0.025       29.897        4.797        0.026      347.516       26.538      865.682
07/02/2013  21:15:00       33.084       22.748        2.003       16.255       12.210        9.743      264.228      149.090       94.927        0.106        0.025       40.150        7.373        0.034      347.469       26.458      865.689
07/02/2013  21:16:00       -2.371        6.409       29.479       12.764       20.919       14.342      162.922      437.604      205.706        0.086        0.040        6.834       10.929        2.558      347.496       26.507      865.692
07/02/2013  21:17:00      -45.320       17.048        3.306       22.084       11.183       13.584      487.696      125.052      184.522        0.158        0.040       48.420        6.139        0.016      347.596       26.682      865.719
07/02/2013  21:18:00       -4.247       39.015        1.791       23.784       24.039       17.476      565.691      577.875      305.403        0.150        0.072       39.245       13.528        0.119      347.579       26.651      865.744
07/02/2013  21:19:00       62.732       32.218        0.205       20.016       26.651       17.817      400.649      710.255      317.462        0.320        0.071       70.522       13.566        0.037      347.424       26.383      865.731
07/02/2013  21:20:00       24.916       38.485        6.655       34.929       31.855       20.418     1220.011     1014.713      416.884        0.240        0.133       45.846       17.535        0.146      347.393       26.330      865.738
07/02/2013  21:21:00       25.544      103.036      -12.474       28.424       54.187       16.885      807.901     2936.261      285.107        0.773        0.201      106.155       12.987        0.015      347.422       26.380      865.750
07/02/2013  21:22:00      -41.743      109.341       -0.986       35.816       44.369       31.053     1282.769     1968.613      964.316        0.896        0.211      117.038       26.708        0.052      347.489       26.496      865.753
07/02/2013  21:23:00       13.330      166.797      -20.444       42.621       38.696       26.061     1816.552     1497.374      679.165        1.620        0.200      167.329       21.217        0.016      347.253       26.089      865.779
07/02/2013  21:24:00       15.608      172.997      -14.552       36.641       54.651       36.876     1342.584     2986.686     1359.837        1.804        0.284      173.699       34.585        0.040      347.125       25.866      865.803
07/02/2013  21:25:00       35.281      213.270      -41.119       21.791       36.517       25.214      474.853     1333.487      635.724        2.543        0.122      216.169       19.953        0.009      347.189       25.974      865.841
07/02/2013  21:26:00       44.061       89.283       -8.252       44.924       52.170       22.404     2018.129     2721.735      501.926        0.761        0.262       99.564       25.021        0.063      347.128       25.874      865.871
07/02/2013  21:27:00       42.163       12.083       23.123       42.161       29.899       20.346     1777.574      893.954      413.964        0.277        0.154       43.861       15.239        0.121      347.320       26.204      865.893
07/02/2013  21:28:00       -6.185       18.801       13.946       24.230       22.410       10.757      587.092      502.200      115.706        0.090        0.060       19.792       11.533        0.340      347.284       26.143      865.909
07/02/2013  21:29:00      -10.315       17.996       18.534       12.173       14.247       16.518      148.173      202.985      272.841        0.070        0.031       20.742       13.661        0.434      347.254       26.090      865.938
07/02/2013  21:30:00       46.880       35.731        5.942       18.408       11.913       15.824      338.849      141.914      250.408        0.212        0.037       58.945        9.602        0.027      347.240       26.067      865.975
07/02/2013  21:31:00      103.555       75.119        5.082       62.773       40.706       41.998     3940.454     1656.952     1763.842        1.188        0.368      127.932       33.846        0.070      347.414       26.365      865.997
07/02/2013  21:32:00       81.444       86.209       -5.960       63.015       50.395       29.114     3970.856     2539.658      847.599        1.073        0.368      118.597       18.920        0.025      347.434       26.399      866.018
07/02/2013  21:33:00        4.704      119.496       -7.269       23.922       53.450       22.457      572.260     2856.902      504.337        0.914        0.197      119.588       23.174        0.038      347.199       25.995      866.033
07/02/2013  21:34:00       89.943       73.638        4.723       83.083       76.731       43.437     6902.785     5887.654     1886.778        1.410        0.734      116.242       37.187        0.102      347.222       26.035      866.008
07/02/2013  21:35:00       42.845      180.469      -25.467       81.211       80.508       48.993     6595.227     6481.536     2400.340        2.526        0.774      185.485       36.291        0.038      347.603       26.690      866.002
07/02/2013  21:36:00       31.334       89.484        4.863       46.221       53.531       36.402     2136.413     2865.522     1325.132        0.767        0.316       94.811       32.873        0.120      347.564       26.625      866.014
07/02/2013  21:37:00      -37.107      131.037       -7.004       97.858       63.232       47.321     9576.148     3998.271     2239.309        1.720        0.791      136.190       59.614        0.192      347.315       26.195      866.021
07/02/2013  21:38:00       47.830       57.807        8.149       58.518       34.406       37.586     3424.351     1183.752     1412.709        0.586        0.301       75.029       29.848        0.158      347.236       26.059      866.022
07/02/2013  21:39:00      -93.155       54.254      -21.738       48.572       30.693       19.493     2359.276      942.069      379.977        0.789        0.184      107.802       16.642        0.024      347.044       25.729      866.037
07/02/2013  21:40:00     -122.726       24.096      -24.996       36.836       36.153       19.305     1356.875     1307.017      372.697        0.965        0.152      125.070       14.687        0.014      346.923       25.520      866.034
07/02/2013  21:41:00      -53.817       71.336      -19.099       24.938       41.263       19.415      621.928     1702.626      376.947        0.553        0.135       89.360       18.511        0.043      347.061       25.758      866.030
07/02/2013  21:42:00      -52.633       87.555      -10.772       32.445       32.367       27.428     1052.650     1047.654      752.310        0.670        0.143      102.157       19.056        0.035      347.165       25.936      866.023
07/02/2013  21:43:00       -6.983      167.171      -15.540       32.000       48.294       25.991     1023.996     2332.289      675.537        1.613        0.202      167.316       26.574        0.025      347.438       26.405      866.016
07/02/2013  21:44:00     -102.818      114.660      -11.171       40.689       53.856       20.904     1655.584     2900.491      436.963        1.442        0.250      154.008       16.258        0.011      347.534       26.572      866.020
07/02/2013  21:45:00       -8.728       34.721        0.965       39.109       30.542       18.233     1529.480      932.785      332.453        0.204        0.140       35.801       16.545        0.214      347.332       26.224      866.014
07/02/2013  21:46:00       31.597       59.486       -3.706       26.697       26.136       18.438      712.727      683.069      339.967        0.314        0.087       67.357       15.543        0.053      347.182       25.966      866.001
07/02/2013  21:47:00       -3.808      142.551      -23.887       26.217       24.187       14.691      687.326      585.021      215.819        1.120        0.074      142.602        9.979        0.005      347.095       25.816      866.027
07/02/2013  21:48:00      -17.905      125.060      -21.323       21.837       26.319       12.992      476.834      692.697      168.797        0.888        0.067      126.335       12.383        0.010      347.011       25.672      866.065
07/02/2013  21:49:00      -28.729      182.140      -19.223       44.119       47.362       29.482     1946.516     2243.183      869.213        1.971        0.253      184.392       28.555        0.024      346.925       25.521      866.098
07/02/2013  21:50:00       -5.620      149.307      -13.724       30.139       43.035       21.578      908.363     1852.037      465.609        1.287        0.161      149.412       23.901        0.026      346.872       25.433      866.104
07/02/2013  21:51:00       -1.992       85.699        1.158       30.705       36.466       22.407      942.790     1329.804      502.063        0.506        0.139       85.722       18.308        0.046      346.802       25.314      866.093
07/02/2013  21:52:00       -5.018       74.350        1.963       24.417       25.496       21.368      596.191      650.063      456.595        0.363        0.085       74.519       19.085        0.066      346.783       25.280      866.077
07/02/2013  21:53:00      -47.065       13.785       -6.968       26.974       41.584       21.230      727.588     1729.222      450.717        0.268        0.145       49.042       16.420        0.112      346.856       25.404      866.112
07/02/2013  21:54:00      -56.820      -10.445       -7.916       39.283       21.416       16.858     1543.163      458.656      284.193        0.284        0.114       57.772       20.164        0.122      346.829       25.359      866.151
07/02/2013  21:55:00      -28.179      -64.527        8.279       39.703       49.171       21.434     1576.292     2417.772      459.412        0.474        0.223       70.412       18.970        0.073      346.943       25.554      866.127
07/02/2013  21:56:00     -102.790     -101.254       -7.890       56.353       35.226       30.076     3175.690     1240.876      904.583        1.310        0.266      144.285       19.940        0.019      347.010       25.669      866.068
07/02/2013  21:57:00      -54.952      -66.436        0.819       55.527       50.179       28.106     3083.273     2517.924      789.975        0.691        0.320       86.218       28.694        0.111      347.116       25.851      866.059
07/02/2013  21:58:00       13.620      -46.348        4.758       21.757       20.383       13.589      473.366      415.450      184.661        0.171        0.054       48.308        9.902        0.042      347.158       25.925      866.086
07/02/2013  21:59:00       98.696       66.750       26.884       40.195       35.355       20.891     1615.634     1249.969      436.446        0.911        0.165      119.149        8.695        0.005      346.953       25.572      866.103
07/02/2013  22:00:00       26.920       45.835       40.479       33.741       26.208       22.685     1138.485      686.856      514.618        0.340        0.117       53.156       19.514        0.135      346.902       25.484      866.101
07/02/2013  22:01:00        2.697       15.193       35.791       14.066       25.394       17.134      197.845      644.835      293.564        0.133        0.057       15.431       14.042        0.828      346.841       25.378      866.090
07/02/2013  22:02:00       24.701       74.758        8.169       30.305       31.124       28.058      918.413      968.696      787.225        0.447        0.134       78.733       20.497        0.068      346.739       25.203      866.083
07/02/2013  22:03:00        1.149        6.634      -14.132       23.461       58.170       12.786      550.398     3383.722      163.480        0.217        0.205        6.733        8.459        1.578      346.818       25.338      866.084
07/02/2013  22:04:00      -79.925      -33.375        8.819       49.613       43.894       23.448     2461.437     1926.642      549.788        0.626        0.247       86.613       20.263        0.055      346.785       25.283      866.090
07/02/2013  22:05:00      -69.379       -8.755        2.759       44.271       16.712       10.989     1959.882      279.303      120.752        0.363        0.118       69.929       10.258        0.022      346.825       25.352      866.088
07/02/2013  22:06:00      -12.507      -33.131        3.737       16.196       11.776        8.904      262.321      138.668       79.286        0.087        0.024       35.413        4.520        0.016      346.964       25.590      866.091
07/02/2013  22:07:00        1.749      -42.627       -7.347       14.823       18.652        8.798      219.718      347.890       77.412        0.126        0.032       42.663       10.153        0.057      346.976       25.611      866.093
07/02/2013  22:08:00      -38.541       -2.860       -5.057       27.295       18.813        9.567      745.010      353.921       91.518        0.135        0.060       38.647       10.748        0.077      346.965       25.594      866.106
07/02/2013  22:09:00       -0.814      -32.736       -5.483       14.539       37.695       14.108      211.374     1420.923      199.023        0.147        0.092       32.746       20.001        0.373      346.945       25.559      866.094
07/02/2013  22:10:00       32.053       -2.688       18.869       36.028       67.816       19.571     1297.994     4599.014      383.031        0.383        0.314       32.166       24.264        0.569      347.036       25.715      866.068
07/02/2013  22:11:00       53.839       36.403       16.371       55.982       26.312       31.198     3133.955      692.303      973.326        0.464        0.240       64.990       20.020        0.095      347.029       25.702      866.071
07/02/2013  22:12:00      -95.617       -4.687       -3.081       42.916       32.782       17.140     1841.751     1074.640      293.787        0.619        0.161       95.732       17.032        0.032      347.067       25.769      866.086
07/02/2013  22:13:00      -80.390      -30.682        2.869       24.019       20.950       11.102      576.925      438.888      123.246        0.428        0.057       86.047       12.432        0.021      347.026       25.698      866.085
07/02/2013  22:14:00      -35.297      -41.618        6.727       28.130       21.111       14.066      791.299      445.663      197.858        0.223        0.072       54.570       12.086        0.049      346.982       25.620      866.114
07/02/2013  22:15:00       -3.766      -56.872        0.512       14.601       24.784       13.403      213.193      614.265      179.632        0.213        0.050       56.996        5.110        0.008      347.004       25.660      866.146
07/02/2013  22:16:00        0.459        4.605       -6.019       36.989       26.934       20.580     1368.219      725.418      423.547        0.129        0.126        4.628       18.959       16.782      346.990       25.635      866.187
07/02/2013  22:17:00       10.716       19.228       29.300       29.847       27.997       30.847      890.822      783.838      951.514        0.198        0.131       22.012       18.623        0.716      347.073       25.779      866.190
07/02/2013  22:18:00        8.698       16.614       20.501       24.751       29.831       21.897      612.628      889.914      479.498        0.138        0.099       18.753       14.697        0.614      347.044       25.728      866.210
07/02/2013  22:19:00      -33.155       -3.293       -0.794       30.855       18.100       14.763      952.018      327.617      217.938        0.130        0.075       33.319       16.409        0.243      347.097       25.823      866.226
07/02/2013  22:20:00       -6.243        8.740        6.437       11.623       10.123        7.699      135.089      102.466       59.270        0.023        0.015       10.741        3.581        0.111      347.008       25.665      866.235
07/02/2013  22:21:00       33.412       36.756        3.327       15.891       13.367        9.657      252.524      178.683       93.262        0.150        0.026       49.672        5.734        0.013      346.926       25.524      866.220
07/02/2013  22:22:00       14.400       69.829       -8.904       23.294       38.978       15.646      542.599     1519.287      244.787        0.373        0.115       71.298       15.151        0.045      346.968       25.598      866.212
07/02/2013  22:23:00        2.375      111.330       -9.617       25.913       34.353       16.152      671.477     1180.114      260.900        0.730        0.106      111.355       10.572        0.009      347.094       25.813      866.207
07/02/2013  22:24:00       -2.918       32.481       -4.282       11.797       20.450        7.884      139.168      418.200       62.150        0.085        0.031       32.612        7.076        0.047      347.049       25.738      866.191
07/02/2013  22:25:00        1.723       18.003       -2.914        4.966       13.829        4.670       24.657      191.250       21.811        0.029        0.012       18.085        5.259        0.085      346.989       25.636      866.172
07/02/2013  22:26:00        4.430       38.698        3.942        7.772       12.015       12.361       60.410      144.360      152.787        0.095        0.018       38.951        8.268        0.045      346.825       25.352      866.163
07/02/2013  22:27:00        6.273       72.278       -4.327       24.697       40.758       13.119      609.924     1661.225      172.109        0.386        0.122       72.550        7.281        0.010      346.915       25.506      866.139
07/02/2013  22:28:00      -89.385       81.517      -20.742       20.466       45.191       18.946      418.856     2042.192      358.944        0.894        0.141      120.974       21.349        0.031      347.138       25.887      866.138
07/02/2013  22:29:00      -61.997       -1.493      -18.765       39.377       22.335       20.911     1550.541      498.847      437.282        0.334        0.124       62.015       21.204        0.117      347.080       25.790      866.127
07/02/2013  22:30:00      -30.052       25.554       -5.171       18.617       18.752       13.235      346.581      351.623      175.169        0.123        0.044       39.448       13.169        0.111      346.944       25.554      866.123
07/02/2013  22:31:00      -18.364       80.638       -6.422       14.681       13.934       11.059      215.542      194.148      122.293        0.371        0.027       82.703        7.460        0.008      346.962       25.587      866.118
07/02/2013  22:32:00      -45.155       39.452       -4.400       20.480       31.397        8.694      419.436      985.796       75.588        0.255        0.074       59.962        6.131        0.010      346.827       25.355      866.119
07/02/2013  22:33:00     -112.282        8.900       -8.774       33.535       28.298       22.678     1124.603      800.771      514.302        0.760        0.122      112.635       15.216        0.018      346.579       24.927      866.112
07/02/2013  22:34:00     -115.594       42.424       -8.933       34.005       26.816       17.290     1156.311      719.096      298.958        0.871        0.109      123.133        7.768        0.004      346.267       24.392      866.113
07/02/2013  22:35:00     -123.202       10.176      -11.194       32.170       35.852       18.333     1034.938     1285.351      336.099        0.903        0.133      123.621       17.689        0.020      346.333       24.505      866.124
07/02/2013  22:36:00      -57.336       -3.914       -5.502       26.982       21.171       15.606      728.051      448.228      243.541        0.238        0.071       57.470       11.228        0.038      346.457       24.717      866.111
07/02/2013  22:37:00      -73.904       38.747       -2.947       21.227       14.017       12.620      450.605      196.466      159.257        0.389        0.040       83.445        9.555        0.013      346.635       25.025      866.101
07/02/2013  22:38:00      -43.600       64.537       -6.304       26.653       27.838       19.688      710.376      774.978      387.609        0.399        0.094       77.885       22.721        0.085      346.493       24.781      866.100
07/02/2013  22:39:00      -26.175       38.542        2.135       20.394       15.447       13.741      415.916      238.598      188.815        0.151        0.042       46.590        8.784        0.036      346.329       24.499      866.081
07/02/2013  22:40:00     -104.641       50.666      -17.005       49.994       23.127       12.464     2499.398      534.876      155.343        0.850        0.159      116.261        8.679        0.006      346.165       24.217      866.101
07/02/2013  22:41:00     -145.794      125.036      -21.353       44.696       50.713       27.667     1997.764     2571.804      765.442        2.134        0.267      192.067       18.654        0.009      345.971       23.882      866.124
07/02/2013  22:42:00     -106.644       42.177      -28.963       31.105       64.192       24.594      967.543     4120.649      604.861        0.984        0.285      114.681       28.807        0.063      345.914       23.785      866.125
07/02/2013  22:43:00     -131.991      -26.200      -15.228       37.545       31.909       26.248     1409.620     1018.207      688.932        1.073        0.156      134.566       17.862        0.018      345.982       23.903      866.118
07/02/2013  22:44:00      -71.591      -34.218       -2.586       24.626       25.931       18.290      606.419      672.411      334.514        0.396        0.081       79.348       12.964        0.027      345.995       23.923      866.103
07/02/2013  22:45:00      -61.169      -30.900       -5.575       19.702       10.534       10.327      388.188      110.968      106.644        0.267        0.030       68.531        5.803        0.007      346.060       24.036      866.089
07/02/2013  22:46:00     -110.380      -38.474       -8.308       23.586       27.778       12.979      556.278      771.603      168.449        0.761        0.075      116.893       12.098        0.011      346.019       23.965      866.089
07/02/2013  22:47:00     -105.601       -9.409       -8.632       22.646       14.334       14.431      512.857      205.458      208.252        0.612        0.046      106.019        7.313        0.005      345.994       23.924      866.092
07/02/2013  22:48:00      -48.909       -4.792       -1.856       15.163       16.688       10.301      229.907      278.501      106.106        0.152        0.031       49.144        9.143        0.035      345.922       23.799      866.081
07/02/2013  22:49:00      -63.029      -17.228       -0.297       27.584       17.729       13.956      760.871      314.303      194.763        0.277        0.063       65.341       10.829        0.027      345.953       23.852      866.081
07/02/2013  22:50:00      -95.409      -17.718      -10.920       20.661       15.841       13.788      426.873      250.950      190.095        0.520        0.043       97.040       11.653        0.014      346.011       23.951      866.084
07/02/2013  22:51:00      -71.436      -11.311       -1.424       26.696       21.838       13.501      712.658      476.914      182.290        0.330        0.069       72.326       15.659        0.047      346.078       24.066      866.075
07/02/2013  22:52:00      -93.102       10.295       -7.119       31.754       27.509       15.164     1008.343      756.734      229.936        0.541        0.100       93.670       16.587        0.031      345.929       23.813      866.070
07/02/2013  22:53:00     -131.892       -0.902       -8.616       32.908       22.849       18.060     1082.946      522.070      326.163        0.970        0.097      131.895       17.634        0.018      345.832       23.644      866.076
07/02/2013  22:54:00     -105.124      -22.356        1.097       35.647       25.090       20.925     1270.697      629.492      437.874        0.694        0.117      107.475       19.776        0.034      345.855       23.685      866.086
07/02/2013  22:55:00      -85.365      -18.360        1.628       37.047       27.293       20.141     1372.498      744.905      405.652        0.507        0.126       87.317       18.805        0.046      345.857       23.688      866.098
07/02/2013  22:56:00     -108.481      -12.782       -1.113       31.523       32.949       20.601      993.707     1085.629      424.404        0.722        0.125      109.232       17.977        0.027      345.889       23.742      866.109
07/02/2013  22:57:00     -137.966       44.205       -8.297       41.436       27.150       21.375     1716.917      737.135      456.869        1.198        0.146      144.875       19.384        0.018      345.967       23.876      866.123
07/02/2013  22:58:00     -105.464       -8.011      -19.873       36.823       32.087       25.456     1355.953     1029.600      647.998        0.731        0.152      105.768       21.313        0.041      345.959       23.863      866.149
07/02/2013  22:59:00     -114.714      -15.517      -14.168       30.756       27.421       17.729      945.942      751.925      314.322        0.781        0.101      115.758       14.216        0.015      346.149       24.188      866.148
07/02/2013  23:00:00      -84.973      -56.015       -1.906       39.601       28.790       17.735     1568.257      828.862      314.546        0.654        0.136      101.774       17.306        0.029      346.237       24.341      866.124
07/02/2013  23:01:00      -17.733      -62.384       10.156       58.028       44.903       31.371     3367.211     2016.275      984.113        0.534        0.318       64.856       32.653        0.253      346.220       24.311      866.112
07/02/2013  23:02:00      -73.250      -56.131        4.309       37.780       40.220       26.849     1427.337     1617.642      720.891        0.615        0.188       92.283       25.596        0.077      346.290       24.433      866.110
07/02/2013  23:03:00     -101.058       40.291      -13.641       31.454       46.777       18.072      989.338     2188.094      326.597        0.776        0.175      108.793       18.744        0.030      346.113       24.125      866.120
07/02/2013  23:04:00     -122.117       82.431      -19.945       52.175       38.166       32.252     2722.264     1456.664     1040.191        1.366        0.261      147.334       35.277        0.057      346.053       24.023      866.155
07/02/2013  23:05:00     -104.741       53.307      -12.860       36.567       29.813       19.885     1337.146      888.837      395.405        0.830        0.131      117.526       16.537        0.020      346.187       24.254      866.156
07/02/2013  23:06:00      -33.801       16.304        0.215       25.524       11.556        9.737      651.456      133.552       94.816        0.114        0.044       37.528        4.548        0.015      346.210       24.293      866.133
07/02/2013  23:07:00      -65.352       35.312      -11.491       22.351       17.363        9.840      499.557      301.490       96.821        0.327        0.045       74.282        5.967        0.006      346.310       24.465      866.117
07/02/2013  23:08:00      -76.124       24.245      -12.314       23.569       15.773       14.012      555.495      248.786      196.339        0.377        0.050       79.892       11.785        0.022      346.103       24.109      866.126
07/02/2013  23:09:00      -77.980       -3.574       -6.310       21.945       17.551       11.957      481.565      308.050      142.975        0.353        0.047       78.062       11.232        0.021      346.082       24.073      866.139
07/02/2013  23:10:00      -34.199      -21.193       -5.999       11.253       14.146        9.629      126.640      200.105       92.721        0.104        0.021       40.233        2.602        0.004      346.016       23.960      866.129
07/02/2013  23:11:00       -7.995        7.877       -0.634       15.599       17.101       10.337      243.337      292.452      106.854        0.038        0.032       11.224       12.133        1.169      346.174       24.232      866.117
07/02/2013  23:12:00      -19.033       48.081       -7.533       24.067       24.685       15.583      579.225      609.345      242.823        0.208        0.072       51.711       17.186        0.110      346.462       24.727      866.135
07/02/2013  23:13:00        7.158       41.689       -1.280       22.558       16.912       12.812      508.868      286.015      164.160        0.137        0.048       42.300       11.245        0.071      346.357       24.546      866.141
07/02/2013  23:14:00      -19.853       34.215       -4.605       12.950       17.678       10.339      167.691      312.525      106.892        0.109        0.029       39.557       11.851        0.090      346.588       24.942      866.133
07/02/2013  23:15:00       -3.890       26.443        6.731        9.096       10.498        9.437       82.734      110.215       89.050        0.052        0.014       26.728        4.781        0.032      346.651       25.053      866.136
07/02/2013  23:16:00      -24.088       54.972       -7.604       18.253       23.611        8.262      333.154      557.500       68.267        0.231        0.048       60.018       10.796        0.032      346.539       24.860      866.150
07/02/2013  23:17:00      -55.800       25.389       -9.051       18.806       25.577        8.653      353.660      654.168       74.878        0.246        0.054       61.305        9.265        0.023      346.237       24.341      866.174
07/02/2013  23:18:00      -89.877       -5.418      -12.057       13.370       14.062       11.054      178.760      197.744      122.201        0.438        0.025       90.040        6.038        0.004      345.888       23.741      866.189
07/02/2013  23:19:00      -80.383      -24.334      -16.203       15.794       11.989        8.392      249.436      143.733       70.425        0.389        0.023       83.986        8.695        0.011      345.813       23.611      866.202
07/02/2013  23:20:00      -81.233      -32.272       -9.326       23.192       20.703       15.302      537.856      428.629      234.154        0.446        0.060       87.409        7.384        0.007      345.755       23.513      866.203
07/02/2013  23:21:00      -72.198      -15.713       -7.466       22.439       34.419       15.037      503.507     1184.674      226.102        0.371        0.096       73.888        8.616        0.014      345.835       23.650      866.206
07/02/2013  23:22:00      -94.195      -29.746       -7.377       25.365       24.865       10.587      643.397      618.246      112.088        0.559        0.069       98.780        3.361        0.001      345.845       23.666      866.213
07/02/2013  23:23:00      -97.788      -20.580       -8.830       30.652       23.945       13.899      939.539      573.343      193.190        0.588        0.085       99.930       10.591        0.011      345.883       23.732      866.230
07/02/2013  23:24:00     -115.573      -28.506       -3.956       23.855       16.883       14.554      569.044      285.032      211.830        0.763        0.053      119.036       11.907        0.010      345.999       23.932      866.239
07/02/2013  23:25:00     -111.101      -29.200       -2.944       22.955       18.341       14.617      526.944      336.374      213.646        0.714        0.054      114.874       13.233        0.013      345.973       23.887      866.249
07/02/2013  23:26:00     -108.345      -34.521       -1.790       18.633       17.587       11.722      347.206      309.287      137.414        0.686        0.040      113.712        9.969        0.008      345.996       23.926      866.246
07/02/2013  23:27:00      -81.497      -47.372        2.737       25.545       21.802       14.415      652.528      475.306      207.780        0.511        0.067       94.265       13.107        0.019      345.963       23.869      866.243
07/02/2013  23:28:00      -94.445      -49.981       -4.040       23.338       15.833       11.180      544.667      250.672      125.001        0.618        0.046      106.855        9.286        0.008      345.919       23.793      866.239
07/02/2013  23:29:00     -107.134      -46.486       -7.867       25.537       20.193       13.814      652.120      407.742      190.829        0.748        0.063      116.785       10.993        0.009      345.896       23.753      866.243
07/02/2013  23:30:00     -126.921      -36.996       -9.494       15.017       11.521        9.834      225.522      132.724       96.708        0.901        0.023      132.203        6.028        0.002      345.874       23.716      866.259
07/02/2013  23:31:00     -122.036      -19.806       -7.084       27.745       19.526       17.758      769.796      381.265      315.332        0.840        0.073      123.632       11.579        0.009      345.823       23.630      866.277
07/02/2013  23:32:00     -140.927      -10.816      -11.579       27.597       21.936       14.110      761.584      481.202      199.079        1.078        0.072      141.341       12.743        0.008      345.687       23.397      866.299
07/02/2013  23:33:00     -114.216      -17.175        4.320       46.898       28.825       24.546     2199.456      830.880      602.519        0.850        0.182      115.500       24.678        0.046      345.823       23.629      866.317
07/02/2013  23:34:00     -106.878       -0.241      -10.288       37.525       31.860       15.280     1408.128     1015.087      233.493        0.709        0.133      106.878       13.413        0.016      345.947       23.842      866.323
07/02/2013  23:35:00      -69.935      -33.737        0.094       22.939       15.936       13.755      526.210      253.943      189.208        0.350        0.048       77.648       10.044        0.017      345.923       23.799      866.317
07/02/2013  23:36:00      -44.340      -34.851        8.407       40.614       28.891       20.011     1649.462      834.668      400.442        0.307        0.144       56.397       22.907        0.165      345.870       23.711      866.316
07/02/2013  23:37:00      -68.178      -45.507       -4.345       27.867       35.903       19.996      776.555     1289.014      399.826        0.460        0.123       81.970       14.465        0.031      346.001       23.935      866.316
07/02/2013  23:38:00      -59.284      -44.261       -1.129       25.069       29.318       12.094      628.473      859.555      146.267        0.355        0.082       73.984       10.312        0.019      345.945       23.840      866.309
07/02/2013  23:39:00      -82.728      -42.948       -0.859       24.610       20.438       13.556      605.665      417.727      183.766        0.495        0.060       93.211        7.912        0.007      345.910       23.778      866.316
07/02/2013  23:40:00      -87.316      -36.079        1.961       24.481       20.538       12.763      599.322      421.828      162.903        0.506        0.059       94.476       12.612        0.018      345.816       23.616      866.324
07/02/2013  23:41:00      -98.135      -48.760        3.670       40.622       35.507       24.535     1650.144     1260.726      601.986        0.777        0.176      109.582       23.359        0.045      345.932       23.816      866.323
07/02/2013  23:42:00      -37.798      -23.602       11.293       34.758       24.379       14.498     1208.131      594.347      210.206        0.206        0.101       44.561       11.667        0.069      345.931       23.814      866.316
07/02/2013  23:43:00      -29.672      -37.090       -0.241       32.582       27.627       14.452     1061.570      763.248      208.851        0.214        0.102       47.498       15.387        0.105      345.922       23.800      866.318
07/02/2013  23:44:00      -14.827      -52.445       -2.701       26.585       37.692       20.615      706.749     1420.705      424.975        0.276        0.128       54.501       17.988        0.109      345.929       23.812      866.319
07/02/2013  23:45:00       -2.201      -52.539       -3.324       20.045       18.339       15.953      401.809      336.334      254.483        0.188        0.050       52.585       10.264        0.038      345.951       23.849      866.329
07/02/2013  23:46:00      -11.930      -64.012       -0.983       14.760       19.008        9.264      217.845      361.308       85.818        0.245        0.033       65.115        7.841        0.014      346.003       23.937      866.354
07/02/2013  23:47:00       -7.388      -22.353        3.605       25.135       26.446       19.305      631.783      699.386      372.695        0.114        0.085       23.543       15.425        0.429      345.884       23.733      866.383
07/02/2013  23:48:00       18.648       15.815       21.837       17.502       22.191       15.474      306.334      492.446      239.456        0.106        0.052       24.451       14.407        0.347      345.736       23.480      866.406
07/02/2013  23:49:00       -3.346       18.317       31.256       10.628       27.208       20.331      112.950      740.295      413.335        0.129        0.063       18.620       20.939        1.265      345.767       23.535      866.426
07/02/2013  23:50:00       -7.123       22.881       51.196       10.947       20.600       14.828      119.841      424.365      219.873        0.198        0.038       23.964       14.500        0.366      345.869       23.708      866.424
07/02/2013  23:51:00       -7.444        8.403       40.952        9.754       15.877       10.696       95.149      252.068      114.412        0.113        0.023       11.226        8.717        0.603      345.941       23.830      866.423
07/02/2013  23:52:00        8.031      -24.060       26.118       16.060       23.584       19.889      257.918      556.214      395.579        0.127        0.060       25.364       14.207        0.314      345.881       23.729      866.414
07/02/2013  23:53:00        3.667      -21.739       12.147       16.994       22.038       13.249      288.787      485.668      175.527        0.079        0.047       22.046       11.278        0.262      345.825       23.634      866.422
07/02/2013  23:54:00      -30.187      -15.773        3.422       11.813        8.031        7.086      139.559       64.493       50.210        0.071        0.013       34.059        5.124        0.023      345.793       23.578      866.417
07/02/2013  23:55:00      -46.354      -34.326       -2.597       17.101        9.537        8.300      292.455       90.958       68.883        0.189        0.023       57.680        6.083        0.011      345.818       23.618      866.415
07/02/2013  23:56:00      -42.864      -35.335       -7.543       37.506       17.695       13.291     1406.696      313.105      176.654        0.252        0.095       55.551        6.122        0.012      345.756       23.514      866.398
07/02/2013  23:57:00      -36.446      -25.047       -0.310       28.896       18.360        9.494      834.965      337.096       90.129        0.161        0.063       44.222        9.912        0.050      345.719       23.451      866.381
07/02/2013  23:58:00      -75.329       -8.938       -3.741       30.317       14.316       11.154      919.127      204.938      124.423        0.351        0.062       75.857       11.035        0.021      345.585       23.221      866.367
07/02/2013  23:59:00      -87.989      -18.162      -10.335       20.440       13.550       13.019      417.797      183.604      169.499        0.447        0.039       89.843       10.651        0.014      345.499       23.074      866.362
